[[{"header":{"parameterUnit":"m.s-1","parameterCategory":1,"la1":30.6,"la2":28.766,"lo1":-90.7593,"lo2":-88.6598,"dy":0.0162,"dx":0.0183,"nx":116,"ny":114,"refTime":"2023-03-17T00:00:00:Z","depth":0,"parameterNumber":2,"parameterNumberName":"U-component_of_WINDS"},"data":[0.0,0.0,0.0,0.0,0.0,0.0,0.0,0.0,0.0,0.0,0.0,0.0,0.0,0.0,0.0,0.0,0.0,0.0,0.0,0.0,0.0,0.0,0.0,0.0,0.0,0.0,0.0,0.0,0.0,0.0,0.0,0.0,0.0,0.0,0.0,0.0,0.0,0.0,0.0,0.0,0.0,0.0,0.0,0.0,0.0,0.0,0.0,0.0,0.0,0.0,0.0,0.0,0.0,0.0,0.0,0.0,0.0,0.0,0.0,0.0,0.0,0.0,0.0,0.0,0.0,0.0,0.0,0.0,0.0,0.0,0.0,0.0,0.0,0.0,0.0,0.0,0.0,0.0,0.0,0.0,0.0,0.0,0.0,0.0,0.0,0.0,0.0,0.0,0.0,0.0,0.0,0.0,0.0,0.0,0.0,0.0,0.0,0.0,0.0,0.0,0.0,0.0,0.0,0.0,0.0,0.0,0.0,0.0,0.0,0.0,0.0,0.0,0.0,0.0,0.0,0.0,0.0,0.0,0.0,0.0,0.0,0.0,0.0,0.0,0.0,0.0,0.0,0.0,0.0,0.0,0.0,0.0,0.0,0.0,0.0,0.0,0.0,0.0,0.0,0.0,0.0,0.0,0.0,0.0,0.0,0.0,0.0,0.0,0.0,0.0,0.0,0.0,0.0,0.0,0.0,0.0,0.0,0.0,0.0,0.0,0.0,0.0,0.0,0.0,0.0,0.0,0.0,0.0,0.0,0.0,0.0,0.0,0.0,0.0,0.0,0.0,0.0,0.0,0.0,0.0,0.0,0.0,0.0,0.0,0.0,0.0,0.0,0.0,0.0,0.0,0.0,0.0,0.0,0.0,0.0,0.0,0.0,0.0,0.0,0.0,0.0,0.0,0.0,0.0,0.0,0.0,0.0,0.0,0.0,0.0,0.0,0.0,0.0,0.0,0.0,0.0,0.0,0.0,0.0,0.0,0.0,0.0,0.0,0.0,0.0,0.0,0.0,0.0,0.0,0.0,0.0,0.0,0.0,0.0,0.0,0.0,0.0,0.0,0.0,0.0,0.0,0.0,0.0,0.0,0.0,0.0,0.0,0.0,0.0,0.0,0.0,0.0,0.0,0.0,0.0,0.0,0.0,0.0,0.0,0.0,0.0,0.0,0.0,0.0,0.0,0.0,0.0,0.0,0.0,0.0,0.0,0.0,0.0,0.0,0.0,0.0,0.0,0.0,0.0,0.0,0.0,0.0,0.0,0.0,0.0,0.0,0.0,0.0,0.0,0.0,0.0,0.0,0.0,0.0,0.0,0.0,0.0,0.0,0.0,0.0,0.0,0.0,0.0,0.0,0.0,0.0,0.0,0.0,0.0,0.0,0.0,0.0,0.0,0.0,0.0,0.0,0.0,0.0,0.0,0.0,0.0,0.0,0.0,0.0,0.0,0.0,0.0,0.0,0.0,0.0,0.0,0.0,0.0,0.0,0.0,0.0,0.0,0.0,0.0,0.0,0.0,0.0,0.0,0.0,0.0,0.0,0.0,0.0,0.0,0.0,0.0,0.0,0.0,0.0,0.0,0.0,0.0,0.0,0.0,0.0,0.0,0.0,0.0,0.0,0.0,0.0,0.0,0.0,0.0,0.0,0.0,0.0,0.0,0.0,0.0,0.0,0.0,0.0,0.0,0.0,0.0,0.0,0.0,0.0,0.0,0.0,0.0,0.0,0.0,0.0,0.0,0.0,0.0,0.0,0.0,0.0,0.0,0.0,0.0,0.0,0.0,0.0,0.0,0.0,0.0,0.0,0.0,0.0,0.0,0.0,0.0,0.0,0.0,0.0,0.0,0.0,0.0,0.0,0.0,0.0,0.0,0.0,0.0,0.0,0.0,0.0,0.0,0.0,0.0,0.0,0.0,0.0,0.0,0.0,0.0,0.0,0.0,0.0,0.0,0.0,0.0,0.0,0.0,0.0,0.0,0.0,0.0,0.0,0.0,0.0,0.0,0.0,0.0,0.0,0.0,0.0,0.0,0.0,0.0,0.0,0.0,0.0,0.0,0.0,0.0,0.0,0.0,0.0,0.0,0.0,0.0,0.0,0.0,0.0,0.0,0.0,0.0,0.0,0.0,0.0,0.0,0.0,0.0,0.0,0.0,0.0,0.0,0.0,0.0,0.0,0.0,0.0,0.0,0.0,0.0,0.0,0.0,0.0,0.0,0.0,0.0,0.0,0.0,0.0,0.0,0.0,0.0,0.0,0.0,0.0,0.0,0.0,0.0,0.0,0.0,0.0,0.0,0.0,0.0,0.0,0.0,0.0,0.0,0.0,0.0,0.0,0.0,0.0,0.0,0.0,0.0,0.0,0.0,0.0,0.0,0.0,0.0,0.0,0.0,0.0,0.0,0.0,0.0,0.0,0.0,0.0,0.0,0.0,0.0,0.0,0.0,0.0,0.0,0.0,0.0,0.0,0.0,0.0,0.0,0.0,0.0,0.0,0.0,0.0,0.0,0.0,0.0,0.0,0.0,0.0,0.0,0.0,0.0,0.0,0.0,0.0,0.0,0.0,0.0,0.0,0.0,0.0,0.0,0.0,0.0,0.0,0.0,0.0,0.0,0.0,0.0,0.0,0.0,0.0,0.0,0.0,0.0,0.0,0.0,0.0,0.0,0.0,0.0,0.0,0.0,0.0,0.0,0.0,0.0,0.0,0.0,0.0,0.0,0.0,0.0,0.0,0.0,0.0,0.0,0.0,0.0,0.0,0.0,0.0,0.0,0.0,0.0,0.0,0.0,0.0,0.0,0.0,0.0,0.0,0.0,0.0,0.0,0.0,0.0,0.0,0.0,0.0,0.0,0.0,0.0,0.0,0.0,0.0,0.0,0.0,0.0,0.0,0.0,0.0,0.0,0.0,0.0,0.0,0.0,0.0,0.0,0.0,0.0,0.0,0.0,0.0,0.0,0.0,0.0,0.0,0.0,0.0,0.0,0.0,0.0,0.0,0.0,0.0,0.0,0.0,0.0,0.0,0.0,0.0,0.0,0.0,0.0,0.0,0.0,0.0,0.0,0.0,0.0,0.0,0.0,0.0,0.0,0.0,0.0,0.0,0.0,0.0,0.0,0.0,0.0,0.0,0.0,0.0,0.0,0.0,0.0,0.0,0.0,0.0,0.0,0.0,0.0,0.0,0.0,0.0,0.0,0.0,0.0,0.0,0.0,0.0,0.0,0.0,0.0,0.0,0.0,0.0,0.0,0.0,0.0,0.0,0.0,0.0,0.0,0.0,0.0,0.0,0.0,0.0,0.0,0.0,0.0,0.0,0.0,0.0,0.0,0.0,0.0,0.0,0.0,0.0,0.0,0.0,0.0,0.0,0.0,0.0,0.0,0.0,0.0,0.0,0.0,0.0,0.0,0.0,0.0,0.0,0.0,0.0,0.0,0.0,0.0,0.0,0.0,0.0,0.0,0.0,0.0,0.0,0.0,0.0,0.0,0.0,0.0,0.0,0.0,0.0,0.0,0.0,0.0,0.0,0.0,0.0,0.0,0.0,0.0,0.0,0.0,0.0,0.0,0.0,0.0,0.0,0.0,0.0,0.0,0.0,0.0,0.0,0.0,0.0,0.0,0.0,0.0,0.0,0.0,0.0,0.0,0.0,0.0,0.0,0.0,0.0,0.0,0.0,0.0,0.0,0.0,0.0,0.0,0.0,0.0,0.0,0.0,0.0,0.0,0.0,0.0,0.0,0.0,0.0,0.0,0.0,0.0,0.0,0.0,0.0,0.0,0.0,0.0,0.0,0.0,0.0,0.0,0.0,0.0,0.0,0.0,0.0,0.0,0.0,0.0,0.0,0.0,0.0,0.0,0.0,0.0,0.0,0.0,0.0,0.0,0.0,0.0,0.0,0.0,0.0,0.0,0.0,0.0,0.0,0.0,0.0,0.0,0.0,0.0,0.0,0.0,0.0,0.0,0.0,0.0,0.0,0.0,0.0,0.0,0.0,0.0,0.0,0.0,0.0,0.0,0.0,0.0,0.0,0.0,0.0,0.0,0.0,0.0,0.0,0.0,0.0,0.0,0.0,0.0,0.0,0.0,0.0,0.0,0.0,0.0,0.0,0.0,0.0,0.0,0.0,0.0,0.0,0.0,0.0,0.0,0.0,0.0,0.0,0.0,0.0,0.0,0.0,0.0,0.0,0.0,0.0,0.0,0.0,0.0,0.0,0.0,0.0,0.0,0.0,0.0,0.0,0.0,0.0,0.0,0.0,0.0,0.0,0.0,0.0,0.0,0.0,0.0,0.0,0.0,0.0,0.0,0.0,0.0,0.0,0.0,0.0,0.0,0.0,0.0,0.0,0.0,0.0,0.0,0.0,0.0,0.0,0.0,0.0,0.0,0.0,0.0,0.0,0.0,0.0,0.0,0.0,0.0,0.0,0.0,0.0,0.0,0.0,0.0,0.0,0.0,0.0,0.0,0.0,0.0,0.0,0.0,0.0,0.0,0.0,0.0,0.0,0.0,0.0,0.0,0.0,0.0,0.0,0.0,0.0,0.0,0.0,0.0,0.0,0.0,0.0,0.0,0.0,0.0,0.0,0.0,0.0,0.0,0.0,0.0,0.0,0.0,0.0,0.0,0.0,0.0,0.0,0.0,0.0,0.0,0.0,0.0,0.0,0.0,0.0,0.0,0.0,0.0,0.0,0.0,0.0,0.0,0.0,0.0,0.0,0.0,0.0,0.0,0.0,0.0,0.0,0.0,0.0,0.0,0.0,0.0,0.0,0.0,0.0,0.0,0.0,0.0,0.0,0.0,0.0,0.0,0.0,0.0,0.0,0.0,0.0,0.0,0.0,0.0,0.0,0.0,0.0,0.0,0.0,0.0,0.0,0.0,0.0,0.0,0.0,0.0,0.0,0.0,0.0,0.0,0.0,0.0,0.0,0.0,0.0,0.0,0.0,0.0,0.0,0.0,0.0,0.0,0.0,0.0,0.0,0.0,0.0,0.0,0.0,0.0,0.0,0.0,0.0,0.0,0.0,0.0,0.0,0.0,0.0,0.0,0.0,0.0,0.0,0.0,0.0,0.0,0.0,0.0,0.0,0.0,0.0,0.0,0.0,0.0,0.0,0.0,0.0,0.0,0.0,0.0,0.0,0.0,0.0,0.0,0.0,0.0,0.0,0.0,0.0,0.0,0.0,0.0,0.0,0.0,0.0,0.0,0.0,0.0,0.0,0.0,0.0,0.0,0.0,0.0,0.0,0.0,0.0,0.0,0.0,0.0,0.0,0.0,0.0,0.0,0.0,0.0,0.0,0.0,0.0,0.0,0.0,0.0,0.0,0.0,0.0,0.0,0.0,0.0,0.0,0.0,0.0,0.0,0.0,0.0,0.0,0.0,0.0,0.0,0.0,0.0,0.0,0.0,0.0,0.0,0.0,0.0,0.0,0.0,0.0,0.0,0.0,0.0,0.0,0.0,0.0,0.0,0.0,0.0,0.0,0.0,0.0,0.0,0.0,0.0,0.0,0.0,0.0,0.0,0.0,0.0,0.0,0.0,0.0,0.0,0.0,0.0,0.0,0.0,0.0,0.0,0.0,0.0,0.0,0.0,0.0,0.0,0.0,0.0,0.0,0.0,0.0,0.0,0.0,0.0,0.0,0.0,0.0,0.0,0.0,0.0,0.0,0.0,0.0,0.0,0.0,0.0,0.0,0.0,0.0,0.0,0.0,0.0,0.0,0.0,0.0,0.0,0.0,0.0,0.0,0.0,0.0,0.0,0.0,0.0,0.0,0.0,0.0,0.0,0.0,0.0,0.0,0.0,0.0,0.0,0.0,0.0,0.0,0.0,0.0,0.0,0.0,0.0,0.0,0.0,0.0,0.0,0.0,0.0,0.0,0.0,0.0,0.0,0.0,0.0,0.0,0.0,0.0,0.0,0.0,0.0,0.0,0.0,0.0,0.0,0.0,0.0,0.0,0.0,0.0,0.0,0.0,0.0,0.0,0.0,0.0,0.0,0.0,0.0,0.0,0.0,0.0,0.0,0.0,0.0,0.0,0.0,0.0,0.0,0.0,0.0,0.0,0.0,0.0,0.0,0.0,0.0,0.0,0.0,0.0,-4.5644,-4.504,0.0,0.0,0.0,0.0,0.0,0.0,0.0,0.0,0.0,0.0,0.0,0.0,0.0,0.0,0.0,0.0,0.0,0.0,0.0,0.0,0.0,0.0,0.0,0.0,0.0,0.0,0.0,0.0,0.0,0.0,0.0,0.0,0.0,0.0,0.0,0.0,0.0,0.0,2.9163,2.4315,1.8712,1.8084,1.6252,1.3546,0.0,0.0,0.0,0.0,0.0,0.0,0.0,0.0,0.0,0.0,0.0,0.0,0.0,0.0,0.0,0.0,0.0,0.0,0.0,0.0,0.0,0.0,0.0,0.0,0.0,0.0,0.0,0.0,0.0,0.0,0.0,0.0,0.0,0.0,0.0,0.0,0.0,0.0,0.0,0.0,0.0,0.0,0.0,0.0,0.0,0.0,0.0,0.0,0.0,0.0,0.0,0.0,0.0,0.0,0.0,0.0,0.0,0.0,0.0,0.0,0.0,0.0,0.0,0.0,0.0,0.0,0.0,0.0,0.0,0.0,-4.735,-4.6806,0.0,0.0,0.0,0.0,0.0,0.0,0.0,0.0,0.0,0.0,0.0,0.0,0.0,0.0,0.0,0.0,0.0,0.0,0.0,0.0,0.0,0.0,0.0,0.0,4.3623,4.2582,4.3922,4.4303,0.0,0.0,0.0,0.0,0.0,0.0,0.0,3.7002,3.4096,3.0525,2.5353,1.9374,1.2786,1.0228,0.8652,0.7961,0.9738,0.0,0.0,0.0,0.0,0.0,0.0,0.0,0.0,0.0,0.0,0.0,0.0,0.0,0.0,0.0,0.0,0.0,0.0,0.0,0.0,0.0,0.0,0.0,0.0,0.0,0.0,0.0,0.0,0.0,0.0,0.0,0.0,0.0,0.0,0.0,0.0,0.0,0.0,0.0,0.0,0.0,0.0,0.0,0.0,0.0,0.0,0.0,0.0,0.0,0.0,0.0,0.0,0.0,0.0,0.0,0.0,0.0,0.0,0.0,0.0,0.0,0.0,0.0,-4.7967,-4.8394,-4.905,-4.9571,-4.9763,-4.9768,-4.8768,-4.8682,-4.906,-4.8094,0.0,0.0,0.0,0.0,0.0,0.0,0.0,0.0,0.0,0.0,0.0,0.0,0.0,0.0,0.0,0.0,0.0,0.0,0.0,0.0,0.0,4.3165,4.2698,4.1015,4.1992,4.2325,0.0,0.0,0.0,0.0,0.0,0.0,0.0,3.4137,3.0616,2.6099,1.759,1.217,0.9408,0.6047,0.3737,0.2522,0.5049,0.4725,0.2104,0.0,0.0,0.0,0.0,0.0,0.0,0.0,0.0,0.0,0.0,0.0,0.0,0.0,0.0,0.0,0.0,0.0,0.0,0.0,0.0,0.0,0.0,0.0,0.0,0.0,0.0,0.0,0.0,0.0,0.0,0.0,0.0,0.0,0.0,0.0,0.0,0.0,0.0,0.0,0.0,0.0,-3.502,-3.8699,0.0,0.0,0.0,0.0,0.0,0.0,0.0,0.0,0.0,0.0,0.0,0.0,0.0,-4.8597,-4.7704,-4.9092,-4.9422,-4.866,-4.9319,-4.9768,-5.0066,-5.0412,-5.0301,-4.9757,-4.9192,0.0,-4.9648,-4.9127,0.0,0.0,0.0,0.0,0.0,0.0,0.0,0.0,0.0,0.0,0.0,0.0,0.0,0.0,0.0,0.0,0.0,0.0,0.0,0.0,0.0,4.1261,4.0408,3.9272,3.9848,3.9897,3.9013,3.9915,0.0,0.0,0.0,0.0,3.5813,3.3014,2.8077,2.0701,1.432,0.9802,0.6929,0.4922,0.3191,0.1595,0.2024,0.0907,-0.1042,-0.058,0.0,0.0,0.0,0.0,0.0,0.0,0.0,0.0,0.0,0.0,0.0,0.0,0.0,0.0,0.0,0.0,0.0,0.0,0.0,0.0,0.0,0.0,0.0,0.0,0.0,0.0,0.0,0.0,0.0,0.0,0.0,0.0,0.0,0.0,0.0,0.0,0.0,0.0,0.0,-3.3196,-3.5796,-3.8496,-3.9027,-3.9857,0.0,0.0,0.0,0.0,0.0,0.0,0.0,0.0,0.0,-4.7836,-4.82,-4.8398,-4.8431,-4.8718,-4.887,-4.8931,-4.9154,-4.9458,-4.9876,-4.995,-5.0102,-5.0229,-4.9715,-4.9839,-5.0504,-4.9125,-4.9525,-5.0791,0.0,0.0,0.0,0.0,-5.1638,-5.2247,0.0,0.0,0.0,0.0,0.0,0.0,0.0,0.0,0.0,0.0,0.0,0.0,4.0124,3.9062,3.7878,3.6841,3.7298,3.7234,3.6158,3.6921,0.0,0.0,0.0,3.5485,3.427,2.9928,2.3773,1.587,1.182,0.8305,0.5545,0.4444,0.2947,0.0946,-0.0349,-0.1733,-0.3125,-0.3065,-0.3903,-0.5174,0.0,0.0,0.0,0.0,0.0,0.0,0.0,0.0,0.0,0.0,0.0,0.0,0.0,0.0,0.0,0.0,0.0,0.0,0.0,0.0,0.0,0.0,0.0,0.0,0.0,0.0,0.0,0.0,0.0,0.0,0.0,0.0,0.0,0.0,0.0,0.0,0.0,-3.4461,-3.6493,-3.8546,-3.9535,-4.051,0.0,0.0,0.0,0.0,0.0,0.0,-4.6929,-4.7267,-4.767,-4.8233,-4.7935,-4.8231,-4.9319,-4.867,-4.8673,-4.9507,-4.936,-4.9491,-4.9892,-5.0121,-5.0314,-5.0557,-5.0317,-5.0723,-5.1565,-4.9791,-5.0089,-5.1626,-5.2111,-5.2183,-5.2339,-5.3486,-5.4247,-5.474,0.0,0.0,0.0,0.0,0.0,0.0,0.0,0.0,0.0,0.0,0.0,3.8931,3.838,3.699,3.5402,3.3332,3.4202,3.4224,3.2726,3.3329,3.4403,3.5659,3.3961,3.252,3.1436,2.2775,1.6379,1.2543,0.8813,0.6489,0.553,0.3766,0.1423,-0.1323,-0.2012,-0.2586,-0.2937,-0.4973,-0.6773,-0.8491,-0.9511,0.0,0.0,0.0,0.0,0.0,0.0,0.0,0.0,0.0,0.0,0.0,0.0,0.0,0.0,0.0,0.0,0.0,0.0,0.0,0.0,0.0,0.0,0.0,0.0,0.0,0.0,0.0,0.0,0.0,0.0,0.0,0.0,0.0,0.0,0.0,0.0,0.0,0.0,-3.9629,-4.0373,0.0,0.0,0.0,0.0,-4.4512,-4.5101,-4.5906,-4.7134,-4.7167,-4.7629,-4.842,-4.8,-4.8521,-5.0294,-4.961,-4.9783,-5.08,-5.08,-5.0845,-5.0848,-5.172,-5.152,-5.0557,-5.0908,-5.1915,-5.3044,-5.2068,-5.2033,-5.2941,-5.4658,-5.5513,-5.5889,-5.6588,-5.7064,-5.7438,0.0,0.0,0.0,0.0,0.0,0.0,0.0,0.0,4.0129,4.0565,3.903,3.775,3.7345,3.4354,3.1962,3.107,3.073,3.0418,3.0122,3.1666,3.2649,3.2908,0.0,0.0,2.5605,1.9166,1.4504,1.1645,0.8772,0.6296,0.4422,0.205,0.0243,-0.1221,-0.2669,-0.3751,-0.4593,-0.6116,-0.7991,-0.9926,-1.009,-0.951,0.0,0.0,0.0,0.0,0.0,0.0,0.0,0.0,0.0,0.0,0.0,0.0,0.0,0.0,0.0,0.0,0.0,0.0,0.0,0.0,0.0,0.0,0.0,0.0,0.0,0.0,0.0,0.0,0.0,0.0,0.0,0.0,0.0,0.0,0.0,0.0,0.0,-3.8371,-3.9572,0.0,-4.2107,-4.259,-4.3474,-4.4935,-4.5832,-4.6565,-4.7167,-4.7167,-4.7433,-4.783,-4.8278,-4.905,-5.014,-5.0445,-5.0749,-5.1182,-5.155,-5.1646,-5.1343,-5.166,-5.1811,-5.1815,-5.2118,-5.2825,-5.3749,-5.4567,-5.4901,-5.4792,-5.4922,-5.5634,-5.6716,-5.7412,-5.8068,-5.8699,0.0,0.0,0.0,0.0,0.0,0.0,0.0,0.0,3.9406,4.0134,3.8194,3.6633,3.6045,3.2309,2.9737,2.954,2.8822,2.8501,2.8584,3.0059,3.0697,3.025,2.9355,0.0,0.0,1.62,1.2885,1.0281,0.7725,0.5229,0.2691,0.0496,-0.1499,-0.2997,-0.4468,-0.585,-0.7151,-0.8142,-0.9486,-1.0955,-1.1122,-1.0855,-1.0252,0.0,0.0,0.0,0.0,0.0,0.0,0.0,0.0,0.0,0.0,0.0,0.0,0.0,0.0,0.0,0.0,0.0,0.0,0.0,0.0,0.0,0.0,0.0,0.0,0.0,0.0,0.0,0.0,0.0,0.0,0.0,0.0,0.0,0.0,0.0,-3.772,-3.8115,-3.9521,-4.0879,-4.2015,-4.3025,-4.4098,-4.5107,-4.6003,-4.6565,-4.6892,-4.7119,-4.7448,-4.7846,-4.8472,-4.936,-5.0553,-5.0575,-5.0946,-5.1806,-5.1726,-5.1901,-5.2285,-5.2377,-5.2689,-5.3346,-5.3799,-5.4462,-5.5312,-5.6366,-5.6824,-5.6865,-5.6118,-5.6435,-5.7341,-5.7723,-5.8159,-5.8735,0.0,0.0,0.0,0.0,0.0,0.0,0.0,3.9559,3.9308,3.9599,3.7252,3.5223,3.429,3.0976,2.8755,2.8566,2.852,2.835,2.7831,2.8329,2.8387,0.0,0.0,0.0,1.626,1.3679,1.1017,0.8073,0.538,0.2983,0.0758,-0.1023,-0.3601,-0.6956,-0.7471,-0.8684,-1.0589,-1.1306,-1.1686,-1.1856,-1.2858,-1.3236,-1.3063,0.0,0.0,0.0,0.0,0.0,0.0,0.0,0.0,0.0,0.0,0.0,0.0,0.0,0.0,0.0,0.0,0.0,0.0,0.0,0.0,0.0,0.0,0.0,0.0,0.0,0.0,0.0,0.0,0.0,0.0,0.0,0.0,0.0,-3.5976,-3.7079,-3.8216,-3.9032,-4.0444,-4.1484,-4.2077,-4.3327,-4.4299,-4.4967,-4.541,-4.5869,-4.6333,-4.7037,-4.7741,-4.8445,-4.8509,-4.9425,-5.1549,-5.0037,-5.0466,-5.2717,-5.1261,-5.1677,-5.3743,-5.3831,-5.4284,-5.5017,-5.5888,-5.6836,-5.7637,-5.7313,-5.7939,-5.9046,-5.8567,-5.8213,-5.8023,-5.7804,-5.7723,-5.7834,0.0,0.0,0.0,0.0,0.0,0.0,0.0,3.8895,3.8761,3.8969,3.6262,3.3792,3.2748,2.888,2.6346,2.6355,2.6477,2.6811,2.7452,2.8555,2.8058,0.0,0.0,0.0,1.3946,1.1654,0.8939,0.562,0.339,0.141,-0.039,-0.3742,-0.5665,-0.6434,-0.8226,-0.958,-1.0664,-1.1697,-1.2557,-1.3252,-1.4298,-1.4051,-1.3009,0.0,0.0,0.0,0.0,0.0,0.0,0.0,0.0,0.0,0.0,0.0,0.0,0.0,0.0,0.0,0.0,0.0,0.0,0.0,0.0,0.0,0.0,0.0,0.0,0.0,0.0,0.0,0.0,0.0,0.0,0.0,0.0,-3.6828,-3.7491,-3.8725,-3.9756,-4.0377,-4.0933,-4.1884,-4.3448,-4.4228,-4.4922,-4.5762,-4.6628,-4.7123,-4.7101,-4.7919,-4.84,-4.8445,-4.9285,-5.0006,-5.0611,-5.1168,-5.1853,-5.2717,-5.2412,-5.3193,-5.4861,-5.4372,-5.4966,-5.6511,-5.7306,-5.8254,-5.9373,-6.0443,-6.136,-6.1832,-5.9491,-5.8886,-5.9266,-5.9629,-6.0359,-6.1098,0.0,0.0,0.0,0.0,0.0,0.0,0.0,3.814,3.7618,3.7399,3.5001,3.2553,3.0862,2.7787,2.5743,2.57,2.5725,2.6259,2.7158,2.7034,0.0,0.0,0.0,1.4667,1.1904,1.0086,0.7803,0.4797,0.2299,-0.0,-0.2349,-0.4844,-0.6141,-0.6748,-0.8608,-1.0102,-1.124,-1.2226,-1.3216,-1.4171,-1.51,-1.4988,-1.4295,-1.467,-1.3888,-1.2621,-1.2099,-1.1301,-1.0362,-0.9373,0.0,0.0,0.0,0.0,0.0,0.0,0.0,0.0,0.0,0.0,0.0,0.0,0.0,0.0,0.0,0.0,0.0,0.0,0.0,0.0,0.0,0.0,0.0,0.0,-3.6197,-3.7912,-3.8713,-3.9327,-4.004,-4.1126,-4.1553,-4.2345,-4.3789,-4.4746,-4.5381,-4.5719,-4.6716,-4.7244,-4.7024,-4.8052,-4.8668,-4.8592,-4.9882,-5.0612,-5.0691,-5.1853,-5.2797,-5.3567,-5.3558,-5.4656,-5.6678,-5.6244,-5.6993,-5.8763,-5.9492,-6.0151,-6.0893,-6.2134,-6.291,-6.304,0.0,0.0,0.0,0.0,-6.081,-6.1782,0.0,0.0,0.0,0.0,0.0,0.0,0.0,3.7455,3.6478,3.5631,3.3582,3.1262,2.9069,2.7211,2.6047,2.6039,2.5967,2.6093,2.6867,0.0,0.0,1.8955,1.5914,1.2942,1.0044,0.8853,0.7132,0.458,0.1807,-0.1049,-0.4036,-0.4525,-0.5604,-0.7107,-0.8541,-1.0227,-1.1918,-1.2588,-1.3466,-1.4259,-1.5248,-1.5659,-1.5825,-1.6402,-1.6366,-1.5988,-1.609,-1.5289,-1.4013,-1.2729,0.0,0.0,0.0,0.0,0.0,0.0,0.0,0.0,0.0,0.0,0.0,0.0,0.0,0.0,0.0,0.0,0.0,0.0,0.0,0.0,0.0,0.0,0.0,0.0,-3.737,-3.9013,-3.9836,-3.9595,-3.995,-4.1686,-4.218,-4.2794,-4.3692,-4.5008,-4.5677,-4.5403,-4.6328,-4.6886,-4.6724,0.0,0.0,0.0,0.0,-5.1182,-5.1423,-5.2269,-5.339,-5.4783,-5.4599,-5.5996,-5.8781,-5.8549,-5.9455,-6.1112,-6.1814,-6.2193,-6.2361,-6.2994,-6.3342,-6.3438,-6.201,-6.1462,-6.1342,-6.0228,-6.0503,-6.1438,0.0,0.0,0.0,0.0,0.0,0.0,0.0,3.7469,3.6618,3.5924,3.2441,2.9359,2.7758,2.5483,2.4417,2.5133,2.5645,2.5779,0.0,0.0,2.0027,1.7109,1.3286,1.0179,0.7972,0.7419,0.5636,0.2428,0.0913,-0.0399,-0.1494,-0.3503,-0.469,-0.5342,-0.7524,-0.9447,-1.089,-1.1395,-1.2127,-1.321,-1.4874,-1.5248,-1.5185,-1.647,-1.6611,-1.6103,-1.6541,-1.5962,-1.5063,-1.4948,-1.3591,-1.2172,-1.4189,-1.4293,0.0,0.0,0.0,0.0,0.0,0.0,0.0,0.0,0.0,0.0,0.0,0.0,0.0,0.0,0.0,0.0,0.0,0.0,0.0,-3.6661,-3.8432,-4.0076,-4.0958,-4.0849,-4.1189,-4.2637,-4.3074,-4.3723,-4.4806,-4.5437,-4.594,-4.621,-4.7245,-4.7985,-4.8168,-4.9647,-5.0483,-5.0563,-5.1253,-5.1828,-5.2445,-5.2605,-5.3628,-5.5445,-5.4825,0.0,-5.9405,-5.8798,-5.9701,-6.1745,-6.2648,-6.3269,-6.3771,-6.467,-6.4884,-6.4674,-6.3919,-6.3754,-6.3852,-6.3506,-6.3784,-6.4254,0.0,0.0,0.0,0.0,0.0,0.0,0.0,3.6743,3.5466,3.4393,3.1718,2.9298,2.7825,2.6701,2.6211,2.6659,2.684,2.5509,0.0,2.0659,1.807,1.3648,1.0997,0.8781,0.6634,0.6127,0.4813,0.2425,0.1182,-0.0,-0.0943,-0.2687,-0.4163,-0.5369,-0.7322,-0.9019,-1.0471,-1.1336,-1.2421,-1.3718,-1.5187,-1.5788,-1.5919,-1.6929,-1.6993,-1.6598,-1.6819,-1.6184,-1.5407,-1.5769,-1.5091,-1.434,-1.5923,-1.6296,-1.5935,0.0,0.0,0.0,0.0,0.0,0.0,0.0,0.0,0.0,0.0,0.0,0.0,0.0,0.0,-3.3736,0.0,0.0,-3.7071,-3.7195,-3.8507,-3.9808,-4.0792,-4.1588,-4.2384,-4.321,-4.3471,-4.3908,-4.4843,-4.5665,-4.6127,-4.6171,-4.7554,-4.8544,-4.892,-5.0084,-5.097,-5.148,-5.2124,-5.272,-5.3343,-5.4244,-5.5375,-5.6877,-5.7181,-5.8626,-6.104,-6.0804,-6.1675,-6.3309,-6.39,-6.4348,-6.4782,-6.5561,-6.5868,-6.5779,-6.5619,-6.5198,-6.4584,-6.4584,-6.4749,-6.5055,0.0,0.0,0.0,0.0,0.0,0.0,0.0,3.6255,3.4806,3.3559,3.1801,3.0099,2.8893,2.8622,2.8492,2.8331,2.7985,0.0,0.0,1.8557,1.6006,1.0301,0.8964,0.75,0.581,0.5069,0.4095,0.2673,0.145,0.0267,-0.0926,-0.2408,-0.39,-0.5644,-0.7245,-0.8712,-1.0174,-1.1637,-1.2947,-1.4371,-1.5762,-1.6456,-1.6932,-1.7824,-1.7812,-1.7288,-1.7517,-1.6738,-1.577,-1.6484,-1.6287,-1.5806,-1.6563,-1.6951,-1.6946,-1.6542,-1.6617,0.0,0.0,0.0,0.0,0.0,0.0,0.0,0.0,0.0,-3.1466,-3.2903,-3.4255,-3.5531,-3.7071,-3.7345,-3.7399,-3.7833,-3.879,-3.9743,-4.0625,-4.2169,-4.325,-4.3675,-4.3808,-4.4062,-4.4692,-4.5797,-4.6385,-4.6236,-4.7934,-4.9111,-4.9609,-5.0536,-5.1505,-5.2289,-5.2934,-5.3681,-5.4551,-5.5845,-5.7119,-5.8474,-5.9506,-6.0904,-6.243,-6.2821,-6.3625,-6.4706,-6.4911,-6.518,-6.548,-6.6021,-6.633,-6.6512,-6.6809,-6.6162,-6.5093,-6.5223,-6.5386,-6.5547,0.0,0.0,0.0,0.0,0.0,0.0,0.0,0.0,3.6805,3.6412,3.3541,3.1507,3.1096,2.9538,2.8217,2.7599,0.0,0.0,1.8847,1.6875,1.4005,0.9572,0.7103,0.5659,0.515,0.4419,0.3201,0.1574,0.0659,-0.0,-0.0134,-0.2823,-0.4305,-0.4568,-0.6313,-0.8051,-0.9775,-1.1219,-1.2413,-1.3604,-1.5913,-1.7076,-1.7569,-1.8986,-1.8951,-1.8277,-1.9469,-1.8671,-1.7196,-1.8282,-1.7018,-1.5391,-1.6955,-1.7085,-1.6825,-1.6946,-1.7806,-1.8788,-1.8888,-2.1812,0.0,-2.5764,-2.7736,-2.9647,0.0,0.0,-3.2152,-3.205,-3.4066,-3.6018,-3.641,-3.7727,-3.8836,-3.8892,-4.0265,-4.1472,-4.1773,-4.2812,-4.3645,-4.391,-4.4282,-4.4662,-4.5055,-4.5947,-4.6755,-4.7276,-4.9015,-5.0279,-5.0816,-5.1863,-5.2702,-5.3184,-5.3544,-5.4432,-5.6251,-5.6413,-5.7543,-5.9631,-5.9775,-6.083,-6.268,-6.2927,-6.3625,-6.4706,-6.5082,-6.551,-6.5958,-6.5985,-6.6207,-6.6512,-6.6512,-6.6641,-6.6728,-6.6899,-6.7122,-6.7393,0.0,0.0,0.0,0.0,0.0,0.0,0.0,0.0,0.0,3.5521,3.4337,3.3287,3.2463,3.0724,2.9126,0.0,0.0,0.0,1.7364,1.5752,1.2665,0.7356,0.5894,0.4933,0.4467,0.4218,0.2839,0.0527,0.0398,-0.0267,-0.175,-0.3096,-0.4168,-0.4973,-0.6844,-0.8312,-0.9775,-1.201,-1.3587,-1.4651,-1.6592,-1.7636,-1.8139,-1.8812,-1.8722,-1.8345,-1.9233,-1.8287,0.0,-1.7392,-1.6697,-1.5715,-1.6702,-1.687,-1.6673,-1.6829,-1.7287,0.0,-1.9722,0.0,0.0,0.0,-2.8647,-3.0487,-3.1985,-3.2723,-3.3179,-3.3543,-3.4366,-3.5121,-3.5182,-3.6141,-3.708,0.0,-3.9228,-4.0684,-4.1535,-4.2743,-4.3723,-4.3988,-4.4555,-4.5187,-4.5721,-4.6687,-4.7747,-4.8671,-5.0042,-5.1199,-5.1946,-5.2744,-5.3608,-5.4603,-5.4772,-5.5677,-5.7261,-5.7851,-5.8873,-6.0293,-6.0964,-6.1919,-6.3228,-6.3407,-6.4008,-6.4911,-6.5247,-6.5704,-6.6146,-6.6146,-6.633,-6.6668,-6.675,-6.6903,-6.7019,-6.7154,-6.7322,-6.7633,0.0,0.0,0.0,0.0,0.0,0.0,0.0,0.0,0.0,0.0,3.5268,3.4808,3.3271,3.1667,3.0059,0.0,0.0,0.0,0.0,1.4635,1.1426,0.6088,0.509,0.4488,0.415,0.4023,0.2743,0.0397,-0.0134,-0.121,-0.2692,-0.3499,-0.4574,-0.5781,-0.7383,-0.8712,-1.018,-1.2668,-1.425,-1.5313,-1.6732,-1.7602,-1.8058,-1.8186,-1.8117,-1.8151,-1.877,-1.7748,-1.6212,-1.6908,-1.6396,-1.5643,-1.6287,-1.6445,-1.6284,-1.6561,-1.7202,-1.826,-2.0599,0.0,0.0,-2.7476,-2.9427,-3.1294,-3.3283,-3.3776,-3.3964,-3.4813,-3.4777,-3.4588,-3.4678,-3.5156,-3.5861,-3.697,-3.8464,-4.0013,-4.147,-4.2832,-4.3728,-4.3916,-4.478,-4.5586,-4.6423,-4.7508,-4.8649,-4.963,-5.1023,-5.215,-5.2828,-5.3576,-5.4444,-5.5548,-5.5997,-5.684,-5.8176,-5.8838,-5.9778,-6.0906,-6.1481,-6.2404,-6.3526,-6.3892,-6.4393,-6.5014,-6.5313,-6.5768,-6.6269,-6.633,-6.6548,-6.6786,-6.6961,-6.6983,-6.7076,-6.7466,-6.7597,-6.7579,0.0,0.0,0.0,0.0,0.0,0.0,0.0,0.0,0.0,0.0,0.0,0.0,0.0,0.0,0.0,0.0,0.0,0.0,0.0,1.3207,1.0216,0.6814,0.4825,0.3816,0.4081,0.3689,0.292,0.1615,-0.1616,-0.2827,-0.2286,-0.4571,-0.5919,-0.6451,-0.7522,-0.8989,-1.085,-1.2545,-1.3726,-1.453,-1.6353,-1.6872,-1.6794,-1.7427,-1.7701,-1.7647,-1.8536,-1.7871,-1.6539,-1.7587,-1.6614,-1.5226,-1.6144,-1.5913,0.0,-1.6322,-1.8045,0.0,0.0,0.0,-2.7142,-2.8488,-3.073,-3.2785,-3.3326,-3.3556,-3.3964,-3.5096,-3.5089,-3.4966,-3.5294,-3.5796,-3.6521,-3.7534,-3.8871,-4.0405,-4.2087,-4.3219,-4.3931,-4.3931,-4.4667,-4.5691,0.0,-4.8224,-4.9259,-4.9852,-5.1991,-5.3363,-5.3394,-5.4666,-5.5516,-5.5805,-5.6649,-5.7753,-5.8926,-5.8938,-5.9871,-6.1676,-6.0858,-6.149,-6.3302,-6.4074,-6.4637,-6.5014,-6.5313,-6.5768,-6.6269,-6.6452,-6.6608,-6.6786,-6.6961,-6.7097,-6.7283,-6.8292,-6.8275,-6.7741,0.0,0.0,0.0,0.0,0.0,0.0,0.0,0.0,0.0,0.0,0.0,0.0,0.0,0.0,0.0,0.0,0.0,0.0,0.0,1.3758,1.1553,0.8969,0.7837,0.7112,0.6655,0.5145,0.3571,0.1881,-0.1075,-0.2959,-0.3633,-0.5379,-0.6451,-0.6853,-0.8451,-0.9915,-1.1233,-1.3464,-1.4697,-1.5218,-1.6126,-1.6786,-1.713,-1.6859,-1.6744,-1.6717,0.0,-1.6964,-1.58,-1.6267,-1.5864,-1.5423,-1.606,0.0,0.0,-1.7408,0.0,0.0,0.0,0.0,-2.7918,-2.9471,-3.1192,-3.2636,-3.3215,-3.3556,-3.3964,-3.4813,-3.5174,-3.5401,-3.5643,-3.6702,-3.7742,-3.8541,-3.9898,-4.1283,-4.2637,-4.3429,-4.4127,-4.4739,-4.5556,0.0,0.0,0.0,0.0,-5.0963,-5.2031,-5.3184,-5.4301,-5.5207,-5.6253,-5.7441,-5.8044,-5.8926,-6.0102,-5.9828,-6.0104,-6.0973,-6.1401,-6.1958,-6.2655,-6.3973,-6.4637,-6.4843,-6.5445,-6.5931,-6.6269,-6.6452,-6.6632,-6.6961,-6.7019,-6.7518,-6.8255,-6.8604,-6.9027,-6.9355,0.0,0.0,0.0,0.0,0.0,0.0,0.0,0.0,0.0,0.0,0.0,0.0,0.0,0.0,0.0,0.0,0.0,0.0,0.0,0.0,1.2073,1.0143,0.9098,0.8239,0.7689,0.5727,0.4139,0.2997,0.0405,-0.1483,-0.2709,-0.4821,-0.6398,-0.7469,-0.9001,-1.0215,-1.1372,-1.3277,-1.4412,-1.4892,-1.5962,-1.6358,-1.6395,-1.6583,-1.6365,0.0,-1.6688,-1.6432,-1.5875,-1.5943,-1.5998,-1.6254,-1.6827,0.0,0.0,0.0,0.0,0.0,0.0,-2.6982,-2.8967,-3.0696,-3.2184,-3.3319,-3.3733,-3.4081,-3.4581,-3.5496,-3.5668,-3.5788,-3.6067,-3.7168,-3.8292,-3.8916,-4.0404,-4.1796,-4.2828,-4.3828,-4.4679,-4.5263,-4.6245,-4.763,0.0,0.0,0.0,-5.2031,-5.2739,-5.3521,-5.4473,-5.5557,-5.6691,-5.785,-5.8657,-5.9526,-6.0322,-5.9878,-5.9864,-6.0112,-6.1374,-6.2096,-6.235,-6.3655,-6.4638,-6.523,-6.5871,-6.6531,-6.7256,-6.7378,-6.7438,-6.7419,-6.7477,-6.7976,-6.8714,-6.8825,-6.9522,-7.029,0.0,0.0,0.0,0.0,0.0,0.0,0.0,0.0,0.0,0.0,0.0,0.0,0.0,0.0,0.0,0.0,0.0,0.0,0.0,0.0,0.0,1.0426,0.8695,0.7555,0.7392,0.5417,0.4501,0.4477,0.259,0.1084,-0.0,-0.306,-0.5781,-0.829,-0.9068,-1.0058,-1.1129,-1.2231,-1.2858,-1.3587,-1.5707,-1.5887,-1.4875,-1.6596,-1.6661,-1.6002,-1.6011,-1.6412,-1.6945,0.0,0.0,0.0,0.0,0.0,0.0,0.0,0.0,-2.479,-2.6967,-2.8778,-3.0452,-3.213,-3.3514,-3.4635,-3.457,-3.4956,-3.5584,-3.6625,-3.6243,-3.5914,0.0,0.0,-3.813,-3.8819,-4.0412,-4.1967,-4.2998,-4.4415,-4.5387,0.0,0.0,0.0,0.0,0.0,0.0,-5.3007,0.0,-5.4304,-5.4229,-5.5898,-5.6979,-5.7302,-5.8567,-5.9348,-5.9597,-5.9311,-5.9208,-5.9293,-6.0857,-6.1872,-6.253,-6.3289,-6.4598,-6.6107,-6.655,-6.7569,-6.8822,-6.9043,-6.8754,-6.8146,-6.8356,-6.8564,-6.8769,-6.9044,-6.9737,-7.0397,0.0,0.0,0.0,0.0,0.0,0.0,0.0,0.0,0.0,0.0,0.0,0.0,0.0,0.0,0.0,0.0,0.0,0.0,0.0,0.0,0.0,0.0,0.0,0.0,0.0,0.0,0.0,0.3774,0.1787,0.0137,-0.1509,-0.2931,-0.5129,-0.8044,-0.8338,-0.9185,-1.0199,-1.1797,-1.3074,-1.4043,-1.4742,-1.5589,-1.6637,-1.6698,-1.6539,-1.6387,-1.7096,-1.6895,0.0,0.0,0.0,0.0,0.0,0.0,-2.381,0.0,0.0,-2.7327,-2.8231,-2.9876,-3.1376,-3.2043,-3.2768,-3.3332,-3.341,-3.3576,-3.4098,-3.5099,-3.516,-3.5445,0.0,0.0,0.0,-4.0357,-4.1579,0.0,-4.4721,-4.5586,0.0,-4.72,0.0,-4.9727,-5.1277,-5.1577,0.0,0.0,-5.3996,-5.4501,-5.5323,-5.632,-5.7547,-5.9046,-5.8684,-5.8823,-5.9597,-5.9472,-5.9131,-5.8656,-6.0782,-6.1872,-6.209,-6.3989,-6.5192,-6.5829,-6.7153,-6.7719,-6.7653,-6.8125,-6.7978,-6.7518,-6.8159,-6.8584,-6.8917,-6.9723,-7.0216,-7.0397,0.0,0.0,0.0,0.0,0.0,0.0,0.0,0.0,0.0,0.0,0.0,0.0,0.0,0.0,0.0,0.0,0.0,0.0,0.0,0.0,0.0,0.0,0.0,0.0,0.0,0.0,0.0,0.0,0.0,0.1509,0.0137,-0.1853,-0.4541,-0.7627,-0.8263,-0.9004,-1.0109,-1.1704,-1.2781,0.0,0.0,-1.5895,-1.6444,-1.7178,-1.7076,-1.6615,-1.7238,0.0,0.0,0.0,0.0,-2.2995,-2.4285,-2.5628,-2.6707,-2.6807,0.0,-2.8999,-2.9599,-3.0795,-3.1979,-3.2364,-3.3006,-3.3601,-3.3886,-3.4134,-3.4591,-3.5561,-3.5488,0.0,0.0,0.0,0.0,0.0,0.0,0.0,-4.5394,-4.6285,-4.7231,0.0,-4.9484,0.0,-5.2365,-5.2496,-5.2885,0.0,-5.4429,-5.4898,-5.5121,-5.6335,-5.7463,-5.8292,-5.7934,-5.8248,-5.93,-5.9085,-5.9131,-5.952,-6.1011,-6.2077,-6.2569,-6.3915,-6.4981,-6.5829,-6.6975,-6.7618,-6.7904,-6.8765,-6.8582,-6.783,-6.869,-6.897,-6.8972,-6.9576,-7.0106,-7.0507,0.0,0.0,0.0,0.0,0.0,0.0,0.0,0.0,0.0,0.0,0.0,0.0,0.0,0.0,0.0,0.0,0.0,0.0,0.0,0.0,0.0,0.0,0.0,0.0,0.0,0.0,0.0,0.0,0.0,0.3568,0.2873,-0.0393,-0.3695,-0.6795,-0.7948,-0.9087,-1.0091,-1.1488,-1.2291,-1.3001,-1.5786,-1.6412,-1.5687,0.0,-1.7834,-1.6767,0.0,0.0,0.0,0.0,-2.3348,-2.5133,-2.6574,-2.8138,-2.955,-2.9667,-2.9807,-3.0041,-3.0772,-3.1539,-3.2309,-3.2724,-3.3613,-3.4409,-3.4919,-3.526,-3.5629,-3.6501,0.0,-3.6001,-3.7442,0.0,-4.0616,-4.1476,0.0,-4.5464,-4.5302,-4.6705,-4.8009,-4.8779,-5.0266,-5.1733,-5.2997,-5.3065,-5.3206,-5.3377,-5.4988,-5.5474,-5.4518,-5.6157,-5.7001,-5.6593,-5.7103,-5.7869,-5.8899,-5.873,-5.941,-6.092,-6.152,-6.2309,-6.3302,-6.3629,-6.4595,-6.5935,-6.6553,-6.7439,-6.8363,-6.972,-6.9368,-6.8195,-6.9425,-6.9521,-6.899,-6.9282,-6.9848,-7.0523,0.0,0.0,0.0,0.0,0.0,0.0,0.0,0.0,0.0,0.0,2.7801,2.6755,0.0,0.0,0.0,0.0,0.0,0.0,0.0,0.0,0.0,0.0,0.0,0.0,0.0,0.0,0.0,0.0,0.0,0.3414,0.1891,0.0392,-0.1789,-0.4545,-0.61,-0.7174,-0.7899,-1.0348,-1.1855,-1.3051,-1.4238,-1.5298,-1.625,-1.7076,0.0,0.0,0.0,0.0,0.0,0.0,-2.4009,-2.5746,-2.6852,-2.8559,-3.0028,-2.988,-3.0147,-3.0632,-3.0882,-3.1661,-3.2409,-3.2532,-3.3201,-3.386,-3.4055,-3.4078,0.0,0.0,0.0,-3.4923,-3.6018,-3.7295,0.0,-3.9657,0.0,0.0,0.0,0.0,-4.8829,0.0,0.0,0.0,0.0,0.0,0.0,0.0,0.0,-5.5897,-5.5075,-5.6272,-5.7001,-5.7119,-5.792,-5.8606,-5.9139,-5.9844,-6.0449,-6.0987,-6.2217,-6.2939,-6.3336,-6.4477,-6.5262,-6.5759,-6.7224,0.0,-6.6167,-6.7933,-6.7673,-6.6458,-6.893,-6.954,-6.9225,-7.0696,-7.056,-6.9828,0.0,0.0,0.0,0.0,0.0,0.0,0.0,2.9987,2.8385,2.6663,2.5785,2.4726,2.3552,2.204,0.0,0.0,0.0,0.0,0.0,0.0,0.0,0.0,0.0,0.0,0.0,0.0,0.0,0.0,0.0,0.0,0.0,0.0,0.0,0.0,-0.5663,-0.6944,-0.854,-1.0353,-1.174,-1.2837,-1.4428,-1.5494,-1.6234,0.0,0.0,0.0,0.0,0.0,0.0,0.0,-2.4332,-2.6287,-2.751,-2.9003,-3.0378,-3.0219,-3.0537,-3.0935,-3.1021,-3.1598,-3.224,-3.2443,-3.2969,-3.3677,-3.4211,0.0,0.0,0.0,0.0,-3.5418,-3.63,0.0,0.0,0.0,0.0,0.0,0.0,0.0,0.0,0.0,0.0,0.0,0.0,0.0,0.0,0.0,0.0,-5.5902,-5.5352,-5.6649,-5.7502,-5.7724,-5.8297,-5.8984,-5.9751,-6.0324,-6.0964,-6.1717,-6.2676,-6.3227,-6.3452,-6.4384,-6.4882,-6.5058,-6.6235,-6.6381,-6.5867,-6.7559,-6.7862,-6.7522,-6.9319,-6.9908,-6.9851,-7.1121,-7.1263,-7.0953,0.0,0.0,0.0,0.0,0.0,0.0,0.0,2.9071,2.7365,2.5626,2.43,2.3199,2.2297,2.0887,1.8674,0.0,0.0,0.0,0.0,0.0,0.0,0.0,0.0,0.0,0.0,0.0,0.0,0.0,0.0,0.0,0.0,0.0,0.0,0.0,0.0,0.0,-0.9477,-1.077,-1.1818,0.0,0.0,0.0,0.0,0.0,0.0,0.0,0.0,0.0,0.0,0.0,-2.4937,-2.6675,-2.8044,-2.926,-3.0219,-3.0452,-3.0671,-3.086,-3.1182,-3.1742,-3.2316,-3.2836,-3.3298,-3.3784,-3.467,-3.4728,0.0,0.0,-3.6046,-3.6199,-3.6918,0.0,0.0,0.0,0.0,0.0,0.0,0.0,0.0,0.0,0.0,0.0,0.0,0.0,0.0,0.0,0.0,0.0,-5.6057,-5.7236,-5.8032,-5.8445,-5.8725,-5.9463,-6.0598,-6.0839,-6.1458,-6.2459,-6.2829,-6.3211,-6.3397,-6.3728,-6.4009,-6.4287,-6.4999,-6.5454,-6.5868,-6.751,-6.8283,-6.8531,-6.9834,-7.0496,-7.0716,-7.1581,-7.1928,-7.214,0.0,0.0,0.0,0.0,0.0,0.0,0.0,2.8436,2.6844,2.511,2.4334,2.2733,2.0012,1.8493,1.6598,0.0,0.0,0.0,0.0,0.0,0.0,0.0,0.0,0.0,0.0,0.0,0.0,0.0,0.0,0.0,0.0,0.0,0.0,0.0,0.0,0.0,0.0,-1.1057,0.0,0.0,0.0,0.0,0.0,0.0,0.0,0.0,0.0,0.0,0.0,0.0,0.0,-2.7336,-2.8359,-2.8523,-2.8545,-2.977,0.0,0.0,-3.135,-3.2448,-3.3227,-3.4094,-3.4485,-3.4801,-3.5491,0.0,0.0,0.0,-3.6402,-3.6304,-3.7326,-3.7879,-3.8029,0.0,0.0,0.0,0.0,0.0,0.0,0.0,0.0,0.0,0.0,0.0,0.0,0.0,0.0,0.0,-5.7636,-5.7785,-5.826,-5.9165,-5.9647,-6.0388,-6.1609,-6.2043,-6.2391,-6.2693,-6.2426,-6.2454,-6.2747,-6.2336,-6.2783,-6.3886,-6.4315,-6.4634,0.0,-6.7293,-6.7862,-6.7615,-7.0312,-7.1416,-7.1689,-7.2647,-7.2659,-7.2295,0.0,0.0,0.0,0.0,0.0,0.0,2.8774,2.7599,2.6191,2.4428,2.2733,2.0673,1.8144,1.5891,1.4103,1.291,0.0,0.0,0.0,0.0,0.0,0.0,0.0,0.0,0.0,0.0,0.2154,0.1481,0.0,0.0,0.0,0.0,0.0,0.0,0.0,0.0,0.0,0.0,0.0,0.0,0.0,0.0,0.0,0.0,0.0,0.0,0.0,0.0,0.0,0.0,0.0,0.0,-2.8597,-2.8537,0.0,0.0,-3.0187,-3.0703,-3.146,-3.2585,-3.3802,-3.4507,-3.4886,-3.5231,-3.5866,0.0,0.0,-3.6488,-3.6588,-3.6588,-3.7148,-3.7769,-3.8477,-3.9357,0.0,0.0,0.0,0.0,0.0,0.0,0.0,0.0,0.0,0.0,0.0,0.0,0.0,0.0,-5.8735,-5.9091,-5.9402,-5.9952,-6.0406,-6.1035,-6.1837,-6.2223,-6.2411,-6.2426,-6.2488,-6.2435,-6.2231,-6.2363,-6.2877,-6.3846,-6.4273,-6.4939,0.0,-6.7556,-6.8544,-6.9118,-7.0919,-7.2022,-7.2664,-7.3087,-7.3082,-7.2964,0.0,0.0,0.0,0.0,0.0,2.9745,2.74,2.6387,2.5248,2.3484,2.1264,1.9105,1.6704,1.4548,1.2388,1.0485,0.8775,0.0,0.0,0.0,0.0,0.0,0.0,0.0,0.0,0.0,0.1338,0.0535,-0.247,-0.397,0.0,0.0,0.0,0.0,0.0,0.0,0.0,0.0,0.0,0.0,0.0,0.0,0.0,0.0,0.0,0.0,0.0,0.0,0.0,0.0,0.0,0.0,0.0,0.0,0.0,0.0,-3.0369,-3.1058,-3.1661,-3.2772,-3.4054,-3.4821,-3.5131,-3.5504,0.0,0.0,0.0,-3.6576,-3.6742,-3.681,-3.7227,-3.7857,-3.8687,-3.9964,0.0,-4.2535,0.0,0.0,0.0,0.0,0.0,0.0,0.0,0.0,0.0,0.0,0.0,0.0,-5.9062,-5.9772,-6.0325,-6.0581,-6.1002,-6.1499,-6.2076,-6.2222,-6.237,-6.2513,-6.2189,-6.1988,-6.1883,-6.2178,-6.2758,-6.366,-6.4294,-6.5207,0.0,-6.7955,-6.9222,-7.0146,-7.1489,-7.2482,-7.3199,-7.3252,-7.3357,-7.3372,0.0,0.0,0.0,0.0,0.0,0.0,2.5454,2.4828,2.3979,2.1773,2.0303,1.8328,1.5483,1.4703,1.2158,0.6476,0.5276,0.0,0.0,0.0,0.0,0.0,0.0,0.0,0.0,0.0,0.0264,-0.0923,-0.2943,-0.4791,-0.6549,-0.6948,-0.8272,0.0,0.0,0.0,0.0,0.0,0.0,0.0,0.0,0.0,0.0,0.0,0.0,0.0,0.0,0.0,0.0,0.0,0.0,0.0,0.0,0.0,0.0,0.0,-2.9952,-3.0732,-3.193,-3.3047,-3.4093,-3.5128,-3.551,-3.5786,0.0,0.0,0.0,-3.6891,-3.6742,-3.6817,-3.7885,-3.8095,-3.8354,-3.9058,-4.0894,0.0,0.0,0.0,0.0,0.0,0.0,0.0,0.0,0.0,0.0,0.0,0.0,0.0,-5.8578,-5.9772,-6.0581,-6.1119,-6.1334,-6.1709,-6.2381,-6.1987,-6.2289,-6.3268,-6.1394,-6.0982,-6.1883,-6.1485,-6.2011,-6.3298,-6.4171,-6.533,0.0,-6.8428,-6.9404,-6.9978,-7.1912,-7.289,-7.3199,-7.3357,-7.3372,-7.3372,0.0,0.0,0.0,0.0,0.0,0.0,0.0,2.5362,2.3854,2.2088,1.9444,1.6684,1.4019,1.1256,0.7611,0.2646,0.2071,0.0,0.0,0.0,0.0,0.0,0.0,0.0,0.0,0.0131,-0.0393,-0.1947,-0.3817,-0.5882,-0.8027,-0.8914,-1.0383,-1.2416,-1.3495,0.0,0.0,0.0,0.0,0.0,0.0,0.0,0.0,0.0,0.0,0.0,0.0,0.0,0.0,0.0,0.0,0.0,0.0,0.0,0.0,-3.1353,0.0,0.0,-3.2413,-3.3855,-3.5349,-3.6082,-3.6503,-3.6728,-3.6954,0.0,0.0,0.0,-3.7459,-3.7551,-3.7703,-3.8627,-3.9466,-4.0152,-4.1372,0.0,0.0,0.0,0.0,0.0,0.0,0.0,0.0,0.0,0.0,0.0,0.0,0.0,-5.9564,-6.0378,-6.0919,-6.1119,-6.1334,-6.179,-6.2615,-6.2608,-6.2678,-6.2917,-6.2579,-6.2367,-6.2255,-6.247,-6.3172,-6.4171,-6.4731,-6.5514,-6.662,-6.8668,-6.9522,-6.9843,-7.1968,-7.2908,-7.3054,-7.332,-7.3372,-7.3372,0.0,0.0,0.0,0.0,0.0,0.0,0.0,2.4578,2.2938,2.0952,1.8203,1.5603,1.3403,0.9118,0.4664,-0.0,-0.158,0.0,0.0,0.0,0.0,0.0,0.0,0.0,-0.1399,-0.1415,-0.2448,-0.4594,-0.578,-0.7552,-0.9781,-1.0997,-1.2618,-1.4652,-1.5729,-1.6621,0.0,0.0,0.0,0.0,0.0,0.0,-2.5109,0.0,0.0,0.0,0.0,0.0,0.0,0.0,0.0,0.0,0.0,0.0,0.0,0.0,-3.216,0.0,0.0,-3.4401,-3.5733,-3.631,-3.6809,0.0,0.0,0.0,0.0,0.0,0.0,0.0,-3.8786,-3.9886,-4.0704,-4.0952,0.0,0.0,0.0,0.0,0.0,0.0,0.0,0.0,0.0,0.0,0.0,0.0,0.0,0.0,-6.0087,-6.0802,-6.1201,-6.1179,-6.1575,-6.1975,-6.2327,-6.2631,-6.2729,-6.268,-6.2857,-6.2886,-6.2845,-6.3499,-6.4064,-6.4715,-6.5345,-6.6103,0.0,-6.8777,-6.9682,-7.0164,-7.1888,-7.2686,-7.2908,-7.3124,-7.3268,-7.3372,0.0,0.0,0.0,0.0,0.0,0.0,0.0,2.2673,2.137,1.8683,1.6473,1.4582,1.2936,0.8037,0.293,-0.1675,0.0,0.0,0.0,0.0,0.0,0.0,0.0,0.0,-0.2951,-0.3802,-0.553,-0.8035,-0.8401,-0.966,-1.1952,-1.3287,-1.4966,-1.675,-1.7677,-1.8609,-1.9666,-2.1502,-2.2652,-2.3231,-2.4128,-2.513,0.0,0.0,0.0,0.0,0.0,0.0,0.0,0.0,0.0,0.0,0.0,0.0,0.0,0.0,0.0,0.0,0.0,0.0,0.0,0.0,0.0,0.0,0.0,0.0,0.0,0.0,0.0,0.0,0.0,0.0,0.0,0.0,0.0,0.0,0.0,0.0,0.0,0.0,0.0,0.0,0.0,0.0,0.0,0.0,0.0,0.0,-6.043,-6.102,-6.1307,-6.1153,-6.1873,-6.2106,-6.1736,-6.2174,-6.2537,-6.2681,-6.2643,-6.2982,-6.365,-6.4408,-6.4787,0.0,-6.6067,-6.6981,-6.78,-6.879,-6.9733,-7.0714,-7.1599,-7.2401,-7.2908,-7.2908,-7.3124,-7.3372,0.0,0.0,0.0,0.0,0.0,0.0,0.0,0.0,0.0,0.0,1.5232,1.2365,0.915,0.5137,0.107,0.0,0.0,0.0,0.0,0.0,0.0,0.0,0.0,0.0,-0.5586,-0.7127,-0.824,-0.8995,-1.0037,-1.1703,-1.3994,-1.5548,-1.6973,-1.8402,-1.9332,-2.0371,-2.1531,-2.3295,-2.4468,-2.5189,-2.631,-2.6939,0.0,0.0,0.0,0.0,-2.8824,-2.9953,0.0,0.0,0.0,0.0,0.0,0.0,0.0,0.0,-3.3404,0.0,-3.5448,0.0,-3.6191,-3.7245,-3.7983,-3.8233,0.0,0.0,0.0,0.0,0.0,0.0,0.0,0.0,0.0,0.0,0.0,0.0,0.0,0.0,0.0,0.0,0.0,0.0,0.0,0.0,0.0,0.0,0.0,-5.9708,-6.0886,-6.1013,-6.1088,-6.1231,-6.1313,-6.1336,-6.1421,-6.2044,-6.2331,-6.2264,-6.3688,-6.4305,-6.4279,-6.5197,-6.5859,-6.6139,-6.6258,-6.692,-6.7994,-6.885,-6.9769,-7.0714,-7.1719,-7.2401,-7.2742,-7.2853,-7.3124,-7.3372,0.0,0.0,0.0,0.0,0.0,0.0,0.0,0.0,0.0,0.0,0.0,0.0,0.0,0.0,0.0,0.0,0.0,0.0,0.0,0.0,0.0,0.0,0.0,-0.9176,-0.9042,-1.0627,-1.1591,-1.1935,-1.2892,-1.445,-1.6374,-1.7208,-1.8389,-1.9795,-2.096,-2.2312,-2.3776,-2.4855,-2.5967,-2.6918,-2.7696,0.0,0.0,0.0,0.0,0.0,-2.9583,-3.0405,0.0,-3.2104,-3.2397,-3.2739,0.0,0.0,0.0,0.0,-3.3755,-3.5105,-3.6074,-3.6563,-3.7134,-3.8077,-3.8697,-3.8812,-3.7645,0.0,0.0,0.0,0.0,0.0,0.0,0.0,0.0,0.0,0.0,0.0,0.0,0.0,0.0,0.0,0.0,0.0,0.0,0.0,0.0,0.0,0.0,-5.9135,-6.0303,-6.0494,-6.0554,-6.0625,-6.0998,-6.0974,-6.0771,-6.2125,-6.2614,-6.2255,-6.4239,-6.5101,-6.4906,-6.5681,-6.6146,-6.6391,-6.633,-6.7137,-6.8597,-6.8934,-6.9828,-7.1039,-7.1623,-7.1911,-7.2002,-7.252,-7.2741,-7.2838,0.0,0.0,0.0,0.0,0.0,0.0,0.0,0.0,0.0,0.0,0.0,0.0,0.0,0.0,0.0,0.0,0.0,0.0,0.0,0.0,0.0,0.0,-1.2386,-1.2596,-1.2884,-1.3995,-1.4929,-1.5387,-1.6279,-1.7373,-1.8687,-1.8803,-1.9591,-2.106,-2.2714,-2.429,-2.5679,-2.6263,-2.7159,-2.8176,-2.8732,0.0,0.0,0.0,0.0,0.0,0.0,0.0,0.0,-3.2338,-3.2363,-3.2334,-3.2615,0.0,0.0,0.0,0.0,0.0,-3.6226,-3.7114,-3.8023,-3.8739,-3.9164,-3.9178,-3.801,0.0,0.0,0.0,0.0,0.0,0.0,0.0,0.0,0.0,0.0,0.0,0.0,0.0,0.0,0.0,0.0,0.0,0.0,0.0,0.0,0.0,0.0,-5.8308,-5.9298,-5.9751,-5.9939,-5.9766,-6.0563,-6.0773,-6.0255,-6.23,-6.3026,-6.249,-6.4503,-6.5439,-6.5397,-6.5824,-6.6146,-6.6366,0.0,0.0,-6.9176,-6.9162,-7.0129,-7.1557,-7.1557,-7.1393,-7.1186,-7.2202,-7.2319,-7.2192,0.0,0.0,0.0,0.0,0.0,0.0,0.0,0.0,0.0,0.0,0.0,0.0,0.0,0.0,0.0,0.0,0.0,0.0,0.0,0.0,0.0,-1.6821,-1.62,-1.5836,-1.5858,-1.6763,-1.7358,-1.7418,-1.8946,-1.9784,-2.0047,-2.0868,-2.1553,-2.2456,-2.4653,-2.5517,-2.5459,-2.7563,-2.841,-2.8545,-3.0043,0.0,0.0,0.0,0.0,0.0,0.0,0.0,0.0,-3.3114,-3.3152,-3.2706,-3.3564,0.0,0.0,0.0,0.0,0.0,-3.5795,-3.6955,-3.8066,-3.8866,-3.9304,-3.9449,-3.8759,0.0,0.0,0.0,0.0,0.0,0.0,0.0,0.0,0.0,0.0,0.0,0.0,0.0,0.0,0.0,0.0,0.0,0.0,0.0,0.0,0.0,0.0,-5.8461,-5.8791,-5.9201,-5.9375,-5.9151,-5.946,-5.9976,-6.0834,-6.2676,-6.3263,-6.2722,-6.4569,-6.5219,-6.4769,-6.5761,-6.633,-6.6488,0.0,-6.8307,-6.9249,-7.0048,-7.0883,-7.178,-7.1866,-7.1633,-7.1358,-7.2448,-7.259,-7.2295,0.0,0.0,0.0,0.0,0.0,0.0,0.0,0.0,0.0,0.0,0.0,0.0,0.0,0.0,0.0,0.0,0.0,0.0,0.0,0.0,-1.739,-1.9052,-1.9394,-1.9347,-1.9047,-1.9818,-2.0174,-2.0127,-2.0614,-2.09,-2.1306,-2.2022,-2.2744,-2.339,-2.4923,-2.6056,-2.6885,-2.8301,-2.9309,-2.9984,0.0,0.0,0.0,0.0,0.0,0.0,0.0,0.0,0.0,0.0,-3.3397,-3.3175,-3.3631,0.0,0.0,0.0,0.0,0.0,-3.6356,-3.7265,-3.8133,-3.868,-3.9401,-3.9774,-3.9379,0.0,0.0,0.0,0.0,0.0,0.0,0.0,0.0,0.0,0.0,0.0,0.0,0.0,0.0,0.0,0.0,0.0,0.0,0.0,0.0,0.0,0.0,0.0,-5.7891,-5.8174,-5.8391,-5.8561,-6.0043,-6.1113,-6.173,-6.3674,-6.4195,-6.3453,-6.5041,-6.5617,-6.5359,-6.5966,-6.633,-6.6548,0.0,-6.7957,-6.9298,-6.9661,-7.0629,-7.1816,-7.1964,-7.1573,-7.1034,-7.1913,-7.2425,-7.2838,0.0,0.0,0.0,0.0,0.0,0.0,0.0,0.0,0.0,0.0,0.0,0.0,0.0,0.0,0.0,0.0,0.0,0.0,0.0,-1.687,-1.8685,-2.0226,-2.1551,-2.2085,-2.1631,-2.2193,-2.2417,-2.2343,-2.2078,-2.213,-2.2387,-2.3162,-2.3677,-2.3943,-2.5199,-2.6607,-2.8066,-2.905,-3.0076,-3.101,0.0,0.0,0.0,0.0,0.0,0.0,0.0,0.0,0.0,0.0,0.0,0.0,0.0,0.0,0.0,-3.4206,-3.4863,-3.5805,-3.6543,-3.7502,-3.8345,-3.8549,0.0,0.0,0.0,0.0,0.0,0.0,0.0,0.0,0.0,0.0,0.0,0.0,0.0,0.0,0.0,0.0,0.0,0.0,0.0,0.0,0.0,0.0,0.0,0.0,0.0,0.0,-5.6883,-5.726,-5.7741,-5.8519,-6.0729,-6.2185,-6.2701,-6.4185,-6.4805,-6.4528,-6.5546,-6.5985,-6.6083,-6.633,-6.6452,-6.6608,-6.6728,-6.7668,-6.9127,-6.9407,-7.0314,-7.15,-7.183,-7.1659,-7.1194,-7.1545,-7.2351,-7.3305,0.0,0.0,0.0,0.0,0.0,0.0,0.0,0.0,0.0,0.0,0.0,0.0,0.0,0.0,0.0,0.0,0.0,0.0,0.0,-1.8454,-1.9901,-2.0565,-2.2088,-2.2862,-2.2893,-2.344,-2.3552,-2.2909,-2.3796,-2.386,-2.3431,-2.4447,-2.4466,-2.4049,-2.6554,-2.7584,-2.7753,-2.9785,-3.0631,-3.0844,-3.1815,0.0,0.0,0.0,0.0,0.0,0.0,0.0,0.0,0.0,0.0,0.0,0.0,0.0,-3.4021,-3.4497,-3.4674,-3.5008,-3.5721,-3.7068,-3.8422,-3.8651,-3.8919,0.0,-3.934,-4.0106,0.0,-4.0669,0.0,0.0,0.0,0.0,0.0,0.0,0.0,0.0,0.0,0.0,0.0,0.0,0.0,0.0,0.0,0.0,0.0,0.0,0.0,0.0,-5.6029,-5.6918,-5.805,-5.9482,-6.0552,-6.1936,-6.3674,-6.347,-6.4116,-6.5668,-6.5922,-6.6083,-6.6269,-6.6608,-6.6727,-6.6822,-6.7804,-6.8262,-6.84,-6.989,-7.0459,-7.0615,-7.1612,-7.2307,-7.2669,-7.1985,-7.2405,-7.3372,0.0,0.0,0.0,0.0,0.0,0.0,0.0,0.0,0.0,0.0,0.0,0.0,0.0,0.0,0.0,0.0,0.0,0.0,0.0,-1.8153,-1.9579,-2.0986,-2.2081,-2.2868,-2.3447,-2.402,-2.4022,-2.3585,-2.3486,-2.3526,-2.3614,-2.4118,-2.4614,-2.5235,-2.678,-2.7902,-2.871,-3.0305,-3.1057,-3.1451,-3.2187,-3.2498,0.0,0.0,0.0,0.0,0.0,0.0,0.0,0.0,-3.4407,-3.4316,-3.4512,-3.4548,-3.4503,-3.4329,-3.4764,-3.5551,-3.6375,-3.693,-3.7728,-3.9002,-3.9418,0.0,0.0,-4.0554,-4.1101,-4.1221,-4.1907,0.0,0.0,0.0,0.0,0.0,0.0,0.0,0.0,0.0,0.0,0.0,0.0,0.0,0.0,0.0,0.0,0.0,0.0,0.0,-5.6503,-5.7259,-5.8354,-5.9844,-6.1757,-6.2969,-6.3435,-6.3867,-6.426,-6.4613,-6.4674,-6.5046,-6.5731,-6.5908,-6.6374,-6.6961,-6.7367,-6.7919,-6.858,-6.9164,-6.9595,-6.9914,-7.0241,-7.0975,-7.1745,-7.1618,-7.1857,-7.2351,0.0,0.0,0.0,0.0,0.0,0.0,0.0,0.0,0.0,0.0,0.0,0.0,0.0,0.0,0.0,0.0,0.0,0.0,-1.6935,-1.8094,-1.9464,-2.0856,-2.1932,-2.2823,-2.3519,-2.4244,-2.4381,-2.4033,-2.3488,-2.3499,-2.3837,-2.3942,-2.4644,-2.5777,-2.71,-2.8239,-2.9126,-3.0917,-3.1653,-3.1815,-3.2436,-3.2727,0.0,0.0,0.0,0.0,0.0,0.0,0.0,0.0,-3.4749,-3.4763,-3.48,-3.5046,-3.5128,-3.4839,-3.5672,-3.666,-3.7171,-3.7842,-3.8595,-3.9713,0.0,0.0,-4.0552,-4.1212,-4.1894,-4.1957,-4.2786,-4.3755,-4.4702,0.0,0.0,0.0,0.0,0.0,0.0,0.0,0.0,0.0,0.0,0.0,0.0,0.0,0.0,0.0,0.0,0.0,0.0,-5.7907,-5.8935,-6.0358,-6.2345,-6.3312,-6.3137,-6.361,-6.3775,-6.3536,-6.3226,-6.3775,-6.5019,-6.5482,-6.5996,-6.6656,-6.6874,-6.7482,-6.8255,-6.8455,-6.8982,-6.9675,-6.95,-6.9982,-7.0841,-7.0973,-7.1232,-7.1637,0.0,0.0,0.0,0.0,0.0,0.0,0.0,0.0,0.0,0.0,0.0,0.0,0.0,0.0,0.0,0.0,0.0,0.0,-1.663,-1.8632,-1.9687,-1.9687,-2.1486,-2.2601,-2.2938,-2.4223,-2.4738,-2.4401,-2.4033,-2.4049,-2.4384,-2.4384,-2.4701,-2.5366,-2.7716,-2.8649,-2.8674,-3.1543,-3.2323,-3.1615,-3.2427,-3.2727,-3.2747,0.0,0.0,0.0,0.0,0.0,0.0,0.0,-3.5316,-3.5302,-3.5764,-3.5911,-3.5892,-3.6102,-3.7164,-3.8328,-3.8081,-3.973,-4.1411,0.0,0.0,0.0,-4.1094,-4.1952,-4.299,-4.2919,-4.3359,-4.4001,-4.4455,0.0,0.0,0.0,0.0,0.0,0.0,0.0,0.0,0.0,0.0,0.0,0.0,0.0,0.0,0.0,0.0,0.0,0.0,-5.8701,-5.97,-6.0967,-6.2104,-6.2752,-6.2875,-6.2505,-6.2451,-6.2651,-6.1745,-6.235,-6.4396,-6.5363,-6.5783,-6.5856,-6.6656,-6.7097,-6.7283,-6.7913,-6.8866,-6.9884,-6.9639,-6.9754,-7.0073,-7.0073,-7.0698,-7.1471,0.0,0.0,0.0,0.0,0.0,0.0,0.0,0.0,0.0,0.0,0.0,0.0,0.0,0.0,0.0,0.0,0.0,0.0,-1.6935,-1.8618,-1.9911,-2.0961,-2.2387,-2.3436,-2.4251,-2.5422,-2.584,-2.5545,-2.4433,-2.4302,-2.5141,-2.4872,-2.5302,-2.6328,-2.8276,-2.9292,-2.9863,-3.2014,-3.2602,-3.2178,-3.2778,-3.3257,-3.3529,0.0,0.0,0.0,0.0,0.0,0.0,0.0,0.0,0.0,-3.5386,-3.6011,-3.6643,-3.6476,-3.7681,-3.9232,-3.9693,-4.091,0.0,-4.2543,0.0,0.0,0.0,-4.2924,0.0,0.0,-4.3436,-4.3732,-4.4765,0.0,0.0,0.0,0.0,0.0,0.0,0.0,0.0,0.0,0.0,0.0,0.0,0.0,0.0,0.0,0.0,0.0,0.0,-6.0634,-6.1427,-6.2139,-6.3141,-6.2946,-6.1468,-6.1521,-6.14,-6.1091,-6.0896,-6.1784,-6.3563,-6.4339,-6.5162,-6.5988,-6.6713,-6.721,-6.7524,-6.7522,-6.8049,-6.8763,-6.8044,-6.8211,-6.8966,-6.9514,-7.0051,-7.0735,0.0,0.0,0.0,0.0,0.0,0.0,0.0,0.0,0.0,0.0,-0.7652,-0.8621,0.0,0.0,0.0,0.0,0.0,0.0,0.0,-1.9062,-2.042,-2.1723,-2.3043,-2.4378,-2.5596,-2.603,-2.6464,-2.6727,-2.5526,-2.511,-2.5577,-2.5303,-2.5883,-2.6947,-2.852,-2.9463,-2.9867,-3.1828,-3.2468,-3.2117,-3.2758,-3.3329,-3.3832,0.0,0.0,0.0,0.0,0.0,0.0,0.0,0.0,0.0,-3.5491,-3.6324,-3.7352,-3.7146,-3.8953,-4.082,-4.0864,0.0,0.0,0.0,-4.3836,-4.454,-4.4519,0.0,0.0,0.0,0.0,-4.4467,-4.5647,0.0,0.0,0.0,0.0,0.0,0.0,0.0,0.0,0.0,0.0,0.0,0.0,0.0,0.0,0.0,0.0,0.0,-6.0946,-6.1536,-6.1881,-6.2033,-6.237,-6.1848,-6.0235,-6.0367,-6.0382,-6.0372,-6.0483,-6.1279,-6.2766,-6.345,-6.4235,-6.4986,-6.6151,-6.6736,-6.7048,-6.7064,-6.7502,-6.796,-6.7336,-6.7445,-6.8162,-6.9023,-6.9648,-7.0312,0.0,0.0,0.0,0.0,0.0,0.0,0.0,0.0,0.0,0.0,-0.9007,-0.9327,0.0,0.0,0.0,0.0,0.0,0.0,0.0,-2.0077,-2.1338,-2.2324,-2.3822,-2.5371,-2.7018,-2.6476,-2.6784,-2.7957,-2.6848,-2.6325,-2.6093,-2.6092,-2.6644,-2.7614,-2.8916,-2.9385,-2.9556,-3.1519,-3.2003,-3.1676,-3.2406,-3.3069,-3.3742,-3.4146,0.0,0.0,0.0,0.0,0.0,0.0,0.0,0.0,-3.5992,-3.6881,-3.8095,-3.8035,-4.0341,-4.2616,0.0,0.0,0.0,0.0,0.0,0.0,0.0,0.0,0.0,0.0,0.0,0.0,0.0,0.0,0.0,0.0,0.0,0.0,0.0,0.0,0.0,0.0,0.0,0.0,0.0,0.0,0.0,0.0,0.0,0.0,-6.1605,-6.1675,-6.1432,-6.1002,-6.0522,-5.9964,-5.9239,-5.9023,-5.9342,-6.0264,-6.032,-6.0954,-6.2041,-6.2838,-6.3292,-6.3603,-6.5296,-6.6007,-6.6043,-6.6769,-6.7247,-6.747,-6.7266,-6.7322,-6.7579,-6.8568,-6.9486,-7.0275,0.0,0.0,0.0,0.0,0.0,0.0,0.0,0.0,0.0,0.0,0.0,0.0,0.0,0.0,0.0,0.0,0.0,0.0,0.0,-2.1623,-2.3039,-2.3958,-2.5869,-2.7133,-2.7661,-2.7848,-2.7944,-2.8015,-2.7016,-2.6842,-2.7427,-2.7687,-2.8501,-2.9786,-3.065,-3.1482,-3.2169,-3.2642,-3.2509,-3.1876,-3.2758,-3.3371,-3.3959,-3.4525,-3.5129,0.0,0.0,0.0,0.0,0.0,0.0,0.0,-3.6239,-3.6872,-3.7799,-3.8466,-3.9769,0.0,0.0,0.0,0.0,0.0,0.0,0.0,0.0,0.0,0.0,0.0,0.0,0.0,0.0,0.0,0.0,0.0,0.0,0.0,0.0,0.0,0.0,0.0,0.0,0.0,0.0,0.0,0.0,0.0,0.0,-6.1542,-6.2186,-6.2258,-6.1848,-6.1037,-6.0522,-5.9593,-5.8193,-5.8203,-5.8537,-5.9087,-5.9673,-6.0699,-6.2168,-6.2783,-6.345,-6.4235,-6.5715,-6.6262,-6.6043,-6.703,-6.7414,-6.747,-6.7266,-6.7322,-6.7652,-6.8966,-6.9701,-7.0349,0.0,0.0,0.0,0.0,0.0,0.0,0.0,0.0,0.0,0.0,0.0,0.0,0.0,0.0,0.0,0.0,0.0,0.0,0.0,0.0,-2.4171,-2.5874,-2.7282,-2.8074,-2.8428,-2.8289,-2.8259,-2.8259,-2.7568,-2.7819,-2.8861,-2.9219,-3.0117,-3.132,-3.1828,-3.2085,-3.222,-3.258,-3.2554,-3.2246,-3.3265,-3.4075,-3.4657,-3.5005,-3.5656,-3.6347,-3.6351,0.0,0.0,0.0,0.0,0.0,0.0,0.0,-3.8087,-3.8124,-3.9713,0.0,0.0,0.0,0.0,0.0,0.0,0.0,0.0,0.0,0.0,0.0,0.0,0.0,0.0,0.0,0.0,0.0,0.0,0.0,0.0,0.0,0.0,0.0,0.0,0.0,0.0,0.0,0.0,0.0,0.0,-6.1326,-6.1731,-6.1043,-6.0601,-6.0346,-5.9166,-5.8219,-5.7564,-5.785,-5.834,-5.9039,-5.9977,-6.1074,-6.2328,-6.2621,-6.3057,-6.3494,-6.4672,-6.5311,-6.5642,-6.6446,-6.7085,-6.747,-6.7414,-6.7414,-6.7616,-6.8823,-6.9411,-6.9743,0.0,0.0,0.0,0.0,0.0,0.0,0.0,0.0,0.0,0.0,0.0,0.0,0.0,0.0,0.0,0.0,0.0,0.0,0.0,0.0,0.0,-2.7505,-2.8217,-2.8636,-2.8874,-2.8331,-2.8211,-2.8361,-2.8313,-2.9012,-3.0412,-3.0715,-3.1645,-3.2922,-3.3125,-3.2784,-3.2255,-3.2738,-3.2921,-3.2727,-3.3767,-3.456,-3.5134,-3.5337,-3.5852,-3.6553,-3.6553,-3.6479,-3.6394,-3.6872,0.0,0.0,0.0,0.0,-3.8376,-3.7826,0.0,0.0,0.0,0.0,0.0,0.0,0.0,0.0,0.0,0.0,0.0,0.0,0.0,0.0,0.0,0.0,0.0,0.0,0.0,0.0,0.0,0.0,0.0,0.0,0.0,0.0,0.0,0.0,0.0,0.0,0.0,-6.0455,-6.0652,-5.9455,-5.8978,-5.9586,-5.7639,-5.6905,-5.7455,-5.7853,-5.8448,-5.9349,-6.0626,-6.1636,-6.2449,-6.2603,-6.2552,-6.247,-6.3429,-6.4323,-6.5164,-6.5825,-6.6683,-6.7524,-6.7524,-6.7524,-6.7634,-6.855,-6.8898,-6.9119,0.0,0.0,0.0,0.0,0.0,0.0,0.0,0.0,0.0,0.0,-1.4901,-1.5883,0.0,0.0,0.0,0.0,0.0,0.0,0.0,0.0,0.0,-2.7931,-2.8241,-2.8517,-2.8517,-2.8496,-2.8374,-2.802,-2.8944,-3.0424,-3.2561,-3.2406,-3.3647,-3.6008,-3.5985,-3.5931,-3.5736,-3.5351,-3.4253,-3.2962,-3.4122,-3.4064,-3.36,-3.4504,-3.5272,-3.5865,-3.6092,-3.6359,-3.6805,-3.7646,-3.7663,0.0,0.0,0.0,0.0,0.0,0.0,0.0,0.0,0.0,0.0,0.0,0.0,0.0,0.0,0.0,0.0,0.0,0.0,0.0,0.0,0.0,0.0,0.0,0.0,0.0,0.0,0.0,0.0,0.0,0.0,0.0,0.0,0.0,0.0,0.0,-5.9886,-5.9768,-5.957,-5.8897,-5.884,-5.9516,-5.7604,-5.7092,-5.806,-5.8049,-5.834,-5.8984,-6.1207,-6.2427,-6.2755,-6.2755,-6.2654,-6.247,-6.357,-6.4427,-6.5164,-6.604,-6.69,-6.7687,-6.7687,-6.7687,-6.7797,-6.8605,-6.8898,-6.9045,0.0,0.0,0.0,0.0,0.0,0.0,0.0,0.0,0.0,0.0,0.0,-1.6709,0.0,0.0,0.0,0.0,0.0,0.0,0.0,0.0,0.0,-2.8517,-2.8955,-2.9083,-2.8841,-2.89,-2.8656,-2.8096,-2.8882,-3.0501,-3.2788,-3.3444,-3.5001,-3.737,-3.7786,-3.7613,-3.6878,-3.7404,-3.6627,-3.4889,-3.6167,-3.6069,-3.5156,-3.5838,-3.6507,-3.7221,-3.8864,-3.8731,-3.8067,-3.9778,-3.9244,-3.7875,-3.7747,0.0,0.0,0.0,0.0,0.0,0.0,0.0,0.0,0.0,0.0,0.0,0.0,0.0,0.0,0.0,0.0,0.0,0.0,0.0,0.0,0.0,0.0,0.0,0.0,0.0,0.0,0.0,0.0,0.0,0.0,0.0,0.0,0.0,-5.8799,-5.845,-5.8212,-5.8046,-5.8049,-5.8263,-5.779,-5.7824,-5.8436,-5.9147,-5.9944,-6.0865,-6.1911,-6.2552,-6.2805,-6.2805,-6.2705,-6.2676,-6.3672,-6.4479,-6.527,-6.6182,-6.6953,-6.7687,-6.7687,-6.7687,-6.7724,-6.8091,-6.8238,-6.8348,0.0,0.0,0.0,0.0,0.0,0.0,0.0,0.0,0.0,0.0,0.0,0.0,0.0,0.0,0.0,0.0,0.0,0.0,0.0,0.0,0.0,-2.8901,-2.9294,-2.9392,-2.9133,-2.9223,-2.8977,-2.8394,-2.8993,-3.0433,-3.2518,-3.3818,-3.5621,-3.7929,-3.9193,-3.8972,-3.7827,-3.9362,-3.8666,-3.6772,-3.8399,-3.815,-3.6867,-3.7997,-3.8229,-3.8478,-4.1312,-4.1016,-3.9457,-4.1492,-4.0643,-3.8756,-3.8321,0.0,0.0,0.0,0.0,0.0,0.0,0.0,0.0,0.0,0.0,0.0,0.0,0.0,0.0,0.0,0.0,0.0,0.0,0.0,0.0,0.0,0.0,0.0,0.0,0.0,0.0,0.0,0.0,0.0,0.0,0.0,0.0,0.0,-5.7674,-5.7195,-5.7153,-5.709,-5.7219,-5.7666,-5.7867,-5.8365,-5.9102,-6.0104,-6.1262,-6.2433,-6.2433,-6.2552,-6.2805,-6.2805,-6.2915,-6.3172,-6.3796,-6.4567,-6.5375,-6.6182,-6.6953,-6.7687,-6.7687,-6.7687,-6.7687,-6.7687,-6.7687,-6.776,0.0,0.0,0.0,0.0,0.0,0.0,0.0,0.0,0.0,0.0,0.0,0.0,-1.9179,-2.0419,-2.1278,-2.1531,-2.2974,-2.4653,-2.6699,-2.7866,-2.8595,-2.8587,-2.8972,0.0,-2.9155,-2.9527,-2.9527,-2.9172,-2.9777,-3.0869,-3.229,-3.3339,-3.5172,-3.7887,-4.024,-4.0624,-3.9807,-4.0978,-4.0194,-3.8202,-4.033,-3.9641,-3.7659,-4.0501,-4.0094,-3.8379,-4.1749,-4.1983,-4.0895,-4.1554,-4.1468,-4.0749,-3.9118,-3.8653,0.0,0.0,0.0,0.0,0.0,0.0,0.0,0.0,0.0,0.0,0.0,0.0,0.0,0.0,0.0,0.0,0.0,0.0,0.0,0.0,0.0,0.0,0.0,0.0,0.0,0.0,0.0,0.0,0.0,0.0,0.0,0.0,-5.6863,-5.6398,-5.6799,-5.5894,-5.6422,-5.8555,-5.7681,-5.8174,-6.03,-6.0648,-6.1316,-6.2433,-6.2433,-6.2552,-6.2805,-6.2805,-6.3246,-6.4016,-6.4053,-6.4567,-6.5375,-6.6182,-6.6953,-6.7687,-6.7687,-6.7687,-6.7687,-6.7687,-6.7687,-6.7687,0.0,0.0,0.0,0.0,0.0,0.0,0.0,0.0,0.0,0.0,0.0,0.0,0.0,-2.083,-2.165,-2.2101,-2.4203,-2.595,-2.7186,-2.8444,-2.9192,-2.9216,-2.9592,-2.9795,-2.9942,-3.0465,-3.0591,-3.0194,-3.0696,-3.1446,-3.2455,-3.3346,-3.4784,-3.6876,-3.984,-4.1186,-4.1139,-4.2815,-4.1941,-3.957,-4.155,-4.1149,-3.9372,-4.1435,-4.1404,-4.0752,-4.4071,-4.3992,-4.2577,-4.3546,-4.394,-4.3384,-4.0384,-4.0477,-4.1471,0.0,0.0,0.0,0.0,0.0,0.0,0.0,0.0,0.0,0.0,0.0,0.0,0.0,0.0,0.0,0.0,0.0,0.0,0.0,0.0,0.0,0.0,0.0,0.0,0.0,0.0,0.0,0.0,0.0,0.0,0.0,0.0,-5.6258,-5.6549,-5.6338,-5.6936,-5.8497,-5.8694,-5.9594,-6.1296,-6.1462,-6.1824,-6.2433,-6.2433,-6.2552,-6.2805,-6.2805,-6.3282,-6.4127,-6.464,-6.5338,-6.6145,-6.6953,-6.743,-6.7687,-6.7687,-6.7687,-6.7687,-6.7687,-6.7687,-6.7687,0.0,0.0,0.0,0.0,0.0,0.0,0.0,0.0,-1.7385,-1.8412,0.0,0.0,0.0,0.0,-2.226,-2.3505,-2.5554,-2.7087,-2.7966,-2.9094,-2.9831,-2.9842,-3.0365,-3.0714,-3.061,-3.1373,-3.1626,-3.1373,-3.1477,-3.177,-3.2485,-3.3135,-3.4242,-3.5678,-3.8619,-4.0206,-4.0684,-4.2401,-4.1987,-4.0408,-4.2749,-4.2705,-4.1679,-4.3981,-4.4177,-4.3542,-4.668,-4.6708,-4.5213,-4.6082,-4.6302,-4.5717,-4.1957,-4.1493,-4.2052,-4.1153,0.0,0.0,0.0,0.0,0.0,0.0,0.0,0.0,0.0,0.0,0.0,0.0,0.0,0.0,0.0,0.0,0.0,0.0,0.0,0.0,0.0,0.0,0.0,0.0,0.0,0.0,0.0,0.0,0.0,0.0,0.0,0.0,-5.6588,-5.6713,-5.7409,-5.8815,-5.981,-6.0791,-6.1784,-6.195,-6.2168,-6.2433,-6.2449,-6.2552,-6.2805,-6.2805,-6.3429,-6.453,-6.5081,-6.5595,-6.6182,-6.7247,-6.754,-6.732,-6.7577,-6.7687,-6.7687,-6.7687,-6.7687,-6.7687,0.0,0.0,0.0,0.0,0.0,0.0,0.0,0.0,-1.8387,-1.9641,0.0,0.0,0.0,0.0,0.0,-2.5604,-2.6893,-2.7984,-2.8993,-2.9758,-3.0211,-3.0393,-3.1276,-3.1715,-3.1359,-3.2038,-3.2422,-3.2422,-3.2005,-3.2047,-3.2315,-3.2688,-3.3307,-3.4431,-3.6389,-3.7768,-3.8721,-3.9663,-4.0176,-4.0548,-4.3694,-4.4465,-4.423,-4.8169,-4.8052,-4.6405,-4.9626,-4.9846,-4.8661,-4.8661,-4.8537,-4.7731,-4.3859,-4.1409,-4.0208,-4.1102,-4.1531,0.0,0.0,0.0,0.0,0.0,0.0,0.0,0.0,0.0,0.0,0.0,0.0,0.0,0.0,0.0,0.0,0.0,0.0,0.0,0.0,0.0,0.0,0.0,0.0,0.0,0.0,0.0,0.0,0.0,-5.6471,-5.6655,-5.6978,-5.7051,-5.7863,-5.9621,-6.0934,-6.1615,-6.1784,-6.206,-6.2238,-6.2433,-6.2552,-6.2654,-6.2805,-6.2842,-6.3723,-6.5264,-6.5301,-6.5301,-6.5411,-6.699,-6.7173,-6.6586,-6.7357,-6.765,-6.7687,-6.7687,-6.7687,-6.7687,0.0,0.0,0.0,0.0,0.0,0.0,-1.7244,-1.8415,-1.9439,0.0,0.0,0.0,-2.2342,-2.3205,-2.4762,-2.6863,-2.7617,-2.8643,-3.0167,-3.0211,-3.0507,-3.1383,-3.1402,-3.1608,-3.2147,-3.253,-3.2804,-3.2804,-3.267,-3.2738,-3.3116,-3.2991,-3.3242,-3.3993,-3.484,-3.5623,-3.6481,-3.9311,0.0,-4.1233,-4.328,-4.4783,0.0,0.0,0.0,0.0,0.0,-4.8894,-4.8887,-4.8072,-4.901,-5.0094,-4.6835,-4.3938,-4.1884,-4.2323,-4.3144,-4.3823,-4.3713,0.0,0.0,0.0,0.0,0.0,0.0,0.0,0.0,0.0,0.0,0.0,0.0,0.0,0.0,0.0,0.0,0.0,0.0,0.0,0.0,0.0,0.0,0.0,0.0,0.0,0.0,0.0,-5.6245,-5.664,-5.7398,-5.8461,-5.9137,-5.9319,-6.0818,-6.1651,-6.1615,-6.1895,-6.2168,-6.2433,-6.2449,-6.2552,-6.2842,-6.3466,-6.398,-6.4494,-6.5668,-6.5521,-6.4567,-6.6182,-6.6696,-6.6512,-6.6733,-6.7173,-6.7687,-6.7687,-6.7687,-6.7687,0.0,0.0,0.0,0.0,0.0,-1.7467,-1.783,-1.9089,-2.0213,0.0,0.0,0.0,-2.3721,-2.4796,-2.6196,-2.7819,-2.817,-2.898,-3.0624,-3.068,-3.1065,-3.2024,-3.2169,-3.2283,-3.2549,-3.2931,-3.3165,-3.3165,-3.3165,-3.3165,-3.3418,-3.3292,-3.3544,-3.3922,-3.4423,0.0,-3.5294,0.0,0.0,0.0,-4.3083,0.0,0.0,-4.8409,-4.8989,0.0,0.0,0.0,-5.0296,-4.9631,-4.9931,-5.0159,-4.7943,-4.5758,-4.3808,-4.3609,-4.4214,-4.5046,-4.4804,-4.5635,0.0,0.0,0.0,0.0,0.0,-5.0624,0.0,0.0,0.0,0.0,0.0,0.0,0.0,0.0,0.0,0.0,0.0,0.0,0.0,0.0,0.0,0.0,0.0,-5.4525,-5.5263,-5.6369,-5.6738,-5.7369,-5.828,-5.9249,-5.9797,-5.969,-6.0784,-6.1386,-6.1444,-6.184,-6.2168,-6.2433,-6.2449,-6.2603,-6.2842,-6.3686,-6.409,-6.4163,-6.5448,-6.5264,-6.42,-6.5485,-6.5999,-6.6035,-6.6366,-6.699,-6.7687,-6.7687,-6.7633,-6.7579,0.0,0.0,0.0,-1.7596,-1.7818,-1.8169,-1.8532,-1.9676,-2.0774,0.0,-2.2721,-2.3952,-2.5545,-2.652,-2.7452,-2.848,-2.8765,-2.9452,-3.0822,-3.1285,-3.1751,-3.2511,-3.3038,-3.3292,-3.2912,-3.3292,-3.3418,-3.3418,-3.3418,-3.3418,-3.3418,-3.3836,-3.4001,-3.4127,-3.4754,0.0,0.0,0.0,0.0,-4.1609,-4.2886,-4.5099,0.0,0.0,-5.0537,-5.0698,-5.1695,-5.2155,-5.2306,-5.2397,-5.0968,0.0,0.0,0.0,0.0,0.0,-4.4997,-4.582,-4.6005,-4.6654,-4.7281,-4.7546,0.0,0.0,-4.9431,-5.0363,-5.1423,0.0,0.0,0.0,0.0,0.0,0.0,0.0,0.0,0.0,0.0,0.0,0.0,0.0,0.0,0.0,-5.372,-5.4581,-5.5588,-5.6911,-5.7514,-5.8243,-5.9115,-5.9551,-5.9943,-6.0333,-6.0793,-6.1152,-6.1328,-6.1692,-6.2114,-6.2542,-6.2647,-6.2801,-6.2989,-6.3943,-6.42,-6.4016,-6.5007,-6.4934,-6.4163,-6.4919,-6.5301,-6.5375,-6.6182,-6.699,-6.7687,-6.7687,-6.7579,-6.747,0.0,0.0,0.0,-1.8181,-1.8648,-1.9113,-1.9461,-2.0543,-2.1509,-2.2067,-2.363,-2.5326,-2.6986,-2.7086,-2.7783,-2.9527,-3.0298,-3.0992,-3.1894,-3.2863,-3.3368,-3.3165,-3.3292,-3.3418,-3.3292,-3.3418,-3.3418,-3.3418,-3.367,-3.3796,-3.3796,-3.4532,-3.4966,-3.522,-3.5473,-3.5725,0.0,0.0,0.0,-4.114,-4.2351,0.0,-4.8004,-4.9737,-5.0917,-5.1695,-5.188,-5.2276,-5.2608,-5.2877,-5.1727,-5.0,0.0,0.0,0.0,-4.543,0.0,0.0,0.0,-4.7024,-4.7377,0.0,-4.8761,0.0,-5.0246,-5.0789,-5.1603,0.0,0.0,0.0,0.0,0.0,0.0,0.0,0.0,0.0,0.0,0.0,0.0,0.0,0.0,0.0,-5.4221,-5.487,-5.5701,-5.668,-5.7439,-5.7954,-5.8171,-5.9046,-5.9582,-5.9648,-6.0415,-6.0998,-6.1328,-6.1523,-6.2204,-6.3381,-6.3398,-6.3539,-6.3906,-6.5375,-6.4934,-6.3172,-6.5338,-6.5359,-6.3936,-6.4741,-6.516,-6.5375,-6.6182,-6.6936,-6.7524,-6.7524,-6.7414,-6.721,0.0,-1.7726,0.0,0.0,0.0,-1.9707,-2.004,-2.109,-2.212,-2.2905,-2.5175,-2.7204,-2.8527,-2.8637,-2.9282,-3.0779,-3.186,-3.2754,-3.3377,-3.4289,-3.4636,-3.4383,-3.3922,-3.3544,-3.3418,-3.3544,-3.367,-3.367,-3.4047,-3.4293,-3.4512,-3.5113,-3.5468,-3.5595,-3.5975,-3.6708,0.0,0.0,-3.889,-4.2763,-4.1952,0.0,-4.6618,-4.7574,-4.8905,-5.0389,-5.05,-5.1363,-5.2518,-5.2788,-5.1848,0.0,-4.8565,-4.7845,-4.7327,0.0,-4.5907,-4.6686,0.0,0.0,0.0,-4.8054,-4.8955,0.0,0.0,-5.0232,-5.1128,0.0,0.0,0.0,0.0,0.0,0.0,0.0,0.0,0.0,0.0,0.0,0.0,0.0,0.0,0.0,-5.474,-5.5365,-5.6352,-5.7975,-5.8211,-5.8457,-5.8715,-5.9047,-5.9383,-5.9648,-6.0325,-6.0757,-6.0974,-6.1745,-6.2542,-6.3385,-6.3947,-6.4161,-6.4127,-6.5338,-6.4787,-6.2915,-6.5007,-6.5087,-6.392,-6.5181,-6.5474,-6.5128,-6.5933,-6.6683,-6.7359,-6.7359,-6.721,-6.7097,-1.796,-1.8311,0.0,0.0,0.0,0.0,-2.0385,-2.1467,-2.2742,-2.3952,-2.6643,-2.8983,-3.0411,-3.0918,-3.1616,-3.2674,-3.4125,-3.5013,-3.5125,-3.5876,-3.6252,-3.5827,-3.4777,-3.4047,-3.367,-3.3922,-3.4047,-3.4047,-3.4298,-3.4604,-3.5093,-3.5301,-3.5468,-3.5595,-3.6247,-3.7601,0.0,0.0,0.0,-4.4497,0.0,-4.2932,-4.5869,-4.6404,-4.7673,-4.9242,-4.9574,-5.0876,-5.2487,-5.2698,-5.1878,-5.0427,-4.8521,-4.7788,0.0,0.0,0.0,0.0,0.0,0.0,0.0,0.0,0.0,-4.9474,0.0,0.0,0.0,0.0,0.0,0.0,0.0,0.0,0.0,0.0,0.0,0.0,0.0,0.0,0.0,0.0,0.0,0.0,0.0,-5.6007,-5.7282,-5.9309,-5.9041,-5.8908,-5.9259,-5.9215,-5.9287,-5.9683,-6.0199,-6.0485,-6.0671,-6.1962,-6.2897,-6.3418,-6.4494,-6.4765,-6.4296,-6.5102,-6.4501,-6.3035,-6.4354,-6.4668,-6.429,-6.562,-6.5696,-6.4986,-6.5788,-6.6335,-6.668,-6.668,-6.6624,-6.6489,-1.8415,-1.8777,-1.9359,0.0,0.0,0.0,0.0,-2.1944,-2.3302,-2.5476,-2.7282,-2.9543,-3.2534,-3.3675,-3.4836,-3.6317,-3.8125,-3.8611,-3.7383,-3.818,-3.8371,-3.744,-3.5971,-3.5046,-3.4797,-3.4423,-3.4298,-3.4298,-3.4423,-3.4568,-3.4879,-3.5032,-3.5341,-3.5595,-3.5995,0.0,0.0,0.0,-4.0646,0.0,-4.3361,-4.48,0.0,-5.001,-5.0795,-5.0981,-5.1636,-5.2426,-5.2966,0.0,-5.2236,-5.0847,0.0,-4.8407,-4.798,-4.5959,0.0,0.0,0.0,0.0,0.0,0.0,-4.8622,-4.8974,0.0,0.0,-5.0726,-5.2135,0.0,0.0,0.0,0.0,0.0,0.0,0.0,0.0,0.0,0.0,0.0,0.0,0.0,0.0,0.0,-5.6828,-5.8363,-5.9185,-5.9197,-5.8942,-5.858,-5.9118,-5.9389,-5.9351,-5.9714,-6.0164,-6.0757,-6.1818,-6.2951,-6.4307,-6.5218,-6.5405,-6.5034,-6.5605,-6.504,-6.3507,-6.3726,-6.4458,-6.5493,-6.5039,-6.5073,-6.5597,-6.6062,-6.5697,-6.493,-6.493,-6.4819,-6.4742,-1.8596,-1.9259,-1.9911,0.0,0.0,0.0,0.0,-2.279,-2.4811,-2.7076,-2.9081,-3.1512,-3.461,-3.5579,-3.6584,-3.8034,0.0,-4.0597,0.0,0.0,-4.044,-4.0127,-3.8201,-3.6946,-3.6539,-3.5848,-3.5397,-3.4922,-3.4922,-3.5189,-3.5581,-3.5513,-3.5595,-3.5848,-3.6247,0.0,-4.1828,0.0,-4.3375,0.0,0.0,0.0,0.0,-4.8517,-4.8382,-4.9509,-5.0969,-5.1904,-5.2405,0.0,-5.1456,0.0,0.0,0.0,0.0,-4.8248,0.0,0.0,0.0,0.0,0.0,0.0,0.0,0.0,-4.9501,0.0,-5.0128,0.0,0.0,0.0,0.0,0.0,0.0,0.0,0.0,0.0,0.0,0.0,0.0,0.0,0.0,0.0,0.0,0.0,0.0,0.0,-5.9956,-5.9718,-5.9856,-5.9953,-6.0001,-5.9977,-6.0866,-6.123,-6.1094,-6.2862,-6.4136,-6.4816,-6.5581,-6.5606,-6.5091,-6.533,-6.4456,-6.298,-6.3892,-6.4585,-6.5129,-6.535,-6.5202,-6.496,-6.524,-6.4967,-6.4472,-6.4472,-6.4452,-6.4396,-1.9663,-2.011,-2.0634,0.0,0.0,0.0,0.0,0.0,-2.6883,-2.9216,-3.1512,-3.4097,-3.7373,-3.8461,0.0,0.0,-4.2263,-4.2995,0.0,0.0,-4.2409,-4.2649,-4.0313,-3.898,-3.893,-3.7692,-3.6889,-3.655,-3.583,-3.5583,-3.5914,-3.5411,-3.5411,-3.5663,0.0,-3.842,-4.223,0.0,0.0,-5.0795,-4.9856,-5.0169,-5.073,-4.807,-4.7645,-4.8719,-5.0365,-5.1264,-5.1456,-5.1251,-5.0948,0.0,-4.9983,0.0,-4.937,0.0,0.0,0.0,-4.988,0.0,0.0,0.0,0.0,0.0,0.0,0.0,0.0,0.0,0.0,0.0,0.0,0.0,0.0,0.0,0.0,0.0,0.0,0.0,0.0,0.0,0.0,0.0,0.0,0.0,0.0,-6.1119,-6.0622,-6.0436,-6.0763,-6.0723,-6.0642,-6.067,-6.1706,-6.2112,-6.1682,-6.3662,-6.4803,-6.5046,-6.5518,-6.5495,-6.4948,-6.4858,-6.4038,-6.2692,-6.3857,-6.4567,-6.4928,-6.5367,-6.5129,-6.4396,-6.4472,-6.4162,-6.3687,-6.3687,-6.3687,-6.3687,-2.2124,-2.1891,0.0,0.0,0.0,0.0,0.0,0.0,0.0,0.0,0.0,0.0,0.0,0.0,0.0,0.0,0.0,-4.6365,-4.556,0.0,-4.424,0.0,0.0,-4.1335,-4.2166,-3.9848,-3.8925,-3.9424,-3.6694,-3.5438,-3.5438,-3.4693,-3.4443,-3.4443,-3.4818,-3.6817,-4.0052,-4.0083,-4.3828,-4.9583,-4.957,-4.9092,-4.8638,0.0,-5.0876,-4.9935,-5.097,0.0,0.0,-5.1287,-5.1455,0.0,0.0,0.0,0.0,0.0,0.0,0.0,0.0,0.0,0.0,-4.9773,0.0,0.0,0.0,0.0,-5.0639,0.0,0.0,0.0,0.0,0.0,-5.1023,-5.2091,0.0,0.0,0.0,0.0,0.0,0.0,0.0,0.0,0.0,0.0,0.0,-6.1119,-6.1086,-6.092,-6.0638,-6.0964,-6.1279,-6.1466,-6.1779,-6.2156,-6.2652,-6.3854,-6.4527,-6.4828,-6.5166,-6.5062,-6.4584,-6.4509,-6.3981,-6.3164,-6.32,-6.4106,-6.5482,-6.4758,-6.4432,-6.4396,-6.4396,-6.3398,-6.1856,-6.1856,-6.1856,-6.1856,-2.5044,-2.4351,0.0,0.0,0.0,0.0,0.0,-2.9601,0.0,0.0,0.0,0.0,0.0,-4.4282,-4.5092,0.0,0.0,-4.5852,-4.6072,-4.4904,0.0,0.0,0.0,-4.3492,0.0,-4.1785,-4.087,-4.0782,-3.8432,-3.7309,-3.7166,-3.5746,-3.5046,-3.5046,0.0,-3.6939,0.0,0.0,0.0,0.0,0.0,-5.1568,-5.004,0.0,-4.9852,-4.7963,-4.8745,-4.9682,0.0,-5.0511,-5.0911,-5.1421,-5.1037,-5.1227,-5.1461,-5.1045,-5.1064,-5.1245,0.0,0.0,-5.0897,-5.0452,0.0,0.0,0.0,0.0,0.0,0.0,0.0,0.0,0.0,0.0,0.0,-5.1948,-5.2652,0.0,0.0,0.0,0.0,0.0,0.0,0.0,0.0,0.0,0.0,-6.1053,-6.1119,-6.1069,-6.1098,-6.1189,-6.1401,-6.1903,-6.2228,-6.2683,-6.3263,-6.4534,-6.5027,-6.4803,-6.538,-6.498,-6.3821,-6.4967,-6.4601,-6.3237,-6.44,-6.4908,-6.4758,-6.4504,-6.4013,-6.3465,-6.3465,-6.3047,-6.2335,-6.2057,-6.2109,-6.2609,-2.6964,0.0,0.0,0.0,0.0,0.0,0.0,0.0,0.0,0.0,-3.9922,0.0,-4.5331,0.0,-4.6271,0.0,-4.6542,-4.6413,-4.7012,-4.5813,0.0,-4.695,-4.5581,0.0,0.0,0.0,0.0,-4.2821,-4.0036,-3.8574,-3.835,-3.6444,-3.5418,-3.5046,0.0,-3.6385,-3.9152,0.0,-4.4761,0.0,0.0,-5.257,0.0,0.0,-4.9055,-4.6922,0.0,-4.962,-5.0259,-5.0216,-5.0959,-5.1738,-5.1325,-5.1709,-5.23,-5.1885,-5.1821,-5.1805,-5.1389,-5.1339,0.0,-5.0839,-5.0634,0.0,-5.0525,0.0,-5.0755,0.0,0.0,0.0,0.0,0.0,0.0,0.0,-5.2828,0.0,0.0,-5.5595,0.0,0.0,0.0,0.0,0.0,0.0,-6.0191,-6.0688,-6.0953,-6.1169,0.0,0.0,-6.1834,-6.2438,-6.2952,-6.3485,-6.4004,-6.4716,-6.4963,-6.4741,-6.478,-6.4327,-6.3366,-6.4475,-6.431,-6.3237,-6.44,-6.469,-6.4359,-6.4049,-6.3558,-6.3011,-6.2918,-6.2803,-6.2615,-6.2284,-6.2573,-6.3343,-2.8069,0.0,0.0,0.0,-2.8848,0.0,0.0,0.0,-4.0774,0.0,-4.3992,-4.5457,-4.7892,-4.7568,-4.7466,-4.8078,-4.8097,-4.8076,-4.806,-4.7026,0.0,0.0,-4.5678,-4.5579,-4.7296,0.0,0.0,0.0,0.0,0.0,-3.8697,-3.6838,-3.5418,-3.4423,-3.4423,0.0,-3.6624,-4.0387,-4.3753,-4.6937,-5.1902,-5.2023,-4.9436,-4.9863,-4.8676,-4.7193,-5.0321,-5.0516,-4.947,-5.0557,-5.1468,-5.1965,-5.0936,-5.1192,-5.1655,-5.0625,-5.0434,-5.0589,-5.0589,-5.0589,-5.0666,-5.082,-5.0896,0.0,0.0,0.0,-5.1275,0.0,0.0,0.0,0.0,0.0,0.0,0.0,0.0,0.0,0.0,0.0,0.0,0.0,0.0,0.0,0.0,0.0,-5.9926,-5.9993,-6.0655,0.0,0.0,0.0,-6.2479,-6.3131,-6.3754,-6.4218,-6.4601,-6.4367,-6.4365,-6.4483,-6.3536,-6.3104,-6.32,-6.3273,-6.3273,-6.3237,-6.3273,-6.3708,-6.4287,-6.3357,-6.2975,-6.2882,-6.2731,-6.2557,-6.251,-6.2582,-6.3167,-6.3955,-3.0218,-2.9211,-2.8819,0.0,-3.2382,-3.4952,0.0,0.0,0.0,0.0,-4.413,-4.4489,-4.801,-4.7281,-4.7022,-4.7976,-4.7114,0.0,0.0,0.0,0.0,-4.6637,-4.5951,-4.6137,-4.7015,-4.5875,-4.5713,-4.6565,0.0,0.0,-4.0597,0.0,-3.5541,0.0,0.0,0.0,-3.6156,-3.8698,-4.3087,-4.8597,-5.2871,-5.2808,-5.0324,0.0,-5.0631,-4.852,-4.9127,-4.9752,-5.048,-5.082,-5.1177,-5.1426,-5.096,-5.0948,-5.1045,-5.0653,-5.0666,-5.082,-5.082,-5.0972,-5.1048,-5.0896,-5.1048,-5.1124,0.0,0.0,0.0,0.0,0.0,0.0,0.0,0.0,0.0,0.0,0.0,0.0,0.0,0.0,0.0,-5.7147,0.0,0.0,0.0,-5.8138,-5.8833,-5.9926,-6.0191,0.0,0.0,0.0,0.0,-6.2043,-6.2079,-6.237,-6.2986,-6.3771,-6.3705,-6.2842,-6.4112,-6.4152,-6.3237,-6.4509,-6.4763,-6.4106,-6.4685,-6.4339,-6.3321,-6.2933,-6.2386,-6.1731,-6.1673,-6.1914,-6.2534,-6.3956,-6.4396,-6.4545,-3.1674,0.0,0.0,-3.2168,0.0,0.0,-3.8988,0.0,0.0,-4.68,-4.5477,0.0,-4.8339,-4.7696,-4.7235,-4.8078,-4.7541,0.0,-4.7157,0.0,0.0,-4.7129,-4.6288,-4.6501,-4.7751,-4.6591,0.0,-4.7297,0.0,0.0,-4.1094,0.0,0.0,0.0,0.0,-3.4797,0.0,-4.0059,-4.4759,-4.9738,-5.2842,-5.2898,0.0,-5.1809,-5.1282,-5.0019,-4.9609,-5.0058,-5.0896,-5.0972,-5.1048,-5.1048,-5.082,-5.0743,-5.0666,-5.0589,-5.0666,-5.082,-5.0972,-5.1124,-5.1199,-5.1048,-5.1124,-5.1199,-5.1048,-5.1424,-5.1762,0.0,-5.202,-5.2407,-5.2738,0.0,0.0,0.0,0.0,0.0,0.0,0.0,0.0,0.0,-5.7289,0.0,0.0,0.0,-5.827,-5.9267,0.0,0.0,0.0,0.0,0.0,-6.1661,-6.2144,-6.2614,-6.3014,-6.3801,-6.391,-6.327,-6.4291,-6.4166,-6.3032,-6.4085,-6.423,-6.3682,-6.3791,-6.348,-6.2825,-6.2292,-6.1781,-6.1364,-6.1628,-6.1843,-6.2152,-6.3968,-6.4549,-6.4452,-3.3055,0.0,0.0,0.0,0.0,0.0,0.0,-4.3926,0.0,-4.7993,0.0,-4.6891,-4.8624,-4.8021,-4.7717,-4.8078,0.0,-4.818,-4.7652,-4.7363,-4.7466,-4.7976,-4.6716,-4.6964,-4.9052,-4.773,-4.7428,0.0,0.0,0.0,0.0,0.0,0.0,0.0,0.0,0.0,0.0,-4.2889,-4.7298,-5.0312,-5.2397,-5.2577,-5.159,-5.1203,-5.1163,-5.12,-5.0767,-5.0743,-5.0972,-5.1124,-5.1048,-5.082,-5.0666,-5.0434,-5.0324,-5.0512,-5.0589,-5.0666,-5.1048,-5.1199,-5.1275,-5.1275,-5.1317,-5.1317,-5.1317,-5.1614,-5.1908,-5.1875,-5.2236,-5.2649,-5.3352,0.0,0.0,0.0,0.0,0.0,0.0,0.0,0.0,0.0,0.0,0.0,0.0,0.0,0.0,0.0,0.0,0.0,0.0,0.0,0.0,-6.1695,-6.3048,-6.3694,-6.3573,-6.4008,-6.4301,-6.4385,-6.4268,-6.3761,-6.2889,-6.3041,-6.2969,-6.2673,-6.199,-6.2026,-6.2435,-6.1579,-6.127,-6.1342,-6.1962,-6.1901,-6.1666,-6.3264,-6.3827,-6.3863,0.0,0.0,0.0,0.0,0.0,-4.354,-4.3145,-4.4312,-4.6062,-4.8439,-4.6796,-4.6117,-4.8368,-4.7455,-4.7068,-4.7976,-4.7707,0.0,0.0,0.0,0.0,-4.7615,-4.7977,-4.8593,-4.9665,-4.9653,-4.9904,0.0,0.0,0.0,0.0,0.0,0.0,0.0,0.0,0.0,-4.1301,-4.4668,0.0,-5.0254,-5.2437,-5.2794,-5.1822,-5.1429,-5.1246,-5.12,-5.0767,-5.082,-5.1199,-5.1199,-5.1048,-5.082,-5.0666,-5.0434,-5.0356,-5.0324,-5.0512,-5.0666,-5.0896,-5.135,-5.1688,-5.1688,-5.1908,-5.2092,-5.2092,-5.2412,-5.2764,-5.2903,-5.311,-5.3382,-5.382,0.0,0.0,0.0,0.0,0.0,0.0,0.0,0.0,0.0,0.0,-5.6718,0.0,0.0,0.0,0.0,0.0,0.0,0.0,0.0,0.0,0.0,-6.2385,0.0,0.0,0.0,-6.3889,-6.3476,-6.4312,-6.4315,-6.368,-6.3739,-6.3379,-6.2673,-6.2449,-6.2032,-6.1507,-6.1247,-6.1152,-6.1152,-6.1494,-6.1552,-6.1444,-6.224,-6.2404,-6.2346,0.0,0.0,0.0,0.0,0.0,0.0,0.0,-4.6062,-4.7403,-4.8324,-4.6891,-4.6467,-4.8094,-4.7651,-4.7494,-4.7903,-4.7829,-4.7596,-4.7288,-4.7363,-4.7773,-4.8453,-4.8534,-4.9222,-5.0598,-4.9665,-4.954,-5.0029,0.0,0.0,-4.3035,0.0,0.0,0.0,0.0,-4.0548,0.0,0.0,0.0,-4.9959,-5.2356,-5.2667,-5.1647,-5.1934,-5.1505,-5.0834,-5.1023,-5.1064,-5.1048,-5.1199,-5.1048,-5.082,-5.0666,-5.0512,-5.0434,-5.0434,-5.0589,-5.082,-5.1275,-5.1573,-5.1835,-5.2053,-5.2164,-5.2307,-5.2307,-5.259,-5.2972,-5.3179,-5.3382,-5.3651,-5.3915,-5.3608,-5.3471,-5.3977,0.0,0.0,0.0,0.0,-5.5621,0.0,0.0,0.0,0.0,0.0,0.0,0.0,0.0,0.0,0.0,0.0,0.0,0.0,0.0,0.0,-6.2424,0.0,-6.4503,-6.4408,-6.4626,-6.4348,-6.3621,-6.3346,-6.2677,-6.1866,-6.1807,-6.1533,-6.1211,-6.1152,-6.1152,-6.1211,-6.135,-6.1523,-6.1692,-6.1895,-6.2005,-6.2096,0.0,-3.998,0.0,0.0,-4.3091,0.0,-4.5981,-4.7584,-4.861,-4.8207,-4.7354,-4.7141,-4.7976,-4.8134,-4.8032,-4.7829,-4.8032,-4.8032,-4.7829,-4.8207,-4.8681,-4.898,-4.9094,-4.9779,-5.1092,-4.9853,-4.9408,0.0,0.0,0.0,0.0,0.0,0.0,0.0,0.0,0.0,0.0,0.0,-4.9566,-5.0434,-5.2362,-5.2449,-5.1381,-5.2197,-5.1556,-5.042,-5.1119,-5.1147,-5.0896,-5.1048,-5.0972,-5.082,-5.0666,-5.0589,-5.0589,-5.0666,-5.0743,-5.1048,-5.1647,-5.1736,-5.1783,-5.2274,-5.2316,-5.232,-5.2487,-5.2834,-5.3041,-5.3247,-5.3448,-5.3611,-5.3741,-5.3327,0.0,0.0,0.0,0.0,0.0,0.0,0.0,0.0,0.0,0.0,-5.5355,0.0,0.0,0.0,0.0,0.0,0.0,0.0,0.0,0.0,0.0,-6.3203,-6.2736,0.0,-6.4619,-6.4817,-6.4472,-6.3886,-6.3066,-6.2641,-6.1926,-6.1093,-6.1093,-6.1093,-6.1152,-6.1152,-6.1211,-6.1386,-6.1444,-6.1672,-6.195,-6.1895,-6.2005,-6.2168,0.0,0.0,0.0,0.0,0.0,0.0,-4.6459,-4.741,-4.8207,-4.8409,-4.8151,-4.7948,-4.8134,-4.8134,-4.8134,-4.8032,-4.8134,-4.8134,-4.8032,-4.8308,-4.838,-4.8122,-5.0064,-5.0905,-5.0298,-5.1619,-5.2438,0.0,0.0,-4.7702,0.0,0.0,0.0,0.0,0.0,0.0,0.0,-4.9052,-5.0476,-5.2634,-5.2734,-5.2193,-5.135,-5.1696,-5.1146,-5.0356,-5.0575,-5.0807,-5.0896,-5.0896,-5.082,-5.0589,-5.0589,-5.0512,-5.0434,-5.0743,-5.0896,-5.1048,-5.1647,-5.152,-5.1512,-5.2597,-5.2572,-5.2471,-5.318,-5.3416,-5.3484,-5.3651,-5.3434,-5.3112,-5.2921,-5.3175,-5.3266,0.0,0.0,0.0,0.0,0.0,-5.4629,-5.5651,0.0,0.0,0.0,-5.5953,0.0,0.0,0.0,0.0,0.0,0.0,0.0,-6.2251,-6.2606,-6.282,-6.2962,-6.2915,-6.2833,-6.2666,-6.3151,-6.288,-6.2133,-6.2246,-6.1843,-6.1093,-6.1093,-6.1152,-6.127,-6.127,-6.1386,-6.1595,-6.184,-6.1895,-6.184,-6.2114,-6.2114,-6.2005,0.0,0.0,0.0,0.0,0.0,0.0,0.0,-4.8066,-4.871,-4.828,-4.8207,-4.8134,-4.8134,-4.8134,-4.8032,-4.7931,-4.8032,-4.7864,-4.7399,-4.8411,-4.8808,-4.8477,-5.0154,-5.0988,-5.0825,-5.138,-5.1595,0.0,0.0,0.0,0.0,0.0,0.0,0.0,0.0,-4.8894,-5.0974,-5.1416,-5.1813,-5.2183,-5.2383,-5.1888,-5.0923,-5.1611,-5.1245,-5.0388,-5.0991,-5.1019,-5.0743,-5.0743,-5.082,-5.0896,-5.0666,-5.0422,-5.0145,-5.0252,-5.008,-5.005,-5.0665,-5.1045,-5.1591,-5.2371,-5.2404,-5.2503,-5.3315,-5.3145,-5.2975,-5.3747,-5.3592,-5.3266,-5.3169,-5.3266,-5.3329,-5.3169,0.0,0.0,0.0,0.0,0.0,-5.4974,0.0,-5.4194,0.0,0.0,0.0,0.0,0.0,0.0,0.0,0.0,0.0,-6.2427,0.0,-6.2266,-6.2813,-6.2631,-6.2587,-6.2717,-6.2322,-6.2061,-6.1903,-6.1529,-6.1319,-6.1211,-6.1211,-6.1328,-6.1444,-6.1444,-6.1559,-6.1728,-6.184,-6.1895,-6.1895,-6.206,-6.206,-6.2005,-4.5484,0.0,-4.4456,0.0,-4.5942,-4.6689,-4.6956,-4.8296,-4.9009,-4.838,-4.8308,-4.8336,-4.8336,-4.8336,-4.8021,-4.7244,-4.7623,-4.7556,-4.6606,-4.8099,-4.8902,-4.8585,-4.9985,0.0,-5.0022,-5.0514,-5.0609,-5.0242,-5.1199,0.0,0.0,0.0,0.0,0.0,-4.9213,-5.0618,-5.2077,-5.2337,-5.2181,-5.1621,-5.1989,-5.1549,-5.0681,-5.1512,-5.1135,-5.042,-5.1055,-5.1005,-5.0589,-5.0512,-5.0743,-5.094,-5.0333,-4.9909,-4.9554,-4.948,-4.9378,-4.9349,-5.0248,-5.0753,-5.1293,-5.21,-5.2065,-5.2065,-5.2706,-5.257,-5.2634,-5.3778,-5.3656,-5.3329,-5.3391,-5.3452,-5.3452,-5.3329,0.0,0.0,0.0,-5.4524,0.0,0.0,-5.4025,-5.3854,-5.4498,-5.5348,0.0,0.0,0.0,0.0,0.0,0.0,0.0,0.0,0.0,0.0,-6.2335,-6.1958,-6.1917,-6.2075,-6.1482,-6.1298,-6.1486,-6.1188,-6.1176,-6.1386,-6.1386,-6.1501,-6.1651,-6.1651,-6.1764,-6.184,-6.184,-6.1895,-6.2005,-6.2005,-6.195,-6.195,-4.5799,-4.5353,-4.5146,-4.5173,-4.5663,-4.6146,-4.6349,-4.7785,-4.8909,-4.8909,-4.8909,-4.8909,-4.8909,-4.8909,-4.8126,-4.6173,-4.6951,-4.715,-4.6091,-4.7546,-4.8448,0.0,0.0,-4.9706,-4.7165,-4.9581,-5.0117,-4.8777,0.0,0.0,-4.8336,0.0,-4.8551,-4.7989,-5.0183,-5.1323,-5.1604,-5.09,-5.1036,-5.159,-5.1662,-5.1277,-5.0618,-5.1135,-5.0882,-5.0356,-5.0512,-5.0589,-5.0589,-5.0356,-5.0434,-5.0461,-4.9528,-4.8751,-4.8328,-4.873,-4.8917,-4.9336,-5.0839,-5.0717,-5.0456,-5.1899,-5.1628,-5.1056,-5.1186,-5.1792,-5.2634,-5.3778,-5.3494,-5.3169,-5.3329,-5.3514,-5.3479,-5.3169,0.0,0.0,0.0,-5.4292,0.0,-5.4703,-5.4292,-5.4303,-5.5079,0.0,0.0,0.0,0.0,0.0,0.0,0.0,0.0,-6.1037,-6.1134,0.0,-6.1488,-6.0783,-6.0333,-6.0107,-6.0458,-6.0671,-6.0818,-6.1328,-6.1595,-6.1595,-6.1595,-6.1708,-6.182,-6.182,-6.184,-6.2005,-6.2005,-6.2005,-6.2005,-6.2005,-6.1895,-6.1784,-4.6002,-4.5948,-4.6157,-4.6599,-4.7188,-4.7696,-4.7567,-4.8638,-4.9277,-4.8909,-4.9178,-4.9473,-4.9473,-4.9079,-4.8596,0.0,-4.8198,-4.79,0.0,-4.8268,-4.8873,-4.8125,-4.9985,-5.0307,-4.8777,-5.0277,-5.0496,-4.9281,0.0,0.0,0.0,-5.0309,-5.0265,-5.0436,-5.0816,-5.1273,-5.1542,-5.1036,-5.0855,-5.0913,-5.0975,-5.0636,-5.0168,-5.0247,-5.0279,-5.0356,-5.0356,-5.0434,-5.0434,-5.0324,-4.9928,-4.9342,-4.8568,-4.8413,-4.8496,-4.812,-4.8102,-4.8357,-4.9286,-4.9759,-5.0223,-5.1191,-5.0885,-5.0511,-5.1116,-5.1987,-5.2793,-5.3126,-5.2769,-5.2536,-5.2597,-5.2658,-5.2831,-5.3225,-5.4011,0.0,-5.4939,0.0,-5.4254,-5.5037,-5.4686,-5.4557,-5.5139,-5.6019,0.0,0.0,0.0,0.0,0.0,0.0,0.0,0.0,-6.0919,0.0,-6.1805,-6.0999,-6.0547,-6.0574,-6.0609,-6.0732,-6.1034,-6.127,-6.1501,-6.1764,-6.1764,-6.1784,-6.195,-6.195,-6.195,-6.2005,-6.2005,-6.2005,-6.2005,-6.2005,-6.1895,-6.1784,-4.6245,-4.6056,-4.6102,-4.6723,-4.7438,-4.7913,-4.7913,-4.8907,-4.9571,-4.9277,-4.9473,-4.9669,-4.9669,-4.9375,0.0,-4.7913,-4.8439,-4.8169,-4.6879,-4.8407,-4.9233,-4.8895,-4.9999,-5.0075,-4.8928,-4.9779,0.0,-4.8453,-5.0153,-5.109,-5.1155,-5.0832,-5.0933,-5.1364,-5.0636,-5.0717,-5.1221,-5.0638,-5.0476,-5.0586,-5.0416,-5.0151,-4.9931,-5.001,-5.0089,-5.0168,-5.0246,-5.0246,-5.0168,-5.0168,-4.9614,-4.8762,-4.8175,-4.8063,-4.8111,-4.7694,-4.774,-4.8195,-4.942,-5.0092,-5.0624,-5.0989,-5.075,-5.0578,-5.1116,-5.1847,-5.2614,-5.3126,-5.2935,-5.2735,-5.3107,-5.3142,-5.3314,-5.386,-5.4281,-5.4539,-5.4761,0.0,-5.4282,0.0,0.0,0.0,0.0,-5.6188,-5.667,0.0,0.0,0.0,0.0,0.0,-6.0456,-6.1212,-6.0755,-6.0883,-6.1625,-6.1041,-6.0696,-6.0782,-6.0793,-6.0914,-6.1093,-6.1386,-6.1615,-6.1784,-6.184,-6.1895,-6.2005,-6.2005,-6.2005,-6.2005,-6.2005,-6.2005,-6.2005,-6.195,-6.184,-6.1764,-4.635,-4.5786,-4.5511,0.0,-4.6578,-4.7178,-4.7673,-4.8873,-4.9669,-4.9669,-4.9669,-4.9669,-4.9669,-4.9669,-4.9017,-4.7178,0.0,0.0,-4.7023,-4.8161,-4.9347,-5.0375,-4.9852,-4.8987,-4.7846,-4.8588,-4.8292,-4.6945,-4.9097,-5.0152,-5.0122,-5.0426,-5.0729,-5.0879,-4.9835,-4.9763,-5.0568,-4.9657,-4.9797,-5.0492,-5.0105,-4.9931,-4.9931,-5.0168,-5.0089,-4.9931,-5.0168,-5.0089,-4.9931,-4.9931,-4.9457,-4.8839,-4.8294,-4.7744,-4.7389,-4.7421,-4.7819,-4.8777,-5.0744,-5.1353,-5.1428,-5.1324,-5.1155,-5.1056,-5.1153,-5.1507,-5.2204,-5.3536,-5.3587,-5.366,-5.4441,-5.4676,-5.471,-5.478,-5.4655,-5.4465,-5.4308,-5.4145,-5.4175,0.0,0.0,0.0,-5.5844,-5.6106,-5.6517,0.0,0.0,0.0,0.0,0.0,-6.0093,-6.0325,-6.0635,-6.0878,-6.1093,-6.0938,-6.0818,-6.0782,-6.1034,-6.1093,-6.1152,-6.1559,-6.182,-6.1784,-6.1895,-6.195,-6.195,-6.2005,-6.2005,-6.195,-6.195,-6.195,-6.195,-6.184,-6.1708,-6.1595,0.0,0.0,-4.6758,-4.7448,-4.8054,-4.8553,-4.9144,-4.9484,-4.9669,-4.9669,-4.9669,-4.9669,-4.9669,-4.9669,-4.9513,-4.9046,-4.9242,-4.9046,-4.8126,-4.8948,-4.9426,-4.9305,-4.9251,-4.8893,-4.8341,-4.8709,-4.8832,-4.8654,-4.9133,-4.9584,-4.9734,-4.9854,-5.0003,-5.0415,-4.9849,-4.9797,-5.031,-4.9797,-4.9787,-5.0073,-4.9915,-4.9931,-4.9931,-5.001,-4.9931,-4.9931,-5.001,-4.9931,-4.9931,-4.9931,-4.9457,-4.8839,-4.8294,-4.7744,-4.7421,-4.7566,-4.8241,-4.9257,-5.0711,-5.116,-5.1393,-5.1798,-5.1526,-5.1217,-5.141,-5.2043,-5.2609,-5.2495,-5.2991,-5.3287,-5.29,-5.3314,-5.3936,-5.4488,-5.4529,-5.4574,-5.4832,-5.4487,-5.4539,0.0,-5.5366,-5.5437,-5.6217,-5.6328,-5.6629,0.0,0.0,0.0,-5.8401,-5.8733,-5.931,-6.029,-6.0757,-6.1034,-6.1093,-6.1034,-6.1034,-6.1034,-6.1211,-6.127,-6.127,-6.1501,-6.1651,-6.1615,-6.182,-6.184,-6.184,-6.195,-6.195,-6.184,-6.184,-6.1784,-6.1708,-6.1651,-6.1501,-6.1386,-4.5901,-4.656,-4.7288,-4.8179,-4.8581,-4.9108,-4.9571,-4.9669,-4.9669,-4.9669,-4.9473,-4.9375,-4.9502,-4.9404,-4.9161,-4.8845,-4.9397,-4.9357,-4.8677,-4.9328,-4.931,-4.8663,-4.8639,-4.8546,-4.8385,-4.8268,-4.8356,-4.8621,-4.9098,-4.9156,-4.9057,-4.9273,-4.9535,-4.9712,-4.9427,-4.9605,-4.9953,-4.9689,-4.9693,-4.9931,-4.9852,-4.9852,-4.9931,-4.9773,-4.9852,-4.9931,-4.9931,-4.9931,-4.9868,-4.9552,-4.9015,-4.8396,-4.7893,-4.734,-4.6933,-4.7541,-4.8311,-4.9257,-5.0641,-5.1293,-5.1628,-5.1695,-5.1186,-5.0773,-5.0934,-5.1429,-5.1993,-5.242,-5.2681,-5.2942,-5.3341,-5.3694,-5.4046,-5.4586,-5.4494,-5.4441,-5.4823,-5.4608,-5.4724,-5.5698,-5.5624,-5.5729,-5.6328,-5.6383,-5.6506,-5.6878,-5.6801,0.0,-5.7823,-5.7917,-5.8391,-5.9416,-5.9846,-6.0023,-6.0023,-6.038,-6.0558,-6.0558,-6.0617,-6.0854,-6.1176,-6.0992,-6.1085,-6.1444,-6.1651,-6.1708,-6.1672,-6.182,-6.1784,-6.1708,-6.1708,-6.1615,-6.1595,-6.1501,-6.1386,-6.1328,-4.6323,-4.6873,-4.7596,-4.838,-4.8681,-4.9108,-4.9571,-4.9669,-4.9669,-4.9571,-4.9207,-4.9009,-4.9207,-4.9009,-4.8751,-4.7966,-4.901,-4.9291,-4.8769,-4.9243,-4.9135,-4.8453,-4.819,-4.8174,-4.8385,-4.7899,-4.7794,-4.8218,-4.876,-4.8867,-4.8315,-4.8845,-4.9066,-4.8922,-4.9015,-4.9291,-4.9613,-4.9613,-4.9773,-4.9852,-4.9661,-4.9773,-4.9852,-4.9693,-4.9773,-4.9931,-4.9931,-4.9931,-4.9805,-4.911,-4.8446,-4.7858,-4.7499,-4.6869,-4.6454,-4.7445,-4.8246,-4.9024,-5.0439,-5.1391,-5.1798,-5.1186,-5.0642,-5.0299,-5.0385,-5.0639,-5.1172,-5.2523,-5.2475,-5.2693,-5.4129,-5.4413,-5.4454,-5.4717,-5.4431,-5.4303,-5.4431,0.0,-5.4834,-5.5354,-5.5648,-5.5901,-5.6328,-5.6328,-5.6328,-5.6383,-5.6308,-5.6537,-5.7121,-5.7121,-5.7498,-5.8152,-5.8481,-5.8738,-5.8738,-5.9523,-5.9916,-5.9916,-6.0023,-6.0451,-6.1058,-6.0496,-6.059,-6.127,-6.1444,-6.1559,-6.1595,-6.1595,-6.1595,-6.1559,-6.1559,-6.1501,-6.1501,-6.1328,-6.127,-6.127,-4.6323,-4.6873,-4.7596,-4.838,-4.8681,-4.9108,-4.9571,-4.9669,-4.9571,-4.9079,-4.9108,-4.9108,-4.8681,-4.9009,-4.8948,-4.8287,-4.8827,-4.9047,-4.874,-4.8682,-4.8875,-4.9321,-4.8624,-4.8327,-4.8793,-4.8974,-4.9047,-4.9097,-4.85,-4.8252,-4.8289,-4.8252,-4.8252,-4.84,-4.9202,-4.9533,-4.9613,-4.9773,-4.9773,-4.9693,-4.9773,-4.9773,-4.9693,-4.9852,-4.9852,-4.9931,-4.9931,-4.9931,-4.9805,-4.911,-4.8446,-4.7858,-4.732,-4.6981,-4.6915,-4.7729,-4.8228,-4.8792,-4.9786,-5.0727,-5.1153,-5.0439,-5.0803,-5.1133,-5.0673,-5.1234,-5.1699,-5.1468,-5.1813,-5.2287,-5.2528,-5.3115,-5.377,-5.4425,-5.4494,-5.4367,-5.4239,0.0,-5.4683,-5.5053,-5.5113,-5.5413,-5.6197,-5.6049,-5.6106,-5.6383,-5.6383,-5.6399,-5.6506,-5.6506,-5.6577,-5.6684,-5.8024,-5.8738,-5.8738,-5.9523,-5.9916,-5.9916,-6.0594,-6.0986,-6.1093,-6.095,-6.1045,-6.1152,-6.127,-6.1328,-6.1386,-6.1501,-6.1501,-6.1328,-6.1328,-6.127,-6.1152,-6.1152,-6.1152,-6.1152,-4.6323,-4.6769,-4.7391,-4.828,-4.8681,-4.9108,-4.9571,-4.9669,-4.9473,-4.9009,-4.9009,-4.8909,-4.8581,-4.8397,-4.8236,-4.7894,-4.7992,-4.8068,-4.8068,-4.8311,-4.8411,-4.8268,-4.8356,-4.8611,-4.8959,-4.9202,-4.9103,-4.86,-4.8208,-4.7601,-4.6857,-4.7632,-4.7947,-4.7793,-4.9062,-4.9693,-4.9773,-4.9852,-4.9852,-4.9773,-4.9773,-4.9773,-4.9773,-4.9773,-4.9852,-4.9931,-4.9773,-4.9852,-4.9742,-4.8513,-4.8054,-4.7719,-4.6834,-4.6589,-4.6647,-4.7141,-4.7961,-4.896,-4.9758,-4.9919,-4.9907,-5.0067,-5.0193,-5.0243,-5.0086,-5.0377,-5.0832,-5.102,-5.139,-5.1873,-5.2701,-5.3149,-5.3632,-5.4391,-5.4494,-5.4431,-5.4367,-5.462,-5.4807,-5.4992,-5.5174,-5.5413,-5.5764,-5.5764,-5.5764,-5.5879,-5.5936,-5.5993,-5.6106,-5.6162,-5.6217,-5.6383,-5.7096,-5.7667,-5.8096,-5.8881,-5.9487,-5.9916,-6.0272,-6.0701,-6.1093,-6.0665,-6.0701,-6.1093,-6.1152,-6.1211,-6.1211,-6.127,-6.127,-6.1211,-6.1211,-6.1152,-6.1093,-6.1093,-6.1093,-6.1093,-4.6323,-4.6665,-4.7184,-4.8179,-4.8581,-4.8909,-4.9502,-4.9669,-4.9473,-4.9009,-4.8909,-4.8753,-4.8283,-4.7858,-4.7555,-4.71,-4.7207,-4.7193,-4.7346,-4.7969,-4.812,-4.7662,-4.8339,-4.8906,-4.9159,-4.9291,-4.8948,-4.8133,-4.8053,-4.7274,-4.599,-4.7415,-4.7933,-4.7653,-4.9079,-4.9773,-4.9931,-4.9931,-4.9852,-4.9852,-4.9693,-4.9741,-4.9852,-4.9693,-4.9773,-4.9852,-4.9693,-4.9599,-4.9332,-4.7871,-4.7446,-4.736,-4.6389,-4.6262,-4.648,-4.6791,-4.7865,-4.906,-4.9641,-4.9299,-4.9029,-4.9695,-4.9514,-4.929,-4.9471,-4.9649,-4.9939,-5.0676,-5.0838,-5.1321,-5.2839,-5.3115,-5.3425,-5.4356,0.0,-5.4494,-5.4494,-5.4745,-5.4869,-5.493,-5.4974,-5.5084,-5.5378,-5.5238,-5.5203,-5.5472,-5.5472,-5.5648,-5.5901,-5.5844,-5.6064,-5.6577,-5.6668,-5.6954,-5.756,-5.8524,-5.9309,-5.9916,-6.0094,-6.0522,-6.1093,-6.0451,-6.0522,-6.1093,-6.1093,-6.1093,-6.1093,-6.1093,-6.1093,-6.1093,-6.1093,-6.1093,-6.1093,-6.1093,-6.1093,-6.1093,-4.6769,-4.6665,-4.6846,-4.7976,-4.8179,-4.838,-4.9207,-4.96,-4.9473,-4.9009,-4.9108,-4.878,-4.749,-4.7701,-4.7481,-4.6281,-4.6853,-4.7017,-4.6698,-4.7572,-4.8243,-4.8758,-4.9088,-4.9403,-4.9852,-4.9693,-4.9268,-4.8577,-4.8213,-4.7681,-4.7092,-4.7949,-4.8372,-4.8577,-4.9458,-4.9931,-4.9931,-4.9931,-4.9773,-4.9613,-4.9852,-4.9773,-4.9613,-4.9852,-4.9773,-4.9613,-4.9613,-4.9125,-4.834,-4.7481,-4.6795,-4.6291,-4.6095,-4.634,-4.6896,-4.7471,-4.8196,-4.887,-4.887,-4.8928,-4.9018,-4.9086,-4.9297,-4.9471,-4.9505,-4.9742,-5.0011,-5.008,-5.008,-5.0528,-5.2046,-5.2321,-5.2804,-5.4253,0.0,0.0,-5.4494,-5.4494,-5.4592,-5.478,-5.4094,-5.3983,-5.5129,-5.4416,-5.4371,-5.5402,-5.5472,-5.5648,-5.5901,-5.5764,-5.6197,-5.7192,-5.7433,-5.7525,-5.7596,-5.9059,-5.9844,-5.9916,-6.0665,-6.1058,-6.1093,-6.1022,-6.1058,-6.1093,-6.1093,-6.1093,-6.1093,-6.1093,-6.1093,-6.1093,-6.1093,-6.1093,-6.1093,-6.1093,-6.1093,-6.1093,-4.6245,-4.6323,-4.6742,-4.7671,-4.8179,-4.8481,-4.9009,-4.9305,-4.9108,-4.8004,-4.8439,-4.8419,-4.7107,-4.6991,-4.6907,-4.6354,-4.6446,-4.6577,-4.6609,-4.7624,-4.8477,-4.914,-4.9334,-4.9533,-4.9693,-4.9372,-4.8898,-4.8213,-4.7862,-4.7441,-4.6841,-4.7791,-4.8292,-4.8482,-4.9299,-4.9773,-4.9931,-4.9773,-4.9773,-4.9773,-4.9852,-4.9852,-4.9773,-4.9741,-4.9693,-4.9613,-4.9291,-4.8885,-4.8357,-4.745,-4.7069,-4.6824,-4.6383,-4.6942,-4.7991,-4.8696,-4.9187,-4.9375,-4.9029,-4.8956,-4.9018,-4.9018,-4.9168,-4.935,-4.9471,-4.9649,-4.986,-5.0011,-5.0355,-5.1011,-5.2046,-5.2632,-5.3287,-5.4356,0.0,-5.4494,-5.4494,-5.4494,-5.4529,-5.4592,-5.4316,-5.4247,-5.471,-5.4468,-5.4433,-5.4834,-5.4869,-5.5113,-5.5648,-5.6454,-5.7107,-5.7504,-5.8524,-5.9023,-5.9023,-5.963,-6.0165,-6.0665,-6.095,-6.1093,-6.1093,-6.1093,-6.1093,-6.1093,-6.1093,-6.1093,-6.1093,-6.1093,-6.1093,-6.1093,-6.1093,-6.1093,-6.1093,-6.1093,-6.1093,-6.1093,-4.5715,-4.6007,-4.6533,-4.7157,-4.7773,-4.8308,-4.881,-4.8909,-4.8624,-4.7825,-4.8125,-4.7989,-4.6743,-4.6624,-4.6489,-4.6195,-4.6308,-4.6403,-4.6668,-4.7764,-4.8687,-4.934,-4.9533,-4.9613,-4.9613,-4.9241,-4.8655,-4.7973,-4.7916,-4.7588,-4.6942,-4.8102,-4.8604,-4.8636,-4.9393,-4.9773,-4.9931,-4.9773,-4.9773,-4.9931,-4.9931,-4.9726,-4.9537,-4.9599,-4.9376,-4.9059,-4.8767,-4.8537,-4.8136,-4.7278,-4.7032,-4.7075,-4.6924,-4.7948,-4.9325,-4.9858,-4.9984,-4.9907,-4.9429,-4.9187,-4.9018,-4.9018,-4.9107,-4.9229,-4.9471,-4.959,-4.9767,-4.9952,-5.0424,-5.1045,-5.2046,-5.2666,-5.3356,-5.4356,-5.4494,-5.4494,-5.4494,-5.4494,-5.4494,-5.4494,-5.4322,-5.4253,-5.4494,-5.4287,-5.4253,-5.4494,-5.462,-5.493,-5.5531,-5.6489,-5.7306,-5.784,-5.8873,-5.9656,-6.0214,-6.0214,-6.0558,-6.1093,-6.1093,-6.1093,-6.1093,-6.1093,-6.1093,-6.1093,-6.1093,-6.1093,-6.1093,-6.1093,-6.1093,-6.1093,-6.1093,-6.1093,-6.1093,-6.1093,-6.1093,-6.1093,-4.5287,-4.5609,-4.6112,-4.6323,-4.6873,-4.7699,-4.871,-4.8481,-4.8254,-4.8606,-4.8229,-4.7452,-4.6252,-4.6547,-4.6471,-4.5561,-4.6135,-4.6668,-4.6931,-4.7934,-4.8852,-4.9582,-4.9582,-4.9582,-4.9613,-4.921,-4.8655,-4.8004,-4.8379,-4.8266,-4.7619,-4.8786,-4.9291,-4.9372,-4.9693,-4.9931,-4.9931,-4.99,-4.99,-4.99,-4.99,-4.9332,-4.864,-4.933,-4.8934,-4.7973,-4.7973,-4.7781,-4.7484,-4.6747,-4.6504,-4.6728,-4.7858,-4.9354,-5.0727,-5.0925,-5.0582,-5.0101,-5.0101,-4.956,-4.9018,-4.9018,-4.9107,-4.9229,-4.9471,-4.959,-4.9767,-4.9952,-5.0011,-5.0459,-5.1942,-5.2218,-5.2735,-5.4253,-5.4494,-5.4494,-5.4494,-5.4494,-5.4494,-5.4494,-5.3873,-5.3701,-5.4425,-5.3839,-5.3701,-5.446,-5.4807,-5.5234,-5.5648,-5.5822,-5.6644,-5.8273,-5.8308,-5.9136,-6.0782,-6.1034,-6.1093,-6.1093,-6.1093,-6.1093,-6.1093,-6.1093,-6.1093,-6.1093,-6.1093,-6.1093,-6.1093,-6.1093,-6.1093,-6.1093,-6.1093,-6.1093,-6.1093,-6.1093,-6.1093,-6.1093,-4.5688,-4.5901,-4.6323,-4.7157,-4.7494,-4.7699,-4.828,-4.8004,-4.7679,-4.7334,-4.7275,-4.6899,-4.5912,-4.608,-4.6098,-4.5805,-4.6225,-4.6931,-4.788,-4.8469,-4.886,-4.8684,-4.8684,-4.8823,-4.9128,-4.8419,-4.8132,-4.8409,-4.8512,-4.8512,-4.8327,-4.9004,-4.9291,-4.9259,-4.9613,-4.9773,-4.99,-4.9269,-4.9048,-4.9141,-4.8699,-4.8229,-4.7917,-4.7919,-4.7933,-4.7911,-4.7256,-4.7379,-4.7725,-4.6975,-4.6919,-4.7566,-4.9214,-5.0293,-5.1026,-5.1597,-5.1729,-5.142,-5.0371,-4.9932,-4.9627,-4.912,-4.8984,-4.9107,-4.9229,-4.9411,-4.959,-4.9801,-5.0745,-5.1701,-5.2149,-5.308,-5.3977,-5.4425,-5.4494,-5.4494,-5.4494,-5.4494,-5.4494,-5.4494,-5.4322,-5.4253,-5.4494,-5.4322,-5.4316,-5.4807,-5.5234,-5.5472,-5.5566,-5.6823,-5.7812,-5.8273,-5.9335,-6.0149,-6.0635,-6.0818,-6.0878,-6.0878,-6.0793,-6.0732,-6.0732,-6.0818,-6.0878,-6.0878,-6.1034,-6.1093,-6.1093,-6.1093,-6.1093,-6.1093,-6.1093,-6.1093,-6.1093,-6.1093,-6.1093,-6.1093,-4.5688,-4.6112,-4.6533,-4.695,-4.7391,-4.7717,-4.7769,-4.7438,-4.703,-4.656,-4.6401,-4.6139,-4.5515,-4.5734,-4.5895,-4.5895,-4.658,-4.7249,-4.7934,-4.8635,-4.8686,-4.8053,-4.7853,-4.804,-4.8593,-4.7916,-4.7927,-4.8604,-4.8604,-4.8635,-4.88,-4.9047,-4.921,-4.9291,-4.9533,-4.9536,-4.9332,-4.8922,-4.8685,-4.8446,-4.7991,-4.7491,-4.7042,-4.706,-4.7091,-4.6947,-4.6436,-4.7026,-4.798,-4.6929,-4.7348,-4.8482,-4.9692,-5.0525,-5.1125,-5.1932,-5.2065,-5.1691,-5.0777,-5.0304,-4.9898,-4.9187,-4.9018,-4.908,-4.9168,-4.935,-4.953,-4.9649,-5.0789,-5.1873,-5.2183,-5.3156,-5.4086,-5.446,-5.4431,-5.4431,-5.4494,-5.4494,-5.4494,-5.4494,-5.4494,-5.4494,-5.4494,-5.4494,-5.4683,-5.5018,-5.5413,-5.5731,-5.6106,-5.7141,-5.8012,-5.8613,-5.9531,-6.0229,-6.0609,-6.0671,-6.0696,-6.0782,-6.0671,-6.0671,-6.0793,-6.0818,-6.0878,-6.0938,-6.1034,-6.1093,-6.1093,-6.1093,-6.1093,-6.1093,-6.1093,-6.1093,-6.1093,-6.1093,-6.1093,-6.1093,-4.5715,-4.635,-4.6665,-4.6218,-4.6922,-4.7448,-4.7191,-4.6651,-4.6278,-4.6064,-4.5609,-4.5289,-4.5103,-4.5504,-4.5895,-4.5895,-4.6989,-4.7593,-4.7593,-4.8407,-4.8511,-4.7558,-4.7009,-4.7167,-4.788,-4.7608,-4.7865,-4.8604,-4.8604,-4.8718,-4.8996,-4.8996,-4.9078,-4.9291,-4.947,-4.9173,-4.8608,-4.8685,-4.8351,-4.7707,-4.7491,-4.6854,-4.6171,-4.6563,-4.6315,-4.5665,-4.5665,-4.692,-4.8418,-4.7157,-4.789,-4.9392,-4.969,-5.0389,-5.1258,-5.2065,-5.1826,-5.1285,-5.1251,-5.0676,-4.9932,-4.9357,-4.912,-4.8984,-4.9168,-4.9419,-4.9633,-4.9752,-5.0548,-5.1425,-5.2123,-5.2819,-5.3479,-5.4328,-5.4303,-5.4239,-5.4431,-5.4494,-5.4494,-5.4494,-5.4494,-5.4494,-5.4494,-5.4557,-5.4745,-5.5199,-5.5413,-5.5906,-5.6905,-5.6964,-5.7645,-5.9056,-5.9232,-5.9717,-6.0547,-6.0458,-6.0547,-6.0818,-6.0671,-6.0732,-6.1034,-6.0878,-6.0878,-6.1093,-6.1093,-6.1093,-6.1093,-6.1093,-6.1093,-6.1093,-6.1093,-6.1093,-6.1093,-6.1093,-6.1093,-6.1093,-4.656,-4.635,-4.6245,-4.7184,-4.7003,-4.6745,-4.6835,-4.6162,-4.5678,-4.5817,-4.5514,-4.5289,-4.5103,-4.523,-4.5413,-4.5895,-4.7076,-4.7764,-4.7624,-4.7978,-4.78,-4.685,-4.6251,-4.6189,-4.6899,-4.6819,-4.7404,-4.8604,-4.8604,-4.8604,-4.8718,-4.8914,-4.8996,-4.9047,-4.876,-4.8607,-4.8545,-4.7491,-4.6957,-4.6768,-4.6159,-4.5622,-4.5197,-4.5246,-4.5556,-4.582,-4.582,-4.7153,-4.8871,-4.9515,-4.9719,-4.9953,-5.1028,-5.1597,-5.2031,-5.2101,-5.2066,-5.1961,-5.1386,-5.0676,-5.0202,-5.0642,-4.9864,-4.9018,-4.908,-4.9705,-5.0359,-5.042,-5.1245,-5.2157,-5.2757,-5.345,-5.3969,-5.4076,-5.4175,-5.4239,-5.4239,-5.4367,-5.4494,-5.4494,-5.4494,-5.4494,-5.4494,-5.4834,-5.5079,-5.5199,-5.5472,-5.5754,-5.5871,-5.6937,-5.7806,-5.828,-5.9479,-6.0219,-6.0458,-6.0396,-6.0547,-6.0818,-6.0547,-6.0583,-6.0732,-6.0757,-6.0782,-6.0878,-6.1034,-6.1093,-6.1093,-6.1093,-6.1093,-6.1093,-6.1093,-6.1152,-6.127,-6.1152,-6.1152,-6.127,-4.6977,-4.6769,-4.6374,-4.7003,-4.6901,-4.6512,-4.5801,-4.5539,-4.5288,-4.5081,-4.5091,-4.5044,-4.4982,-4.5046,-4.5321,-4.5895,-4.6872,-4.7443,-4.7001,-4.7589,-4.7349,-4.6015,-4.5694,-4.5895,-4.6573,-4.6603,-4.725,-4.8604,-4.8604,-4.8718,-4.88,-4.88,-4.8728,-4.85,-4.832,-4.7918,-4.7387,-4.6743,-4.6391,-4.615,-4.5656,-4.5352,-4.5204,-4.5055,-4.5459,-4.605,-4.6247,-4.7542,-4.9245,-5.0549,-5.0656,-5.0357,-5.0961,-5.1161,-5.1223,-5.1396,-5.1497,-5.1361,-5.0621,-5.0483,-5.0514,-5.0582,-5.0308,-5.0067,-5.0193,-5.0379,-5.07,-5.1199,-5.2069,-5.2846,-5.3066,-5.3661,-5.411,-5.411,-5.411,-5.4175,-5.4303,-5.4431,-5.4494,-5.4494,-5.4494,-5.4529,-5.4655,-5.5278,-5.5558,-5.5234,-5.6139,-5.6656,-5.6596,-5.7719,-5.8589,-5.9126,-5.9875,-6.036,-6.0609,-6.036,-6.0423,-6.0818,-6.0547,-6.0485,-6.0696,-6.0757,-6.0878,-6.0938,-6.1034,-6.1093,-6.1093,-6.1093,-6.1093,-6.1093,-6.1093,-6.1152,-6.127,-6.1152,-6.1152,-6.127,-4.6943,-4.684,-4.6414,-4.6321,-4.6528,-4.6237,-4.4719,-4.4857,-4.4892,-4.4359,-4.4612,-4.4797,-4.4583,-4.4862,-4.523,-4.5866,-4.652,-4.683,-4.6436,-4.7191,-4.7009,-4.5568,-4.5571,-4.5957,-4.6757,-4.6757,-4.7373,-4.8604,-4.8604,-4.8656,-4.8728,-4.8533,-4.8194,-4.7787,-4.7614,-4.706,-4.6171,-4.6228,-4.6076,-4.575,-4.5604,-4.5594,-4.5583,-4.5341,-4.5778,-4.651,-4.6961,-4.8047,-4.9627,-5.0876,-5.0958,-5.0493,-5.0593,-5.0326,-5.0152,-5.0693,-5.066,-5.0425,-4.9923,-5.0188,-5.052,-5.0183,-5.048,-5.1011,-5.1575,-5.1293,-5.1145,-5.1919,-5.2654,-5.3129,-5.3181,-5.3498,-5.3844,-5.4011,-5.398,-5.4045,-5.4367,-5.4431,-5.4431,-5.4529,-5.4529,-5.4655,-5.4842,-5.5661,-5.602,-5.5504,-5.6921,-5.779,-5.779,-5.8562,-5.9362,-6.0184,-6.0164,-6.036,-6.0757,-6.036,-6.0325,-6.0696,-6.0485,-6.0547,-6.0782,-6.0782,-6.0878,-6.1093,-6.1093,-6.1093,-6.1093,-6.1093,-6.1093,-6.1093,-6.1093,-6.1211,-6.1328,-6.127,-6.1211,-6.1211,-4.6468,-4.5668,-4.4858,-4.5785,-4.533,-4.4746,-4.4315,-4.4427,-4.4321,-4.3804,-4.4397,-4.449,-4.3804,-4.4209,-4.4862,-4.5747,-4.5962,-4.6267,-4.6766,-4.6272,-4.6049,-4.6449,-4.5895,-4.6172,-4.7434,-4.7465,-4.7835,-4.8604,-4.8604,-4.8327,-4.7824,-4.7742,-4.7373,-4.6775,-4.622,-4.6005,-4.614,-4.5578,-4.5446,-4.5531,-4.5531,-4.5696,-4.6091,-4.5422,-4.6241,-4.7719,-4.7945,-4.8756,-4.9875,-5.1052,-5.0693,-4.9957,-5.1026,-5.0994,-5.0693,-5.1227,-5.0593,-4.9856,-5.0425,-4.9852,-4.9375,-5.0553,-5.0075,-4.9859,-5.1953,-5.2391,-5.2323,-5.249,-5.2209,-5.2272,-5.3375,-5.3171,-5.3003,-5.3516,-5.3685,-5.3849,-5.4045,-5.4175,-5.4303,-5.4494,-5.4655,-5.4842,-5.493,-5.5811,-5.6414,-5.6395,-5.7298,-5.779,-5.779,-5.8562,-5.9081,-5.9338,-6.0008,-6.0396,-6.0458,-6.0396,-6.0297,-6.0234,-6.0297,-6.0547,-6.0782,-6.0782,-6.0878,-6.1093,-6.1093,-6.1093,-6.1093,-6.1093,-6.1093,-6.1093,-6.1093,-6.127,-6.1559,-6.1672,-6.1615,-6.1595,-4.5678,-4.5321,-4.4827,-4.5414,-4.5204,-4.4733,-4.3987,-4.3903,-4.3993,-4.4209,-4.449,-4.4397,-4.4115,-4.4088,-4.4413,-4.5403,-4.5486,-4.5627,-4.6001,-4.5769,-4.5557,-4.5464,-4.5557,-4.6049,-4.7034,-4.7404,-4.7927,-4.8604,-4.8604,-4.8266,-4.7619,-4.7619,-4.7034,-4.6018,-4.5711,-4.5526,-4.5459,-4.5254,-4.5309,-4.5531,-4.5604,-4.5982,-4.6485,-4.5751,-4.6823,-4.8675,-4.9277,-4.9863,-5.0472,-5.0684,-5.0425,-5.0193,-5.1123,-5.0957,-5.0491,-5.1048,-5.0817,-5.0355,-5.0255,-5.0259,-5.0392,-5.0726,-5.0486,-5.048,-5.2061,-5.2465,-5.2632,-5.327,-5.2823,-5.2618,-5.3513,-5.3105,-5.2802,-5.3482,-5.3651,-5.3783,-5.411,-5.411,-5.4175,-5.4431,-5.4592,-5.4745,-5.5079,-5.5872,-5.6449,-5.6596,-5.7754,-5.8492,-5.8492,-5.9194,-5.9678,-5.9867,-6.0121,-6.0297,-6.0485,-6.0297,-6.0234,-6.0234,-6.0234,-6.0423,-6.0696,-6.0757,-6.0878,-6.1093,-6.1093,-6.1093,-6.1093,-6.1093,-6.1093,-6.1093,-6.1093,-6.1211,-6.1444,-6.1651,-6.1651,-6.1651]},{"header":{"parameterUnit":"m.s-1","parameterCategory":1,"la1":30.6,"la2":28.766,"lo1":-90.7593,"lo2":-88.6598,"dy":0.0162,"dx":0.0183,"nx":116,"ny":114,"refTime":"2023-03-17T00:00:00:Z","depth":0,"parameterNumber":3,"parameterNumberName":"V-component_of_WINDS"},"data":[0.0,0.0,0.0,0.0,0.0,0.0,0.0,0.0,0.0,0.0,0.0,0.0,0.0,0.0,0.0,0.0,0.0,0.0,0.0,0.0,0.0,0.0,0.0,0.0,0.0,0.0,0.0,0.0,0.0,0.0,0.0,0.0,0.0,0.0,0.0,0.0,0.0,0.0,0.0,0.0,0.0,0.0,0.0,0.0,0.0,0.0,0.0,0.0,0.0,0.0,0.0,0.0,0.0,0.0,0.0,0.0,0.0,0.0,0.0,0.0,0.0,0.0,0.0,0.0,0.0,0.0,0.0,0.0,0.0,0.0,0.0,0.0,0.0,0.0,0.0,0.0,0.0,0.0,0.0,0.0,0.0,0.0,0.0,0.0,0.0,0.0,0.0,0.0,0.0,0.0,0.0,0.0,0.0,0.0,0.0,0.0,0.0,0.0,0.0,0.0,0.0,0.0,0.0,0.0,0.0,0.0,0.0,0.0,0.0,0.0,0.0,0.0,0.0,0.0,0.0,0.0,0.0,0.0,0.0,0.0,0.0,0.0,0.0,0.0,0.0,0.0,0.0,0.0,0.0,0.0,0.0,0.0,0.0,0.0,0.0,0.0,0.0,0.0,0.0,0.0,0.0,0.0,0.0,0.0,0.0,0.0,0.0,0.0,0.0,0.0,0.0,0.0,0.0,0.0,0.0,0.0,0.0,0.0,0.0,0.0,0.0,0.0,0.0,0.0,0.0,0.0,0.0,0.0,0.0,0.0,0.0,0.0,0.0,0.0,0.0,0.0,0.0,0.0,0.0,0.0,0.0,0.0,0.0,0.0,0.0,0.0,0.0,0.0,0.0,0.0,0.0,0.0,0.0,0.0,0.0,0.0,0.0,0.0,0.0,0.0,0.0,0.0,0.0,0.0,0.0,0.0,0.0,0.0,0.0,0.0,0.0,0.0,0.0,0.0,0.0,0.0,0.0,0.0,0.0,0.0,0.0,0.0,0.0,0.0,0.0,0.0,0.0,0.0,0.0,0.0,0.0,0.0,0.0,0.0,0.0,0.0,0.0,0.0,0.0,0.0,0.0,0.0,0.0,0.0,0.0,0.0,0.0,0.0,0.0,0.0,0.0,0.0,0.0,0.0,0.0,0.0,0.0,0.0,0.0,0.0,0.0,0.0,0.0,0.0,0.0,0.0,0.0,0.0,0.0,0.0,0.0,0.0,0.0,0.0,0.0,0.0,0.0,0.0,0.0,0.0,0.0,0.0,0.0,0.0,0.0,0.0,0.0,0.0,0.0,0.0,0.0,0.0,0.0,0.0,0.0,0.0,0.0,0.0,0.0,0.0,0.0,0.0,0.0,0.0,0.0,0.0,0.0,0.0,0.0,0.0,0.0,0.0,0.0,0.0,0.0,0.0,0.0,0.0,0.0,0.0,0.0,0.0,0.0,0.0,0.0,0.0,0.0,0.0,0.0,0.0,0.0,0.0,0.0,0.0,0.0,0.0,0.0,0.0,0.0,0.0,0.0,0.0,0.0,0.0,0.0,0.0,0.0,0.0,0.0,0.0,0.0,0.0,0.0,0.0,0.0,0.0,0.0,0.0,0.0,0.0,0.0,0.0,0.0,0.0,0.0,0.0,0.0,0.0,0.0,0.0,0.0,0.0,0.0,0.0,0.0,0.0,0.0,0.0,0.0,0.0,0.0,0.0,0.0,0.0,0.0,0.0,0.0,0.0,0.0,0.0,0.0,0.0,0.0,0.0,0.0,0.0,0.0,0.0,0.0,0.0,0.0,0.0,0.0,0.0,0.0,0.0,0.0,0.0,0.0,0.0,0.0,0.0,0.0,0.0,0.0,0.0,0.0,0.0,0.0,0.0,0.0,0.0,0.0,0.0,0.0,0.0,0.0,0.0,0.0,0.0,0.0,0.0,0.0,0.0,0.0,0.0,0.0,0.0,0.0,0.0,0.0,0.0,0.0,0.0,0.0,0.0,0.0,0.0,0.0,0.0,0.0,0.0,0.0,0.0,0.0,0.0,0.0,0.0,0.0,0.0,0.0,0.0,0.0,0.0,0.0,0.0,0.0,0.0,0.0,0.0,0.0,0.0,0.0,0.0,0.0,0.0,0.0,0.0,0.0,0.0,0.0,0.0,0.0,0.0,0.0,0.0,0.0,0.0,0.0,0.0,0.0,0.0,0.0,0.0,0.0,0.0,0.0,0.0,0.0,0.0,0.0,0.0,0.0,0.0,0.0,0.0,0.0,0.0,0.0,0.0,0.0,0.0,0.0,0.0,0.0,0.0,0.0,0.0,0.0,0.0,0.0,0.0,0.0,0.0,0.0,0.0,0.0,0.0,0.0,0.0,0.0,0.0,0.0,0.0,0.0,0.0,0.0,0.0,0.0,0.0,0.0,0.0,0.0,0.0,0.0,0.0,0.0,0.0,0.0,0.0,0.0,0.0,0.0,0.0,0.0,0.0,0.0,0.0,0.0,0.0,0.0,0.0,0.0,0.0,0.0,0.0,0.0,0.0,0.0,0.0,0.0,0.0,0.0,0.0,0.0,0.0,0.0,0.0,0.0,0.0,0.0,0.0,0.0,0.0,0.0,0.0,0.0,0.0,0.0,0.0,0.0,0.0,0.0,0.0,0.0,0.0,0.0,0.0,0.0,0.0,0.0,0.0,0.0,0.0,0.0,0.0,0.0,0.0,0.0,0.0,0.0,0.0,0.0,0.0,0.0,0.0,0.0,0.0,0.0,0.0,0.0,0.0,0.0,0.0,0.0,0.0,0.0,0.0,0.0,0.0,0.0,0.0,0.0,0.0,0.0,0.0,0.0,0.0,0.0,0.0,0.0,0.0,0.0,0.0,0.0,0.0,0.0,0.0,0.0,0.0,0.0,0.0,0.0,0.0,0.0,0.0,0.0,0.0,0.0,0.0,0.0,0.0,0.0,0.0,0.0,0.0,0.0,0.0,0.0,0.0,0.0,0.0,0.0,0.0,0.0,0.0,0.0,0.0,0.0,0.0,0.0,0.0,0.0,0.0,0.0,0.0,0.0,0.0,0.0,0.0,0.0,0.0,0.0,0.0,0.0,0.0,0.0,0.0,0.0,0.0,0.0,0.0,0.0,0.0,0.0,0.0,0.0,0.0,0.0,0.0,0.0,0.0,0.0,0.0,0.0,0.0,0.0,0.0,0.0,0.0,0.0,0.0,0.0,0.0,0.0,0.0,0.0,0.0,0.0,0.0,0.0,0.0,0.0,0.0,0.0,0.0,0.0,0.0,0.0,0.0,0.0,0.0,0.0,0.0,0.0,0.0,0.0,0.0,0.0,0.0,0.0,0.0,0.0,0.0,0.0,0.0,0.0,0.0,0.0,0.0,0.0,0.0,0.0,0.0,0.0,0.0,0.0,0.0,0.0,0.0,0.0,0.0,0.0,0.0,0.0,0.0,0.0,0.0,0.0,0.0,0.0,0.0,0.0,0.0,0.0,0.0,0.0,0.0,0.0,0.0,0.0,0.0,0.0,0.0,0.0,0.0,0.0,0.0,0.0,0.0,0.0,0.0,0.0,0.0,0.0,0.0,0.0,0.0,0.0,0.0,0.0,0.0,0.0,0.0,0.0,0.0,0.0,0.0,0.0,0.0,0.0,0.0,0.0,0.0,0.0,0.0,0.0,0.0,0.0,0.0,0.0,0.0,0.0,0.0,0.0,0.0,0.0,0.0,0.0,0.0,0.0,0.0,0.0,0.0,0.0,0.0,0.0,0.0,0.0,0.0,0.0,0.0,0.0,0.0,0.0,0.0,0.0,0.0,0.0,0.0,0.0,0.0,0.0,0.0,0.0,0.0,0.0,0.0,0.0,0.0,0.0,0.0,0.0,0.0,0.0,0.0,0.0,0.0,0.0,0.0,0.0,0.0,0.0,0.0,0.0,0.0,0.0,0.0,0.0,0.0,0.0,0.0,0.0,0.0,0.0,0.0,0.0,0.0,0.0,0.0,0.0,0.0,0.0,0.0,0.0,0.0,0.0,0.0,0.0,0.0,0.0,0.0,0.0,0.0,0.0,0.0,0.0,0.0,0.0,0.0,0.0,0.0,0.0,0.0,0.0,0.0,0.0,0.0,0.0,0.0,0.0,0.0,0.0,0.0,0.0,0.0,0.0,0.0,0.0,0.0,0.0,0.0,0.0,0.0,0.0,0.0,0.0,0.0,0.0,0.0,0.0,0.0,0.0,0.0,0.0,0.0,0.0,0.0,0.0,0.0,0.0,0.0,0.0,0.0,0.0,0.0,0.0,0.0,0.0,0.0,0.0,0.0,0.0,0.0,0.0,0.0,0.0,0.0,0.0,0.0,0.0,0.0,0.0,0.0,0.0,0.0,0.0,0.0,0.0,0.0,0.0,0.0,0.0,0.0,0.0,0.0,0.0,0.0,0.0,0.0,0.0,0.0,0.0,0.0,0.0,0.0,0.0,0.0,0.0,0.0,0.0,0.0,0.0,0.0,0.0,0.0,0.0,0.0,0.0,0.0,0.0,0.0,0.0,0.0,0.0,0.0,0.0,0.0,0.0,0.0,0.0,0.0,0.0,0.0,0.0,0.0,0.0,0.0,0.0,0.0,0.0,0.0,0.0,0.0,0.0,0.0,0.0,0.0,0.0,0.0,0.0,0.0,0.0,0.0,0.0,0.0,0.0,0.0,0.0,0.0,0.0,0.0,0.0,0.0,0.0,0.0,0.0,0.0,0.0,0.0,0.0,0.0,0.0,0.0,0.0,0.0,0.0,0.0,0.0,0.0,0.0,0.0,0.0,0.0,0.0,0.0,0.0,0.0,0.0,0.0,0.0,0.0,0.0,0.0,0.0,0.0,0.0,0.0,0.0,0.0,0.0,0.0,0.0,0.0,0.0,0.0,0.0,0.0,0.0,0.0,0.0,0.0,0.0,0.0,0.0,0.0,0.0,0.0,0.0,0.0,0.0,0.0,0.0,0.0,0.0,0.0,0.0,0.0,0.0,0.0,0.0,0.0,0.0,0.0,0.0,0.0,0.0,0.0,0.0,0.0,0.0,0.0,0.0,0.0,0.0,0.0,0.0,0.0,0.0,0.0,0.0,0.0,0.0,0.0,0.0,0.0,0.0,0.0,0.0,0.0,0.0,0.0,0.0,0.0,0.0,0.0,0.0,0.0,0.0,0.0,0.0,0.0,0.0,0.0,0.0,0.0,0.0,0.0,0.0,0.0,0.0,0.0,0.0,0.0,0.0,0.0,0.0,0.0,0.0,0.0,0.0,0.0,0.0,0.0,0.0,0.0,0.0,0.0,0.0,0.0,0.0,0.0,0.0,0.0,0.0,0.0,0.0,0.0,0.0,0.0,0.0,0.0,0.0,0.0,0.0,0.0,0.0,0.0,0.0,0.0,0.0,0.0,0.0,0.0,0.0,0.0,0.0,0.0,0.0,0.0,0.0,0.0,0.0,0.0,0.0,0.0,0.0,0.0,0.0,0.0,0.0,0.0,0.0,0.0,0.0,0.0,0.0,0.0,0.0,0.0,0.0,0.0,0.0,0.0,0.0,0.0,0.0,0.0,0.0,0.0,0.0,0.0,0.0,0.0,0.0,0.0,0.0,0.0,0.0,0.0,0.0,0.0,0.0,0.0,0.0,0.0,0.0,0.0,0.0,0.0,0.0,0.0,0.0,0.0,0.0,0.0,0.0,0.0,0.0,0.0,0.0,0.0,0.0,0.0,0.0,0.0,0.0,0.0,0.0,0.0,0.0,0.0,0.0,0.0,0.0,0.0,0.0,0.0,0.0,0.0,0.0,0.0,0.0,0.0,0.0,0.0,0.0,0.0,0.0,0.0,0.0,0.0,0.0,0.0,0.0,0.0,0.0,0.0,0.0,0.0,0.0,0.0,0.0,0.0,0.0,0.0,0.0,0.0,0.0,0.0,0.0,0.0,0.0,0.0,0.0,0.0,0.0,0.0,0.0,0.0,0.0,0.0,0.0,0.0,0.0,0.0,0.0,0.0,0.0,0.0,0.0,0.0,0.0,0.0,0.0,0.0,0.0,0.0,0.0,0.0,0.0,0.0,0.0,0.0,0.0,0.0,0.0,0.0,0.0,0.0,-3.1517,-3.0811,0.0,0.0,0.0,0.0,0.0,0.0,0.0,0.0,0.0,0.0,0.0,0.0,0.0,0.0,0.0,0.0,0.0,0.0,0.0,0.0,0.0,0.0,0.0,0.0,0.0,0.0,0.0,0.0,0.0,0.0,0.0,0.0,0.0,0.0,0.0,0.0,0.0,0.0,-5.1809,-5.1847,-5.1761,-5.2149,-5.2339,-5.2378,0.0,0.0,0.0,0.0,0.0,0.0,0.0,0.0,0.0,0.0,0.0,0.0,0.0,0.0,0.0,0.0,0.0,0.0,0.0,0.0,0.0,0.0,0.0,0.0,0.0,0.0,0.0,0.0,0.0,0.0,0.0,0.0,0.0,0.0,0.0,0.0,0.0,0.0,0.0,0.0,0.0,0.0,0.0,0.0,0.0,0.0,0.0,0.0,0.0,0.0,0.0,0.0,0.0,0.0,0.0,0.0,0.0,0.0,0.0,0.0,0.0,0.0,0.0,0.0,0.0,0.0,0.0,0.0,0.0,0.0,-3.1788,-3.1127,0.0,0.0,0.0,0.0,0.0,0.0,0.0,0.0,0.0,0.0,0.0,0.0,0.0,0.0,0.0,0.0,0.0,0.0,0.0,0.0,0.0,0.0,0.0,0.0,-4.4976,-4.4676,-4.5284,-4.5677,0.0,0.0,0.0,0.0,0.0,0.0,0.0,-4.9103,-5.0788,-5.2605,-5.1696,-5.1475,-5.1764,-5.2012,-5.1703,-5.0984,-5.2543,0.0,0.0,0.0,0.0,0.0,0.0,0.0,0.0,0.0,0.0,0.0,0.0,0.0,0.0,0.0,0.0,0.0,0.0,0.0,0.0,0.0,0.0,0.0,0.0,0.0,0.0,0.0,0.0,0.0,0.0,0.0,0.0,0.0,0.0,0.0,0.0,0.0,0.0,0.0,0.0,0.0,0.0,0.0,0.0,0.0,0.0,0.0,0.0,0.0,0.0,0.0,0.0,0.0,0.0,0.0,0.0,0.0,0.0,0.0,0.0,0.0,0.0,0.0,-3.0706,-3.0979,-3.155,-3.2038,-3.2317,-3.2166,-3.2126,-3.1615,-3.0805,-2.9472,0.0,0.0,0.0,0.0,0.0,0.0,0.0,0.0,0.0,0.0,0.0,0.0,0.0,0.0,0.0,0.0,0.0,0.0,0.0,0.0,0.0,-4.5091,-4.5588,-4.5752,-4.6027,-4.5987,0.0,0.0,0.0,0.0,0.0,0.0,0.0,-5.109,-5.2236,-5.2634,-5.2194,-5.2194,-5.2682,-5.1089,-5.0291,-5.021,-5.0137,-5.1424,-5.3552,0.0,0.0,0.0,0.0,0.0,0.0,0.0,0.0,0.0,0.0,0.0,0.0,0.0,0.0,0.0,0.0,0.0,0.0,0.0,0.0,0.0,0.0,0.0,0.0,0.0,0.0,0.0,0.0,0.0,0.0,0.0,0.0,0.0,0.0,0.0,0.0,0.0,0.0,0.0,0.0,0.0,-3.9583,-3.853,0.0,0.0,0.0,0.0,0.0,0.0,0.0,0.0,0.0,0.0,0.0,0.0,0.0,-3.0367,-3.0391,-3.0975,-3.1183,-3.1,-3.1419,-3.2166,-3.3138,-3.2895,-3.3136,-3.3878,-3.318,0.0,-3.1629,-3.0698,0.0,0.0,0.0,0.0,0.0,0.0,0.0,0.0,0.0,0.0,0.0,0.0,0.0,0.0,0.0,0.0,0.0,0.0,0.0,0.0,0.0,-4.7049,-4.7732,-4.8067,-4.8555,-4.8615,-4.8177,-4.7992,0.0,0.0,0.0,0.0,-4.9977,-5.1822,-5.2804,-5.289,-5.2981,-5.2888,-5.2632,-5.2308,-5.2168,-5.2202,-5.1523,-5.1945,-5.3076,-5.32,0.0,0.0,0.0,0.0,0.0,0.0,0.0,0.0,0.0,0.0,0.0,0.0,0.0,0.0,0.0,0.0,0.0,0.0,0.0,0.0,0.0,0.0,0.0,0.0,0.0,0.0,0.0,0.0,0.0,0.0,0.0,0.0,0.0,0.0,0.0,0.0,0.0,0.0,0.0,-3.9914,-3.8724,-3.7175,-3.7524,-3.733,0.0,0.0,0.0,0.0,0.0,0.0,0.0,0.0,0.0,-3.0183,-3.0265,-3.039,-3.0558,-3.1487,-3.2041,-3.2233,-3.2534,-3.3203,-3.4119,-3.401,-3.4273,-3.4845,-3.4009,-3.3617,-3.3112,-3.0995,-3.0052,-3.0067,0.0,0.0,0.0,0.0,-2.6169,-2.5201,0.0,0.0,0.0,0.0,0.0,0.0,0.0,0.0,0.0,0.0,0.0,0.0,-4.7818,-4.8889,-4.9812,-5.0245,-5.0636,-5.0781,-5.0691,-4.9896,0.0,0.0,0.0,-5.0211,-5.1048,-5.2363,-5.3084,-5.315,-5.3315,-5.3184,-5.2756,-5.3487,-5.3982,-5.4171,-5.3319,-5.294,-5.2994,-5.3975,-5.4117,-5.3736,0.0,0.0,0.0,0.0,0.0,0.0,0.0,0.0,0.0,0.0,0.0,0.0,0.0,0.0,0.0,0.0,0.0,0.0,0.0,0.0,0.0,0.0,0.0,0.0,0.0,0.0,0.0,0.0,0.0,0.0,0.0,0.0,0.0,0.0,0.0,0.0,0.0,-3.9295,-3.8122,-3.6102,-3.6068,-3.5683,0.0,0.0,0.0,0.0,0.0,0.0,-3.1505,-3.1137,-3.0662,-3.0139,-3.0245,-3.0727,-3.1419,-3.2061,-3.2831,-3.355,-3.3766,-3.4333,-3.526,-3.4933,-3.5067,-3.54,-3.4582,-3.4053,-3.3487,-3.0962,-2.9948,-2.9956,-2.8294,-2.7746,-2.7537,-2.6667,-2.5729,-2.4946,0.0,0.0,0.0,0.0,0.0,0.0,0.0,0.0,0.0,0.0,0.0,-4.7437,-4.8034,-4.999,-5.127,-5.1572,-5.1187,-5.122,-5.1867,-5.0594,-4.9823,-4.9992,-5.1067,-5.2042,-5.284,-5.301,-5.3159,-5.327,-5.2666,-5.2845,-5.374,-5.3853,-5.4356,-5.5101,-5.422,-5.3844,-5.3787,-5.2852,-5.3243,-5.438,-5.3259,0.0,0.0,0.0,0.0,0.0,0.0,0.0,0.0,0.0,0.0,0.0,0.0,0.0,0.0,0.0,0.0,0.0,0.0,0.0,0.0,0.0,0.0,0.0,0.0,0.0,0.0,0.0,0.0,0.0,0.0,0.0,0.0,0.0,0.0,0.0,0.0,0.0,0.0,-3.6313,-3.5719,0.0,0.0,0.0,0.0,-3.2637,-3.2022,-3.1551,-3.1197,-3.1219,-3.1227,-3.1444,-3.0727,-3.136,-3.3289,-3.2836,-3.3421,-3.4914,-3.4914,-3.5602,-3.6943,-3.5712,-3.5244,-3.54,-3.4825,-3.3233,-3.1245,-3.0977,-3.1264,-3.1496,-2.9987,-2.9053,-2.8323,-2.6991,-2.6156,-2.5423,0.0,0.0,0.0,0.0,0.0,0.0,0.0,0.0,-4.4763,-4.6256,-4.7558,-4.8975,-5.0699,-5.1415,-5.2157,-5.3011,-5.2169,-5.1899,-5.2702,-5.1422,-5.0758,-5.0916,0.0,0.0,-5.279,-5.3382,-5.366,-5.3633,-5.3861,-5.4206,-5.4665,-5.5235,-5.5663,-5.5963,-5.5561,-5.5381,-5.5278,-5.3676,-5.3469,-5.4216,-5.3788,-5.3933,0.0,0.0,0.0,0.0,0.0,0.0,0.0,0.0,0.0,0.0,0.0,0.0,0.0,0.0,0.0,0.0,0.0,0.0,0.0,0.0,0.0,0.0,0.0,0.0,0.0,0.0,0.0,0.0,0.0,0.0,0.0,0.0,0.0,0.0,0.0,0.0,0.0,-3.5315,-3.4857,0.0,-3.2456,-3.2533,-3.2464,-3.2052,-3.1795,-3.1556,-3.1219,-3.1219,-3.1098,-3.1061,-3.1804,-3.262,-3.3661,-3.467,-3.5535,-3.6005,-3.6432,-3.65,-3.6454,-3.6005,-3.5442,-3.4949,-3.4496,-3.333,-3.1819,-3.0873,-3.0276,-2.9905,-2.7984,-2.7436,-2.7356,-2.5862,-2.5249,-2.5068,0.0,0.0,0.0,0.0,0.0,0.0,0.0,0.0,-4.4934,-4.6578,-4.8232,-4.9962,-5.2202,-5.2724,-5.3099,-5.3567,-5.2535,-5.2221,-5.3197,-5.2063,-5.1598,-5.2132,-5.2149,0.0,0.0,-5.3826,-5.4192,-5.415,-5.4967,-5.5575,-5.6029,-5.6873,-5.7246,-5.7187,-5.6777,-5.6848,-5.7211,-5.5302,-5.4493,-5.4456,-5.4063,-5.3958,-5.3996,0.0,0.0,0.0,0.0,0.0,0.0,0.0,0.0,0.0,0.0,0.0,0.0,0.0,0.0,0.0,0.0,0.0,0.0,0.0,0.0,0.0,0.0,0.0,0.0,0.0,0.0,0.0,0.0,0.0,0.0,0.0,0.0,0.0,0.0,0.0,-3.5952,-3.4319,-3.3903,-3.3251,-3.1804,-3.1692,-3.1746,-3.1878,-3.1617,-3.1556,-3.1629,-3.1782,-3.1853,-3.1819,-3.2849,-3.3766,-3.4582,-3.5578,-3.6339,-3.6613,-3.6725,-3.668,-3.661,-3.5998,-3.5539,-3.4975,-3.4274,-3.3211,-3.1774,-3.0445,-2.9581,-2.8818,-2.7068,-2.6767,-2.7044,-2.5549,-2.5138,-2.5083,0.0,0.0,0.0,0.0,0.0,0.0,0.0,-4.3171,-4.502,-4.6983,-4.8767,-5.0538,-5.23,-5.3653,-5.408,-5.3163,-5.2255,-5.2214,-5.3463,-5.2448,-5.2283,0.0,0.0,0.0,-5.3603,-5.436,-5.4762,-5.4838,-5.5874,-5.6914,-5.7886,-5.8585,-5.8874,-5.8769,-5.7721,-5.8105,-5.9296,-5.7493,-5.618,-5.5186,-5.4078,-5.3585,-5.3386,0.0,0.0,0.0,0.0,0.0,0.0,0.0,0.0,0.0,0.0,0.0,0.0,0.0,0.0,0.0,0.0,0.0,0.0,0.0,0.0,0.0,0.0,0.0,0.0,0.0,0.0,0.0,0.0,0.0,0.0,0.0,0.0,0.0,-3.661,-3.6279,-3.5482,-3.3632,-3.3044,-3.2557,-3.1852,-3.1479,-3.1598,-3.2075,-3.1649,-3.1673,-3.2443,-3.2936,-3.3429,-3.3922,-3.3966,-3.4769,-3.6095,-3.5527,-3.5666,-3.6742,-3.5893,-3.6185,-3.7456,-3.5799,-3.5253,-3.5558,-3.4248,-3.2649,-3.1132,-2.9994,-2.9204,-2.8639,-2.7466,-2.73,-2.752,-2.6039,-2.5549,-2.5297,0.0,0.0,0.0,0.0,0.0,0.0,0.0,-4.377,-4.5183,-4.6441,-4.834,-5.0098,-5.1158,-5.2101,-5.2555,-5.2288,-5.1964,-5.2056,-5.2735,-5.2592,-5.277,0.0,0.0,0.0,-5.3445,-5.483,-5.5654,-5.5811,-5.7478,-5.8733,-5.9608,-5.9061,-5.8829,-5.875,-5.7619,-5.7251,-5.7536,-5.7494,-5.7232,-5.6835,-5.6299,-5.5837,-5.5247,0.0,0.0,0.0,0.0,0.0,0.0,0.0,0.0,0.0,0.0,0.0,0.0,0.0,0.0,0.0,0.0,0.0,0.0,0.0,0.0,0.0,0.0,0.0,0.0,0.0,0.0,0.0,0.0,0.0,0.0,0.0,0.0,-3.6033,-3.5114,-3.4868,-3.4408,-3.3433,-3.2999,-3.2871,-3.2889,-3.243,-3.2339,-3.2642,-3.2498,-3.2538,-3.2981,-3.3242,-3.3576,-3.3922,-3.4832,-3.5504,-3.5934,-3.6498,-3.6816,-3.6742,-3.6359,-3.6049,-3.5798,-3.4973,-3.418,-3.3287,-3.3086,-3.1959,-3.0089,-3.0136,-2.9597,-2.8505,-2.6955,-2.6681,-2.7165,-2.5773,-2.4847,-2.4376,0.0,0.0,0.0,0.0,0.0,0.0,0.0,-4.4069,-4.5432,-4.7018,-4.8396,-4.9889,-5.1363,-5.1985,-5.2201,-5.1829,-5.2166,-5.238,-5.2448,-5.3345,0.0,0.0,0.0,-5.4264,-5.4256,-5.5775,-5.6416,-5.6241,-5.8509,-5.9648,-5.9797,-5.9882,-5.9685,-5.9226,-5.8471,-5.8033,-5.7824,-5.8142,-5.8406,-5.8463,-5.7867,-5.6927,-5.5775,-5.4748,-5.3702,-5.2569,-5.1889,-5.1509,-5.1507,-5.249,0.0,0.0,0.0,0.0,0.0,0.0,0.0,0.0,0.0,0.0,0.0,0.0,0.0,0.0,0.0,0.0,0.0,0.0,0.0,0.0,0.0,0.0,0.0,0.0,-3.6995,-3.5977,-3.4705,-3.4187,-3.3896,-3.3752,-3.335,-3.3232,-3.3601,-3.311,-3.2971,-3.3369,-3.3322,-3.3389,-3.3697,-3.4275,-3.4555,-3.4661,-3.5745,-3.6268,-3.6158,-3.6816,-3.6969,-3.6472,-3.5786,-3.5325,-3.4902,-3.3962,-3.3237,-3.2573,-3.2301,-3.148,-3.0195,-2.997,-2.9336,-2.8397,0.0,0.0,0.0,0.0,-2.4569,-2.4026,0.0,0.0,0.0,0.0,0.0,0.0,0.0,-4.4244,-4.5654,-4.7934,-4.8634,-4.9788,-5.1907,-5.2552,-5.2529,-5.166,-5.2656,-5.3204,-5.2729,0.0,0.0,-5.5443,-5.5498,-5.5503,-5.5544,-5.6696,-5.7056,-5.6612,-5.9152,-6.0108,-5.959,-6.0887,-6.0993,-6.0049,-5.9823,-5.9518,-5.9243,-5.9224,-5.9511,-5.9969,-5.8959,-5.7435,-5.5645,-5.4499,-5.3531,-5.2706,-5.1817,-5.1204,-5.096,-5.202,0.0,0.0,0.0,0.0,0.0,0.0,0.0,0.0,0.0,0.0,0.0,0.0,0.0,0.0,0.0,0.0,0.0,0.0,0.0,0.0,0.0,0.0,0.0,0.0,-3.7207,-3.686,-3.5089,-3.4117,-3.382,-3.4363,-3.4004,-3.3736,-3.3983,-3.3609,-3.3492,-3.4059,-3.4124,-3.4221,-3.4574,0.0,0.0,0.0,0.0,-3.7015,-3.6679,-3.6769,-3.6523,-3.5917,-3.4616,-3.4146,-3.428,-3.2957,-3.245,-3.2836,-3.1836,-3.1178,-3.0753,-2.971,-2.8866,-2.8079,-2.7447,-2.7044,-2.6831,-2.5565,-2.4598,-2.4046,0.0,0.0,0.0,0.0,0.0,0.0,0.0,-4.5453,-4.6242,-4.7029,-4.8323,-4.9349,-4.982,-5.1675,-5.2662,-5.2107,-5.3465,-5.4352,0.0,0.0,-5.5023,-5.51,-5.5341,-5.5599,-5.584,-5.635,-5.7223,-5.8543,-5.9798,-6.1014,-6.2248,-6.1697,-6.1305,-6.1056,-6.0195,-5.9647,-5.948,-6.0021,-6.0277,-6.0208,-5.9658,-5.8434,-5.6673,-5.4724,-5.3496,-5.2671,-5.1675,-5.1407,-5.1678,-5.2564,-5.2084,-5.119,-5.16,-5.0679,0.0,0.0,0.0,0.0,0.0,0.0,0.0,0.0,0.0,0.0,0.0,0.0,0.0,0.0,0.0,0.0,0.0,0.0,0.0,-3.747,-3.6791,-3.6402,-3.6237,-3.5353,-3.4715,-3.4681,-3.4263,-3.4006,-3.4071,-3.3621,-3.3531,-3.435,-3.4326,-3.4703,-3.5643,-3.6402,-3.6847,-3.6736,-3.758,-3.7655,-3.6722,-3.6834,-3.6173,-3.4814,-3.4258,0.0,-3.3268,-3.2592,-3.2078,-3.1801,-3.1577,-3.1029,-3.0076,-2.9813,-2.9058,-2.7786,-2.6968,-2.6245,-2.5798,-2.582,-2.5125,-2.4344,0.0,0.0,0.0,0.0,0.0,0.0,0.0,-4.6192,-4.6641,-4.7775,-4.8148,-4.852,-4.8931,-5.0483,-5.1442,-5.1211,-5.2962,-5.4394,0.0,-5.5623,-5.5614,-5.5253,-5.5921,-5.6233,-5.6054,-5.7094,-5.7925,-5.8465,-6.0184,-6.1289,-6.1711,-6.1543,-6.1461,-6.1367,-6.0732,-6.0345,-6.015,-6.043,-6.0376,-6.0015,-5.9257,-5.8412,-5.7404,-5.5809,-5.4727,-5.3868,-5.2939,-5.2524,-5.2432,-5.2813,-5.2198,-5.1275,-5.0887,-5.0153,-4.9408,0.0,0.0,0.0,0.0,0.0,0.0,0.0,0.0,0.0,0.0,0.0,0.0,0.0,0.0,-4.1291,0.0,0.0,-3.7724,-3.6551,-3.6542,-3.6637,-3.6248,-3.5993,-3.5722,-3.5462,-3.4579,-3.415,-3.4409,-3.41,-3.4133,-3.4792,-3.5028,-3.5594,-3.653,-3.706,-3.7373,-3.7402,-3.8044,-3.7953,-3.7005,-3.7281,-3.6652,-3.5025,-3.4528,-3.3848,-3.297,-3.2501,-3.1935,-3.1565,-3.1339,-3.0865,-3.0036,-2.9361,-2.847,-2.7583,-2.6846,-2.6011,-2.544,-2.544,-2.5017,-2.4323,0.0,0.0,0.0,0.0,0.0,0.0,0.0,-4.6824,-4.7038,-4.8602,-4.8046,-4.7935,-4.8807,-4.9825,-5.0618,-5.111,-5.2632,0.0,0.0,-5.6277,-5.6284,-5.5577,-5.6599,-5.6969,-5.646,-5.7943,-5.8568,-5.8298,-6.0412,-6.1171,-6.0657,-6.1281,-6.1556,-6.1421,-6.1213,-6.1022,-6.0795,-6.0572,-6.0265,-5.9861,-5.8823,-5.8349,-5.809,-5.6964,-5.6067,-5.5249,-5.4315,-5.3906,-5.3668,-5.3086,-5.2451,-5.17,-5.06,-4.9936,-4.9566,-4.9084,-4.8605,0.0,0.0,0.0,0.0,0.0,0.0,0.0,0.0,0.0,-4.1193,-4.2304,-4.137,-3.9809,-3.756,-3.7508,-3.7399,-3.606,-3.6811,-3.7224,-3.6259,-3.6335,-3.6452,-3.6003,-3.4846,-3.427,-3.4605,-3.451,-3.4637,-3.5159,-3.5631,-3.634,-3.7045,-3.7566,-3.7765,-3.7816,-3.8459,-3.829,-3.7317,-3.7846,-3.7271,-3.5483,-3.5052,-3.4108,-3.302,-3.2355,-3.1896,-3.1559,-3.1135,-3.0567,-3.0014,-2.8707,-2.7985,-2.755,-2.6823,-2.6229,-2.5641,-2.52,-2.4773,-2.4344,0.0,0.0,0.0,0.0,0.0,0.0,0.0,0.0,-4.7534,-4.7884,-4.7901,-4.8286,-4.9523,-5.0649,-5.2241,-5.446,0.0,0.0,-5.5521,-5.607,-5.6171,-5.5707,-5.6823,-5.7456,-5.7426,-5.7761,-5.8623,-6.0096,-6.0387,-6.0898,-6.1562,-6.1576,-6.1568,-6.1471,-6.1356,-6.1152,-6.086,-6.0531,-6.0338,-6.0121,-5.9389,-5.9065,-5.8839,-5.7575,-5.664,-5.5835,-5.4601,-5.5003,-5.5809,-5.3857,-5.3163,-5.2803,-5.1417,-4.9972,-4.8864,-4.9566,-4.8265,-4.7093,-4.9528,-4.814,0.0,-4.3306,-4.2304,-4.1756,0.0,0.0,-4.006,-4.0292,-3.9535,-3.8625,-3.8201,-3.8559,-3.8836,-3.8723,-3.8378,-3.8002,-3.7612,-3.6726,-3.5978,-3.5716,-3.5066,-3.4581,-3.4261,-3.431,-3.4597,-3.5142,-3.5611,-3.6196,-3.692,-3.8202,-3.8643,-3.8111,-3.9081,-3.9186,-3.7942,-3.8051,-3.7191,-3.5301,-3.521,-3.4241,-3.2629,-3.2236,-3.1896,-3.1559,-3.0868,-2.9855,-2.8851,-2.8691,-2.8274,-2.755,-2.755,-2.6925,-2.6285,-2.5848,-2.5263,-2.4529,0.0,0.0,0.0,0.0,0.0,0.0,0.0,0.0,0.0,-4.7138,-4.7478,-4.7983,-4.8356,-4.9892,-5.2009,0.0,0.0,0.0,-5.5921,-5.6801,-5.7128,-5.683,-5.7276,-5.7837,-5.8384,-5.8481,-5.9111,-6.0349,-6.0858,-6.1288,-6.1694,-6.1641,-6.1539,-6.1479,-6.1259,-6.1077,-6.086,-6.0379,-6.0044,-5.9874,-5.9325,-5.9064,-5.887,-5.833,-5.7621,-5.6881,-5.6256,-5.6283,0.0,-5.5585,-5.4614,-5.3481,-5.1787,-5.0787,-5.0194,-4.9936,-4.9158,0.0,-4.9749,0.0,0.0,0.0,-4.2873,-4.139,-4.094,-4.0051,-3.9367,-3.9622,-3.9015,-3.8496,-3.9073,-3.9097,-3.9074,0.0,-3.8718,-3.8105,-3.7234,-3.6506,-3.5883,-3.562,-3.56,-3.5304,-3.461,-3.5341,-3.5817,-3.6015,-3.6191,-3.6858,-3.8089,-3.8321,-3.8592,-3.8948,-3.9249,-3.8985,-3.826,-3.8291,-3.7506,-3.587,-3.5732,-3.4854,-3.3266,-3.3008,-3.2263,-3.1135,-3.0425,-2.9425,-2.8418,-2.8418,-2.7985,-2.7274,-2.6969,-2.6692,-2.6399,-2.5946,-2.5506,-2.4784,0.0,0.0,0.0,0.0,0.0,0.0,0.0,0.0,0.0,0.0,-4.723,-4.7909,-4.8184,-4.9948,-5.2063,0.0,0.0,0.0,0.0,-5.7624,-5.8106,-5.7923,-5.8176,-5.8657,-5.9347,-5.9395,-5.982,-6.0702,-6.1328,-6.1629,-6.166,-6.1619,-6.1549,-6.1447,-6.1236,-6.1022,-6.0834,-6.0245,-5.9931,-5.9748,-5.9326,-5.8951,-5.8609,-5.8569,-5.8346,-5.8008,-5.7769,-5.7601,-5.7484,-5.708,-5.6253,-5.5006,-5.286,-5.2156,-5.2043,-5.0971,-5.0675,-5.0512,-4.9731,0.0,0.0,-4.5057,-4.2816,-4.0783,-4.0197,-3.9372,-3.89,-3.9349,-3.8964,-3.8923,-4.0246,-4.0088,-3.9828,-3.9819,-3.9313,-3.8472,-3.7014,-3.6582,-3.6368,-3.6202,-3.675,-3.675,-3.5622,-3.6454,-3.6826,-3.6557,-3.6901,-3.7543,-3.8735,-3.857,-3.8834,-3.9439,-3.9209,-3.8883,-3.8506,-3.821,-3.7535,-3.6596,-3.5854,-3.4948,-3.3955,-3.326,-3.2281,-3.101,-3.0283,-2.9282,-2.813,-2.7985,-2.7565,-2.6983,-2.6546,-2.6385,-2.6253,-2.5898,-2.5442,-2.4931,0.0,0.0,0.0,0.0,0.0,0.0,0.0,0.0,0.0,0.0,0.0,0.0,0.0,0.0,0.0,0.0,0.0,0.0,0.0,-5.8368,-5.8688,-5.8668,-5.9649,-6.0231,-6.0252,-6.0317,-6.0789,-6.1658,-6.1697,-6.1654,-6.1598,-6.151,-6.1473,-6.1381,-6.1259,-6.106,-6.0757,-6.0311,-6.0053,-5.9944,-5.9472,-5.884,-5.809,-5.7903,-5.8351,-5.9101,-5.8788,-5.8912,-5.9137,-5.7977,-5.7938,-5.7834,-5.4943,-5.4156,0.0,-5.2972,-5.2782,0.0,0.0,0.0,-4.5622,-4.2837,-4.0966,-3.9595,-3.9192,-3.8943,-3.89,-3.915,-3.9314,-4.0047,-4.1876,-4.1911,-4.1645,-4.1686,-4.0605,-3.919,-3.773,-3.757,-3.7521,-3.7521,-3.9,-3.9369,0.0,-3.7508,-3.712,-3.6386,-3.7428,-3.8063,-3.8086,-3.8993,-3.9417,-3.9075,-3.9299,-3.9138,-3.9002,-3.7548,-3.6869,-3.7059,-3.5137,-3.426,-3.437,-3.2824,-3.17,-3.101,-3.0283,-2.9282,-2.813,-2.7695,-2.742,-2.6983,-2.6546,-2.6093,-2.5828,-2.5703,-2.5188,-2.4488,0.0,0.0,0.0,0.0,0.0,0.0,0.0,0.0,0.0,0.0,0.0,0.0,0.0,0.0,0.0,0.0,0.0,0.0,0.0,-5.9003,-5.9434,-5.9128,-5.9525,-6.0088,-6.0769,-6.0328,-6.0559,-6.1573,-6.1592,-6.1609,-6.1612,-6.1484,-6.1381,-6.1337,-6.1098,-6.0877,-6.0608,-6.0112,-5.9501,-5.8845,-5.8643,-5.9027,-5.9741,-5.9777,-6.0377,-6.1317,0.0,-6.1694,-6.055,-6.071,-5.9726,-5.8065,-5.6472,0.0,0.0,-5.5211,0.0,0.0,0.0,0.0,-4.4462,-4.288,-4.1205,-3.9768,-3.9235,-3.8943,-3.89,-3.9349,-3.9237,-3.9663,-4.1733,-4.185,-4.155,-4.0971,-4.0423,-3.9348,-3.7227,-3.6603,-3.6376,-3.6553,-3.7221,0.0,0.0,0.0,0.0,-3.7711,-3.8501,-3.9175,-3.9633,-3.9379,-3.9388,-3.9663,-3.9336,-3.9002,-3.8845,-3.7749,-3.7012,-3.6636,-3.4739,-3.3816,-3.3842,-3.242,-3.17,-3.1277,-2.9997,-2.901,-2.813,-2.7695,-2.726,-2.6546,-2.6399,-2.6087,-2.5689,-2.565,-2.5294,-2.473,0.0,0.0,0.0,0.0,0.0,0.0,0.0,0.0,0.0,0.0,0.0,0.0,0.0,0.0,0.0,0.0,0.0,0.0,0.0,0.0,-6.0008,-5.981,-5.9978,-6.0536,-6.1513,-6.0864,-6.111,-6.2389,-6.1874,-6.1779,-6.205,-6.1256,-6.0875,-6.0832,-6.0229,-6.0234,-6.0622,-6.0514,-6.0615,-6.0861,-6.0629,-6.1049,-6.1727,-6.1353,-6.1613,0.0,-6.3387,-6.2969,-6.1943,-6.2208,-6.1306,-5.9621,-5.7266,0.0,0.0,0.0,0.0,0.0,0.0,-4.7208,-4.3972,-4.2639,-4.1379,-4.042,-4.0024,-3.9728,-3.9606,-3.9945,-4.0315,-4.0989,-4.2604,-4.2946,-4.2528,-4.1369,-4.0581,-3.9318,-3.7066,-3.6614,-3.6504,-3.6653,-3.7115,-3.738,0.0,0.0,0.0,-3.8501,-3.9382,-3.9966,-4.0125,-3.9628,-3.9511,-3.9759,-3.9194,-3.8657,-3.8429,-3.7598,-3.6506,-3.5409,-3.4547,-3.3891,-3.3502,-3.2784,-3.2051,-3.1463,-3.0193,-2.9101,-2.8203,-2.7909,-2.7247,-2.6557,-2.641,-2.6094,-2.5691,-2.5391,-2.4961,-2.4546,0.0,0.0,0.0,0.0,0.0,0.0,0.0,0.0,0.0,0.0,0.0,0.0,0.0,0.0,0.0,0.0,0.0,0.0,0.0,0.0,0.0,-6.0673,-6.0906,-6.153,-6.2455,-6.1912,-6.2416,-6.4023,-6.2446,-6.21,-6.2851,-6.0939,-6.0035,-5.9937,-5.8915,-5.9309,-6.0786,-6.149,-6.3197,-6.5321,-6.4803,-6.4317,-6.3796,-6.2482,-6.2181,-6.2435,-6.2473,-6.2894,-6.3238,0.0,0.0,0.0,0.0,0.0,0.0,0.0,0.0,-4.8132,-4.8651,-4.6733,-4.4102,-4.2062,-4.1571,-4.146,-4.1565,-4.1292,-4.1115,-4.1397,-4.2812,-4.4152,0.0,0.0,-4.4644,-4.2736,-4.1123,-3.9306,-3.7049,-3.7434,-3.7916,0.0,0.0,0.0,0.0,0.0,0.0,-3.8689,0.0,-4.055,-3.94,-3.9688,-3.9712,-3.9383,-3.8765,-3.8357,-3.7968,-3.6882,-3.54,-3.3546,-3.4431,-3.4296,-3.3248,-3.3651,-3.2914,-3.1532,-3.068,-2.9555,-2.8507,-2.8071,-2.743,-2.6843,-2.6411,-2.5977,-2.5541,-2.4789,-2.4353,-2.424,0.0,0.0,0.0,0.0,0.0,0.0,0.0,0.0,0.0,0.0,0.0,0.0,0.0,0.0,0.0,0.0,0.0,0.0,0.0,0.0,0.0,0.0,0.0,0.0,0.0,0.0,0.0,-6.399,-6.2982,-6.2617,-6.2872,-6.1023,-6.0133,-6.0089,-6.0285,-6.0557,-6.0949,-6.2887,-6.3552,-6.3345,-6.3226,-6.3706,-6.4329,-6.3424,-6.3951,-6.5118,-6.4935,-6.4746,0.0,0.0,0.0,0.0,0.0,0.0,-5.4434,0.0,0.0,-4.93,-4.8652,-4.6225,-4.3786,-4.3106,-4.2705,-4.2663,-4.3345,-4.3956,-4.4639,-4.5742,-4.6872,-4.7683,0.0,0.0,0.0,-4.3658,-4.2496,0.0,-3.7859,-3.7245,0.0,-3.7043,0.0,-3.7472,-3.7943,-3.9042,0.0,0.0,-4.0505,-4.1069,-4.075,-4.0173,-3.9922,-4.0015,-3.8658,-3.8018,-3.7968,-3.6623,-3.5529,-3.4724,-3.4564,-3.4296,-3.4064,-3.3666,-3.3038,-3.2285,-3.0958,-2.9797,-2.9066,-2.8044,-2.6949,-2.6087,-2.6164,-2.5813,-2.5254,-2.4862,-2.4521,-2.424,0.0,0.0,0.0,0.0,0.0,0.0,0.0,0.0,0.0,0.0,0.0,0.0,0.0,0.0,0.0,0.0,0.0,0.0,0.0,0.0,0.0,0.0,0.0,0.0,0.0,0.0,0.0,0.0,0.0,-6.2872,-6.2851,-6.0636,-5.9358,-5.8922,-5.8797,-5.936,-6.041,-6.2388,-6.3532,0.0,0.0,-6.4958,-6.5345,-6.4671,-6.486,-6.5423,-6.4898,0.0,0.0,0.0,0.0,-5.7275,-5.4866,-5.3429,-5.2416,-5.1222,0.0,-4.7788,-4.7832,-4.6088,-4.4218,-4.3937,-4.38,-4.3789,-4.4161,-4.5298,-4.6322,-4.6765,-4.8622,0.0,0.0,0.0,0.0,0.0,0.0,0.0,-3.809,-3.7314,-3.7067,0.0,-3.6951,0.0,-3.8045,-3.938,-4.0033,0.0,-4.0644,-4.0994,-4.0232,-3.9814,-3.9493,-3.9318,-3.8164,-3.7467,-3.7415,-3.6207,-3.5529,-3.5411,-3.4871,-3.441,-3.4327,-3.3806,-3.3109,-3.2285,-3.0876,-2.9929,-2.9174,-2.8132,-2.7015,-2.6038,-2.6196,-2.5787,-2.5104,-2.4809,-2.4482,-2.4278,0.0,0.0,0.0,0.0,0.0,0.0,0.0,0.0,0.0,0.0,0.0,0.0,0.0,0.0,0.0,0.0,0.0,0.0,0.0,0.0,0.0,0.0,0.0,0.0,0.0,0.0,0.0,0.0,0.0,-6.2828,-6.2668,-6.0077,-5.832,-5.7412,-5.6553,-5.7371,-5.9502,-6.1236,-6.323,-6.536,-6.6391,-6.644,-6.5973,0.0,-6.4858,-6.4254,0.0,0.0,0.0,0.0,-5.7427,-5.547,-5.3009,-5.0503,-4.8458,-4.889,-4.7242,-4.5604,-4.6713,-4.6104,-4.5087,-4.4835,-4.4809,-4.4843,-4.4695,-4.616,-4.7497,-4.6929,0.0,-5.2138,-5.1064,0.0,-4.7555,-4.5863,0.0,-4.0046,-3.8863,-3.816,-3.7847,-3.794,-3.7535,-3.7586,-3.8504,-3.9988,-4.0642,-4.0223,-4.0875,-4.0676,-3.9067,-3.9321,-3.8993,-3.7993,-3.7438,-3.7045,-3.6804,-3.5814,-3.5521,-3.5884,-3.5162,-3.4717,-3.437,-3.401,-3.3091,-3.1981,-3.0858,-2.985,-2.9195,-2.8169,-2.715,-2.6178,-2.613,-2.5648,-2.494,-2.4704,-2.4392,-2.4111,0.0,0.0,0.0,0.0,0.0,0.0,0.0,0.0,0.0,0.0,-5.0154,-5.0852,0.0,0.0,0.0,0.0,0.0,0.0,0.0,0.0,0.0,0.0,0.0,0.0,0.0,0.0,0.0,0.0,0.0,-6.2524,-6.1885,-5.996,-5.8566,-5.7751,-5.804,-5.8428,-5.9005,-6.1835,-6.3194,-6.3437,-6.4222,-6.4339,-6.3984,-6.3728,0.0,0.0,0.0,0.0,0.0,0.0,-5.6221,-5.4282,-5.1859,-5.0221,-4.8761,-4.6454,-4.6422,-4.6945,-4.6218,-4.6067,-4.6071,-4.6032,-4.5697,-4.5551,-4.6233,-4.8669,0.0,0.0,0.0,-5.616,-5.5464,-5.376,0.0,-5.0759,0.0,0.0,0.0,0.0,-4.0252,0.0,0.0,0.0,0.0,0.0,0.0,0.0,0.0,-4.155,-3.9831,-3.9769,-3.8993,-3.7271,-3.7255,-3.6978,-3.6418,-3.6314,-3.6142,-3.5924,-3.5201,-3.4708,-3.4389,-3.3744,-3.3073,-3.2429,-3.0991,0.0,-2.9633,-2.7792,-2.6657,-2.6011,-2.6115,-2.5483,-2.4514,-2.4688,-2.4124,-2.3364,0.0,0.0,0.0,0.0,0.0,0.0,0.0,-4.8695,-4.9916,-4.9884,-5.0606,-5.1262,-5.1383,-5.1922,0.0,0.0,0.0,0.0,0.0,0.0,0.0,0.0,0.0,0.0,0.0,0.0,0.0,0.0,0.0,0.0,0.0,0.0,0.0,0.0,-5.7495,-5.7591,-5.8007,-6.025,-6.1109,-6.1048,-6.2497,-6.2724,-6.2213,0.0,0.0,0.0,0.0,0.0,0.0,0.0,-5.6635,-5.4499,-5.1468,-5.1002,-5.1061,-4.8597,-4.8398,-4.8793,-4.8228,-4.729,-4.6474,-4.6333,-4.6008,-4.5929,-4.7087,0.0,0.0,0.0,0.0,-5.668,-5.6165,0.0,0.0,0.0,0.0,0.0,0.0,0.0,0.0,0.0,0.0,0.0,0.0,0.0,0.0,0.0,0.0,-4.1935,-3.9848,-3.9299,-3.8603,-3.7486,-3.7318,-3.7037,-3.6616,-3.6426,-3.627,-3.5992,-3.51,-3.4508,-3.4094,-3.316,-3.2526,-3.226,-3.071,-2.9729,-2.9154,-2.7467,-2.639,-2.575,-2.5745,-2.5272,-2.4736,-2.5011,-2.4364,-2.3569,0.0,0.0,0.0,0.0,0.0,0.0,0.0,-4.8383,-4.9368,-5.0293,-5.0947,-5.15,-5.1897,-5.2354,-5.3101,0.0,0.0,0.0,0.0,0.0,0.0,0.0,0.0,0.0,0.0,0.0,0.0,0.0,0.0,0.0,0.0,0.0,0.0,0.0,0.0,0.0,-5.6634,-5.8112,-5.8745,0.0,0.0,0.0,0.0,0.0,0.0,0.0,0.0,0.0,0.0,0.0,-5.7352,-5.5613,-5.2467,-5.2516,-5.3411,-5.1698,-5.0794,-5.0359,-5.039,-4.8646,-4.6802,-4.6678,-4.6253,-4.6287,-4.7719,-4.9597,0.0,0.0,-5.4979,-5.6277,-5.6042,0.0,0.0,0.0,0.0,0.0,0.0,0.0,0.0,0.0,0.0,0.0,0.0,0.0,0.0,0.0,0.0,0.0,-3.9801,-3.8788,-3.8229,-3.7954,-3.7592,-3.7156,-3.6953,-3.6556,-3.6202,-3.5879,-3.4827,-3.3964,-3.3532,-3.2471,-3.1914,-3.1703,-3.031,-2.9313,-2.847,-2.7276,-2.6383,-2.5623,-2.559,-2.5137,-2.4868,-2.4997,-2.4591,-2.3963,0.0,0.0,0.0,0.0,0.0,0.0,0.0,-4.8759,-4.9698,-5.064,-5.1017,-5.1665,-5.282,-5.333,-5.3868,0.0,0.0,0.0,0.0,0.0,0.0,0.0,0.0,0.0,0.0,0.0,0.0,0.0,0.0,0.0,0.0,0.0,0.0,0.0,0.0,0.0,0.0,-5.6228,0.0,0.0,0.0,0.0,0.0,0.0,0.0,0.0,0.0,0.0,0.0,0.0,0.0,-5.7635,-5.5959,-5.5085,-5.4544,-5.3707,0.0,0.0,-5.1158,-4.9257,-4.7453,-4.7797,-4.7032,-4.6604,-4.8183,0.0,0.0,0.0,-5.5259,-5.6441,-5.6662,-5.5633,-5.4819,0.0,0.0,0.0,0.0,0.0,0.0,0.0,0.0,0.0,0.0,0.0,0.0,0.0,0.0,0.0,-4.0545,-3.916,-3.8379,-3.8422,-3.7817,-3.7369,-3.7018,-3.6364,-3.584,-3.547,-3.4425,-3.3558,-3.2838,-3.1933,-3.1132,-3.0472,-2.965,-2.8946,0.0,-2.7188,-2.639,-2.5617,-2.5418,-2.5114,-2.4685,-2.466,-2.4135,-2.349,0.0,0.0,0.0,0.0,0.0,0.0,-4.8606,-4.9282,-5.0045,-5.0929,-5.1665,-5.2481,-5.345,-5.4081,-5.4534,-5.4829,0.0,0.0,0.0,0.0,0.0,0.0,0.0,0.0,0.0,0.0,-6.1681,-6.1701,0.0,0.0,0.0,0.0,0.0,0.0,0.0,0.0,0.0,0.0,0.0,0.0,0.0,0.0,0.0,0.0,0.0,0.0,0.0,0.0,0.0,0.0,0.0,0.0,-5.8632,-5.8835,0.0,0.0,-5.4459,-5.3179,-5.3144,-5.0659,-4.8051,-4.7933,-4.6931,-4.6966,-5.0515,0.0,0.0,-5.539,-5.6072,-5.6072,-5.6124,-5.5472,-5.4697,-5.3922,0.0,0.0,0.0,0.0,0.0,0.0,0.0,0.0,0.0,0.0,0.0,0.0,0.0,0.0,-4.0746,-3.967,-3.9131,-3.8933,-3.8298,-3.7586,-3.6789,-3.6287,-3.5491,-3.4425,-3.3576,-3.2675,-3.188,-3.0923,-3.0497,-3.0282,-2.946,-2.8743,0.0,-2.6952,-2.614,-2.5499,-2.5114,-2.4799,-2.4489,-2.4455,-2.4099,-2.3707,0.0,0.0,0.0,0.0,0.0,-4.7834,-4.8677,-4.9367,-5.009,-5.0941,-5.1654,-5.2491,-5.3794,-5.4295,-5.4749,-5.5224,-5.6194,0.0,0.0,0.0,0.0,0.0,0.0,0.0,0.0,0.0,-6.1313,-6.1326,-5.9558,-5.8616,0.0,0.0,0.0,0.0,0.0,0.0,0.0,0.0,0.0,0.0,0.0,0.0,0.0,0.0,0.0,0.0,0.0,0.0,0.0,0.0,0.0,0.0,0.0,0.0,0.0,0.0,-5.7116,-5.603,-5.5961,-5.3219,-5.0251,-4.9961,-4.9025,-4.9093,0.0,0.0,0.0,-5.6592,-5.6577,-5.5879,-5.5978,-5.5601,-5.474,-5.3034,0.0,-5.206,0.0,0.0,0.0,0.0,0.0,0.0,0.0,0.0,0.0,0.0,0.0,0.0,-4.1164,-4.0127,-3.9363,-3.8967,-3.8304,-3.7502,-3.6384,-3.5743,-3.4929,-3.3942,-3.2892,-3.2097,-3.1531,-3.0326,-2.9934,-2.9854,-2.9131,-2.8522,0.0,-2.7111,-2.6226,-2.5531,-2.514,-2.4781,-2.4492,-2.4332,-2.4012,-2.384,0.0,0.0,0.0,0.0,0.0,0.0,-4.7872,-4.8727,-4.9714,-5.0677,-5.0569,-5.14,-5.3996,-5.393,-5.428,-5.5758,-5.608,0.0,0.0,0.0,0.0,0.0,0.0,0.0,0.0,0.0,-6.0429,-6.0422,-5.8598,-5.7653,-5.748,-5.5583,-5.4532,0.0,0.0,0.0,0.0,0.0,0.0,0.0,0.0,0.0,0.0,0.0,0.0,0.0,0.0,0.0,0.0,0.0,0.0,0.0,0.0,0.0,0.0,0.0,-6.0403,-5.9351,-5.9736,-5.7239,-5.456,-5.4876,-5.4162,-5.3558,0.0,0.0,0.0,-5.6807,-5.6577,-5.6155,-5.6431,-5.6478,-5.5545,-5.2784,-5.2815,0.0,0.0,0.0,0.0,0.0,0.0,0.0,0.0,0.0,0.0,0.0,0.0,0.0,-4.1783,-4.0127,-3.8967,-3.8191,-3.777,-3.7079,-3.6016,-3.4892,-3.435,-3.4352,-3.2472,-3.1576,-3.1531,-3.0321,-2.9412,-2.868,-2.8739,-2.8237,0.0,-2.782,-2.7164,-2.599,-2.5819,-2.5276,-2.4492,-2.4012,-2.384,-2.384,0.0,0.0,0.0,0.0,0.0,0.0,0.0,-4.9243,-4.9731,-5.0498,-5.1323,-5.2121,-5.2779,-5.4115,-5.5023,-5.5093,-5.5821,0.0,0.0,0.0,0.0,0.0,0.0,0.0,0.0,-5.9922,-6.0077,-5.946,-5.8234,-5.7159,-5.6227,-5.5499,-5.4687,-5.3781,-5.4124,0.0,0.0,0.0,0.0,0.0,0.0,0.0,0.0,0.0,0.0,0.0,0.0,0.0,0.0,0.0,0.0,0.0,0.0,0.0,0.0,-6.2542,0.0,0.0,-5.9698,-5.7763,-5.5754,-5.5562,-5.463,-5.4196,-5.5831,0.0,0.0,0.0,-5.7135,-5.6466,-5.6694,-5.6731,-5.6103,-5.4016,-5.3433,0.0,0.0,0.0,0.0,0.0,0.0,0.0,0.0,0.0,0.0,0.0,0.0,0.0,-4.0366,-3.921,-3.8437,-3.8191,-3.777,-3.6944,-3.5606,-3.5062,-3.4209,-3.3102,-3.2058,-3.1265,-3.0701,-2.963,-2.8956,-2.8739,-2.8146,-2.7809,-2.7595,-2.7222,-2.6861,-2.6461,-2.5662,-2.5104,-2.4798,-2.4,-2.384,-2.384,0.0,0.0,0.0,0.0,0.0,0.0,0.0,-4.9028,-4.9472,-4.9964,-5.0698,-5.1435,-5.2294,-5.3763,-5.4684,-5.4765,-5.5681,0.0,0.0,0.0,0.0,0.0,0.0,0.0,-5.8264,-5.8967,-5.9012,-5.8374,-5.7405,-5.6411,-5.5472,-5.5284,-5.4656,-5.3742,-5.3965,-5.3943,0.0,0.0,0.0,0.0,0.0,0.0,-5.3847,0.0,0.0,0.0,0.0,0.0,0.0,0.0,0.0,0.0,0.0,0.0,0.0,0.0,-6.1779,0.0,0.0,-5.9885,-5.8597,-5.7827,-5.6953,0.0,0.0,0.0,0.0,0.0,0.0,0.0,-5.591,-5.5661,-5.526,-5.4345,0.0,0.0,0.0,0.0,0.0,0.0,0.0,0.0,0.0,0.0,0.0,0.0,0.0,0.0,-3.9583,-3.8549,-3.7688,-3.7125,-3.6998,-3.6324,-3.5084,-3.4539,-3.3705,-3.2629,-3.1683,-3.1012,-3.0652,-2.9273,-2.8691,-2.8475,-2.7906,-2.7719,0.0,-2.7265,-2.7098,-2.6934,-2.6343,-2.574,-2.5104,-2.4467,-2.416,-2.384,0.0,0.0,0.0,0.0,0.0,0.0,0.0,-4.8346,-4.9149,-4.9314,-4.9231,-5.0027,-5.2371,-5.2988,-5.367,-5.4818,0.0,0.0,0.0,0.0,0.0,0.0,0.0,0.0,-5.8754,-5.8,-5.743,-5.7172,-5.6212,-5.5493,-5.5045,-5.4819,-5.4425,-5.3944,-5.3606,-5.3289,-5.295,-5.2232,-5.1786,-5.1571,-5.1158,-5.124,0.0,0.0,0.0,0.0,0.0,0.0,0.0,0.0,0.0,0.0,0.0,0.0,0.0,0.0,0.0,0.0,0.0,0.0,0.0,0.0,0.0,0.0,0.0,0.0,0.0,0.0,0.0,0.0,0.0,0.0,0.0,0.0,0.0,0.0,0.0,0.0,0.0,0.0,0.0,0.0,0.0,0.0,0.0,0.0,0.0,0.0,-3.9057,-3.8129,-3.6837,-3.5485,-3.5723,-3.5317,-3.4221,-3.3582,-3.2902,-3.2456,-3.1062,-3.0549,-3.0872,-2.9352,-2.8507,0.0,-2.7704,-2.7744,-2.7911,-2.7968,-2.7821,-2.7677,-2.7664,-2.6531,-2.5104,-2.5104,-2.4467,-2.384,0.0,0.0,0.0,0.0,0.0,0.0,0.0,0.0,0.0,0.0,-5.0609,-5.1505,-5.1895,-5.3347,-5.4482,0.0,0.0,0.0,0.0,0.0,0.0,0.0,0.0,0.0,-5.6718,-5.7017,-5.6828,-5.6001,-5.5506,-5.5059,-5.4602,-5.4221,-5.3833,-5.3444,-5.3115,-5.2725,-5.2304,-5.1414,-5.1299,-5.1645,-5.1084,-5.0932,0.0,0.0,0.0,0.0,-5.3645,-5.5166,0.0,0.0,0.0,0.0,0.0,0.0,0.0,0.0,-6.3155,0.0,-6.2974,0.0,-6.237,-6.2293,-6.1983,-6.1185,0.0,0.0,0.0,0.0,0.0,0.0,0.0,0.0,0.0,0.0,0.0,0.0,0.0,0.0,0.0,0.0,0.0,0.0,0.0,0.0,0.0,0.0,0.0,-3.859,-3.8416,-3.7023,-3.5984,-3.5351,-3.4337,-3.365,-3.3003,-3.3163,-3.2621,-3.1384,-3.1063,-3.05,-2.9633,-2.9028,-2.8295,-2.7734,-2.7955,-2.7891,-2.7644,-2.7817,-2.7835,-2.7677,-2.7351,-2.6531,-2.5581,-2.5263,-2.4467,-2.384,0.0,0.0,0.0,0.0,0.0,0.0,0.0,0.0,0.0,0.0,0.0,0.0,0.0,0.0,0.0,0.0,0.0,0.0,0.0,0.0,0.0,0.0,0.0,-5.5576,-5.5518,-5.5316,-5.5123,-5.4969,-5.4752,-5.4403,-5.3977,-5.3758,-5.3407,-5.2944,-5.2536,-5.1933,-5.128,-5.0678,-5.0689,-5.1163,-5.0746,0.0,0.0,0.0,0.0,0.0,-5.3096,-5.4292,0.0,-5.7326,-5.8146,-5.876,0.0,0.0,0.0,0.0,-6.2169,-6.3657,-6.2482,-6.3012,-6.3674,-6.2749,-6.223,-6.1513,-5.9663,0.0,0.0,0.0,0.0,0.0,0.0,0.0,0.0,0.0,0.0,0.0,0.0,0.0,0.0,0.0,0.0,0.0,0.0,0.0,0.0,0.0,0.0,-3.7311,-3.7135,-3.599,-3.4961,-3.4126,-3.3292,-3.2763,-3.2313,-3.234,-3.1903,-3.0701,-3.064,-3.0184,-2.9579,-2.89,-2.8418,-2.784,-2.7985,-2.7981,-2.7715,-2.8026,-2.8212,-2.8342,-2.8033,-2.7065,-2.6029,-2.5859,-2.4869,-2.3842,0.0,0.0,0.0,0.0,0.0,0.0,0.0,0.0,0.0,0.0,0.0,0.0,0.0,0.0,0.0,0.0,0.0,0.0,0.0,0.0,0.0,0.0,-5.4188,-5.402,-5.4714,-5.3634,-5.3381,-5.4105,-5.4088,-5.3869,-5.3511,-5.347,-5.3103,-5.2454,-5.1929,-5.1211,-5.0397,-5.0184,-5.0282,-5.0571,-5.0527,0.0,0.0,0.0,0.0,0.0,0.0,0.0,0.0,-5.6295,-5.691,-5.7151,-5.9142,0.0,0.0,0.0,0.0,0.0,-6.1807,-6.364,-6.4873,-6.2297,-6.1475,-6.0909,-5.9663,0.0,0.0,0.0,0.0,0.0,0.0,0.0,0.0,0.0,0.0,0.0,0.0,0.0,0.0,0.0,0.0,0.0,0.0,0.0,0.0,0.0,0.0,-3.5906,-3.563,-3.5021,-3.3912,-3.245,-3.2372,-3.2144,-3.1702,-3.1572,-3.1081,-3.031,-3.0078,-2.9822,-2.9631,-2.8963,-2.8418,-2.8,0.0,0.0,-2.7949,-2.8295,-2.8512,-2.873,-2.873,-2.7763,-2.6439,-2.6279,-2.5255,-2.3805,0.0,0.0,0.0,0.0,0.0,0.0,0.0,0.0,0.0,0.0,0.0,0.0,0.0,0.0,0.0,0.0,0.0,0.0,0.0,0.0,0.0,-5.3758,-5.3826,-5.3893,-5.3968,-5.3571,-5.3423,-5.3608,-5.3875,-5.3989,-5.3976,-5.3663,-5.3013,-5.1956,-5.1687,-5.1179,-5.0509,-5.024,-5.0215,-5.0453,-5.1258,0.0,0.0,0.0,0.0,0.0,0.0,0.0,0.0,-5.566,-5.6001,-5.6082,-5.8428,0.0,0.0,0.0,0.0,0.0,-6.1379,-6.2737,-6.3667,-6.0135,-5.9101,-5.8486,-5.6925,0.0,0.0,0.0,0.0,0.0,0.0,0.0,0.0,0.0,0.0,0.0,0.0,0.0,0.0,0.0,0.0,0.0,0.0,0.0,0.0,0.0,0.0,-3.5127,-3.4803,-3.418,-3.3081,-3.1617,-3.1283,-3.1055,-3.0663,-3.0908,-3.0685,-2.9917,-2.9938,-2.955,-2.8837,-2.8423,-2.7985,-2.771,0.0,-2.7598,-2.7978,-2.7769,-2.81,-2.8275,-2.7947,-2.7139,-2.5972,-2.5477,-2.4464,-2.349,0.0,0.0,0.0,0.0,0.0,0.0,0.0,0.0,0.0,0.0,0.0,0.0,0.0,0.0,0.0,0.0,0.0,0.0,0.0,0.0,-5.1972,-5.2344,-5.2218,-5.2443,-5.3051,-5.2309,-5.2215,-5.2777,-5.3008,-5.3399,-5.3743,-5.3496,-5.2938,-5.2228,-5.1384,-5.0863,-5.0562,-5.0277,-5.0511,-5.1157,0.0,0.0,0.0,0.0,0.0,0.0,0.0,0.0,0.0,0.0,-5.5308,-5.5487,-5.7668,0.0,0.0,0.0,0.0,0.0,-6.1413,-6.2326,-6.2532,-5.8997,-5.8141,-5.7602,-5.5207,0.0,0.0,0.0,0.0,0.0,0.0,0.0,0.0,0.0,0.0,0.0,0.0,0.0,0.0,0.0,0.0,0.0,0.0,0.0,0.0,0.0,0.0,0.0,-3.3087,-3.2746,-3.2035,-3.0811,-3.0924,-3.0804,-3.0442,-3.0371,-3.0276,-2.9926,-2.947,-2.9043,-2.8759,-2.8341,-2.7985,-2.7565,0.0,-2.7629,-2.7647,-2.7792,-2.8,-2.8289,-2.7805,-2.7295,-2.6735,-2.5466,-2.4585,-2.3842,0.0,0.0,0.0,0.0,0.0,0.0,0.0,0.0,0.0,0.0,0.0,0.0,0.0,0.0,0.0,0.0,0.0,0.0,0.0,-5.0787,-5.0648,-5.102,-5.0771,-5.1095,-5.2221,-5.1346,-5.1249,-5.2005,-5.233,-5.2774,-5.3387,-5.3268,-5.287,-5.2235,-5.138,-5.0841,-5.0632,-5.057,-5.1058,-5.1866,0.0,0.0,0.0,0.0,0.0,0.0,0.0,0.0,0.0,0.0,0.0,0.0,0.0,0.0,0.0,-5.9546,-6.0385,-6.0785,-6.1119,-6.1499,-6.1069,-5.8242,0.0,0.0,0.0,0.0,0.0,0.0,0.0,0.0,0.0,0.0,0.0,0.0,0.0,0.0,0.0,0.0,0.0,0.0,0.0,0.0,0.0,0.0,0.0,0.0,0.0,0.0,-3.1856,-3.174,-3.1351,-3.0301,-3.061,-3.0666,-3.0412,-2.993,-2.9704,-2.9748,-2.9012,-2.8691,-2.8563,-2.7985,-2.7695,-2.742,-2.764,-2.7511,-2.723,-2.769,-2.8052,-2.8345,-2.7933,-2.7507,-2.6973,-2.5335,-2.456,-2.4172,0.0,0.0,0.0,0.0,0.0,0.0,0.0,0.0,0.0,0.0,0.0,0.0,0.0,0.0,0.0,0.0,0.0,0.0,0.0,-4.9358,-4.9257,-4.9956,-5.0199,-5.0752,-5.1722,-5.1434,-5.1383,-5.1758,-5.2216,-5.2659,-5.2937,-5.3336,-5.2768,-5.1281,-5.1836,-5.1606,-5.0849,-5.1589,-5.2001,-5.2102,-5.243,0.0,0.0,0.0,0.0,0.0,0.0,0.0,0.0,0.0,0.0,0.0,0.0,0.0,-5.7756,-5.8564,-5.9456,-6.003,-5.9745,-5.961,-5.9165,-5.7845,-5.743,0.0,-5.5665,-5.3953,0.0,-5.397,0.0,0.0,0.0,0.0,0.0,0.0,0.0,0.0,0.0,0.0,0.0,0.0,0.0,0.0,0.0,0.0,0.0,0.0,0.0,0.0,-3.17,-3.1713,-3.1355,-3.0307,-3.0355,-3.0376,-3.0371,-2.9428,-2.9051,-2.9409,-2.8835,-2.8563,-2.813,-2.742,-2.7129,-2.6998,-2.6538,-2.6546,-2.6944,-2.753,-2.811,-2.8351,-2.7848,-2.6675,-2.5199,-2.4786,-2.4402,-2.384,0.0,0.0,0.0,0.0,0.0,0.0,0.0,0.0,0.0,0.0,0.0,0.0,0.0,0.0,0.0,0.0,0.0,0.0,0.0,-4.8553,-4.846,-4.8847,-4.9305,-4.9891,-5.0571,-5.1511,-5.1811,-5.1454,-5.2442,-5.3151,-5.3667,-5.3228,-5.2785,-5.2318,-5.172,-5.1657,-5.2062,-5.1965,-5.2202,-5.2604,-5.2524,-5.2516,0.0,0.0,0.0,0.0,0.0,0.0,0.0,0.0,-5.427,-5.4651,-5.6596,-5.7214,-5.7423,-5.8571,-5.9313,-5.9755,-5.9944,-5.9971,-5.9795,-5.9206,-5.7893,0.0,0.0,-5.214,-5.0305,-5.0005,-4.9942,0.0,0.0,0.0,0.0,0.0,0.0,0.0,0.0,0.0,0.0,0.0,0.0,0.0,0.0,0.0,0.0,0.0,0.0,0.0,-3.0519,-3.0928,-3.0701,-2.9674,-3.0121,-3.0035,-2.9412,-2.8938,-2.8443,-2.7927,-2.7786,-2.7611,-2.7395,-2.6964,-2.6648,-2.6546,-2.6367,-2.6242,-2.6154,-2.6377,-2.6889,-2.7364,-2.7492,-2.689,-2.5936,-2.5361,-2.4918,-2.456,0.0,0.0,0.0,0.0,0.0,0.0,0.0,0.0,0.0,0.0,0.0,0.0,0.0,0.0,0.0,0.0,0.0,0.0,-4.8495,-4.8075,-4.7874,-4.7966,-4.8687,-4.9224,-4.9588,-5.1405,-5.1989,-5.1246,-5.2141,-5.2779,-5.3226,-5.2536,-5.2253,-5.2271,-5.1509,-5.1473,-5.2009,-5.1967,-5.2163,-5.243,-5.2416,-5.2373,0.0,0.0,0.0,0.0,0.0,0.0,0.0,0.0,-5.4283,-5.483,-5.6511,-5.6911,-5.7044,-5.827,-5.8497,-5.8668,-5.9776,-5.94,-5.8867,-5.9156,0.0,0.0,-5.3814,-5.112,-4.862,-4.7633,-4.7311,-4.775,-4.9213,0.0,0.0,0.0,0.0,0.0,0.0,0.0,0.0,0.0,0.0,0.0,0.0,0.0,0.0,0.0,0.0,0.0,0.0,-3.0628,-3.0516,-2.9602,-3.0072,-2.986,-2.8939,-2.8654,-2.7896,-2.697,-2.7001,-2.6907,-2.6766,-2.6457,-2.633,-2.6256,-2.6342,-2.6073,-2.5689,-2.5935,-2.6307,-2.6572,-2.7027,-2.6864,-2.6134,-2.5657,-2.54,-2.5192,0.0,0.0,0.0,0.0,0.0,0.0,0.0,0.0,0.0,0.0,0.0,0.0,0.0,0.0,0.0,0.0,0.0,0.0,-4.8642,-4.7911,-4.7529,-4.7529,-4.8543,-4.9025,-4.8912,-5.107,-5.1863,-5.1158,-5.1246,-5.1281,-5.1123,-5.1123,-5.0927,-5.0599,-5.1313,-5.1157,-5.0425,-5.1727,-5.198,-5.1591,-5.2146,-5.2373,-5.2407,0.0,0.0,0.0,0.0,0.0,0.0,0.0,-5.4382,-5.5413,-5.6138,-5.6369,-5.6612,-5.7496,-5.6955,-5.6556,-5.8921,-5.7538,-5.5709,0.0,0.0,0.0,-5.4286,-5.1577,-4.8805,-4.7876,-4.7318,-4.6775,-4.6236,0.0,0.0,0.0,0.0,0.0,0.0,0.0,0.0,0.0,0.0,0.0,0.0,0.0,0.0,0.0,0.0,0.0,0.0,-3.1048,-3.1078,-3.0397,-3.0122,-2.9763,-2.9319,-2.8157,-2.7317,-2.6755,-2.6687,-2.6466,-2.6018,-2.5912,-2.5913,-2.5941,-2.6256,-2.6093,-2.5828,-2.6581,-2.6608,-2.6129,-2.6558,-2.6254,-2.5504,-2.5504,-2.5383,-2.5309,0.0,0.0,0.0,0.0,0.0,0.0,0.0,0.0,0.0,0.0,0.0,0.0,0.0,0.0,0.0,0.0,0.0,0.0,-4.8495,-4.8502,-4.8367,-4.7921,-4.9124,-4.9973,-5.0277,-5.1836,-5.298,-5.3556,-5.2697,-5.2414,-5.2709,-5.2145,-5.159,-5.1118,-5.1275,-5.1511,-5.1725,-5.1988,-5.2175,-5.2254,-5.2203,-5.2455,-5.2884,0.0,0.0,0.0,0.0,0.0,0.0,0.0,0.0,0.0,-5.5545,-5.5189,-5.51,-5.6981,-5.6661,-5.6029,-5.7753,-5.709,0.0,-5.5194,0.0,0.0,0.0,-5.0258,0.0,0.0,-4.5373,-4.5088,-4.5553,0.0,0.0,0.0,0.0,0.0,0.0,0.0,0.0,0.0,0.0,0.0,0.0,0.0,0.0,0.0,0.0,0.0,0.0,-3.1228,-3.0962,-3.0139,-2.9948,-2.9352,-2.8174,-2.7391,-2.6697,-2.5932,-2.5692,-2.5592,-2.5681,-2.6158,-2.5997,-2.5496,-2.6111,-2.58,-2.5079,-2.575,-2.6122,-2.6224,-2.6461,-2.6354,-2.6129,-2.6336,-2.6017,-2.5396,0.0,0.0,0.0,0.0,0.0,0.0,0.0,0.0,0.0,0.0,-5.3597,-5.2935,0.0,0.0,0.0,0.0,0.0,0.0,0.0,-4.9336,-4.9298,-4.9079,-4.9983,-5.0823,-5.1619,-5.2494,-5.3369,-5.4198,-5.3218,-5.2941,-5.3324,-5.2459,-5.1913,-5.1765,-5.1452,-5.1549,-5.1993,-5.2194,-5.2213,-5.2154,-5.217,-5.2317,-5.2598,0.0,0.0,0.0,0.0,0.0,0.0,0.0,0.0,0.0,-5.571,-5.5404,-5.5377,-5.72,-5.6413,-5.5417,-5.7026,0.0,0.0,0.0,-5.2708,-5.1238,-4.8798,0.0,0.0,0.0,0.0,-4.3697,-4.3318,0.0,0.0,0.0,0.0,0.0,0.0,0.0,0.0,0.0,0.0,0.0,0.0,0.0,0.0,0.0,0.0,0.0,-3.1389,-3.1523,-3.119,-3.0088,-2.9749,-2.884,-2.7769,-2.6719,-2.6098,-2.5626,-2.5363,-2.5383,-2.5359,-2.5958,-2.579,-2.5272,-2.5725,-2.5618,-2.4902,-2.5744,-2.5912,-2.5917,-2.6017,-2.6059,-2.5824,-2.5978,-2.5867,-2.5418,0.0,0.0,0.0,0.0,0.0,0.0,0.0,0.0,0.0,0.0,-5.3822,-5.2895,0.0,0.0,0.0,0.0,0.0,0.0,0.0,-5.0322,-5.0268,-5.0735,-5.1086,-5.1731,-5.274,-5.3102,-5.3428,-5.3706,-5.3265,-5.3089,-5.3204,-5.2333,-5.201,-5.2209,-5.1634,-5.1414,-5.1451,-5.2198,-5.2224,-5.1691,-5.2113,-5.2158,-5.1958,-5.2581,0.0,0.0,0.0,0.0,0.0,0.0,0.0,0.0,-5.6224,-5.6253,-5.6478,-5.7738,-5.6296,-5.4792,0.0,0.0,0.0,0.0,0.0,0.0,0.0,0.0,0.0,0.0,0.0,0.0,0.0,0.0,0.0,0.0,0.0,0.0,0.0,0.0,0.0,0.0,0.0,0.0,0.0,0.0,0.0,0.0,0.0,0.0,-3.224,-3.2106,-3.164,-3.0415,-2.9355,-2.8441,-2.7781,-2.6279,-2.5649,-2.5581,-2.5449,-2.5248,-2.5066,-2.5388,-2.5411,-2.5054,-2.5228,-2.5338,-2.5352,-2.5965,-2.5814,-2.5226,-2.5653,-2.5506,-2.5267,-2.5296,-2.5291,-2.5405,0.0,0.0,0.0,0.0,0.0,0.0,0.0,0.0,0.0,0.0,0.0,0.0,0.0,0.0,0.0,0.0,0.0,0.0,0.0,-5.125,-5.1444,-5.197,-5.2748,-5.3251,-5.342,-5.407,-5.4548,-5.4687,-5.4185,-5.3836,-5.354,-5.3186,-5.2221,-5.082,-5.1263,-5.1123,-5.074,-5.1735,-5.2279,-5.253,-5.217,-5.2382,-5.2795,-5.266,-5.2823,0.0,0.0,0.0,0.0,0.0,0.0,0.0,-5.5273,-5.4665,-5.4741,-5.7029,-5.6272,0.0,0.0,0.0,0.0,0.0,0.0,0.0,0.0,0.0,0.0,0.0,0.0,0.0,0.0,0.0,0.0,0.0,0.0,0.0,0.0,0.0,0.0,0.0,0.0,0.0,0.0,0.0,0.0,0.0,0.0,-3.3763,-3.3065,-3.2929,-3.2196,-3.0432,-2.9355,-2.8584,-2.8069,-2.5914,-2.5149,-2.5845,-2.4565,-2.4216,-2.4645,-2.5525,-2.5958,-2.579,-2.4897,-2.4774,-2.5352,-2.5395,-2.5373,-2.5226,-2.5653,-2.5506,-2.5294,-2.6129,-2.606,-2.5431,0.0,0.0,0.0,0.0,0.0,0.0,0.0,0.0,0.0,0.0,0.0,0.0,0.0,0.0,0.0,0.0,0.0,0.0,0.0,0.0,-5.2431,-5.305,-5.3833,-5.4217,-5.4033,-5.4634,-5.4869,-5.4869,-5.4695,-5.4305,-5.3714,-5.2985,-5.2164,-5.136,-5.1184,-5.1347,-5.1814,-5.2649,-5.3123,-5.3402,-5.3235,-5.3231,-5.3367,-5.3139,-5.3363,-5.3887,-5.4403,0.0,0.0,0.0,0.0,0.0,0.0,0.0,-5.5159,-5.6788,-5.6454,0.0,0.0,0.0,0.0,0.0,0.0,0.0,0.0,0.0,0.0,0.0,0.0,0.0,0.0,0.0,0.0,0.0,0.0,0.0,0.0,0.0,0.0,0.0,0.0,0.0,0.0,0.0,0.0,0.0,0.0,-3.3993,-3.3169,-3.2799,-3.1884,-3.0417,-2.9017,-2.7925,-2.7303,-2.5455,-2.4914,-2.5365,-2.4232,-2.3904,-2.4238,-2.4667,-2.4839,-2.5011,-2.4341,-2.4419,-2.487,-2.5174,-2.5249,-2.5226,-2.5373,-2.5373,-2.5281,-2.5732,-2.5607,-2.5384,0.0,0.0,0.0,0.0,0.0,0.0,0.0,0.0,0.0,0.0,0.0,0.0,0.0,0.0,0.0,0.0,0.0,0.0,0.0,0.0,0.0,-5.3982,-5.4495,-5.4717,-5.4592,-5.5008,-5.5069,-5.4772,-5.4973,-5.4563,-5.3481,-5.2404,-5.1894,-5.1927,-5.1008,-5.146,-5.2894,-5.3423,-5.3723,-5.3933,-5.4302,-5.3987,-5.3335,-5.3388,-5.3656,-5.3937,-5.3937,-5.4082,-5.4468,-5.5182,0.0,0.0,0.0,0.0,-5.6099,-5.6611,0.0,0.0,0.0,0.0,0.0,0.0,0.0,0.0,0.0,0.0,0.0,0.0,0.0,0.0,0.0,0.0,0.0,0.0,0.0,0.0,0.0,0.0,0.0,0.0,0.0,0.0,0.0,0.0,0.0,0.0,0.0,-3.403,-3.3275,-3.245,-3.1525,-3.0361,-2.8581,-2.7142,-2.6335,-2.5155,-2.4659,-2.4735,-2.4188,-2.3969,-2.3816,-2.3406,-2.3543,-2.398,-2.3873,-2.4049,-2.4364,-2.4939,-2.5098,-2.5079,-2.5079,-2.5079,-2.5119,-2.512,-2.5077,-2.5157,0.0,0.0,0.0,0.0,0.0,0.0,0.0,0.0,0.0,0.0,-5.5131,-5.4938,0.0,0.0,0.0,0.0,0.0,0.0,0.0,0.0,0.0,-5.4818,-5.4834,-5.478,-5.478,-5.5626,-5.5688,-5.4992,-5.5306,-5.4326,-5.2108,-5.2113,-5.132,-4.9789,-4.9757,-5.0373,-5.1513,-5.192,-5.2744,-5.3789,-5.408,-5.347,-5.2236,-5.2627,-5.2539,-5.2184,-5.2027,-5.2412,-5.3054,-5.3515,-5.3789,0.0,0.0,0.0,0.0,0.0,0.0,0.0,0.0,0.0,0.0,0.0,0.0,0.0,0.0,0.0,0.0,0.0,0.0,0.0,0.0,0.0,0.0,0.0,0.0,0.0,0.0,0.0,0.0,0.0,0.0,0.0,0.0,0.0,0.0,0.0,-3.51,-3.4681,-3.3532,-3.2815,-3.1782,-3.0325,-2.8563,-2.7385,-2.7074,-2.5391,-2.4914,-2.5494,-2.4419,-2.3652,-2.2996,-2.2996,-2.327,-2.398,-2.361,-2.3768,-2.4364,-2.4363,-2.4515,-2.4636,-2.4636,-2.4636,-2.4676,-2.497,-2.5077,-2.513,0.0,0.0,0.0,0.0,0.0,0.0,0.0,0.0,0.0,0.0,0.0,-5.4651,0.0,0.0,0.0,0.0,0.0,0.0,0.0,0.0,0.0,-5.478,-5.5035,-5.5277,-5.5403,-5.5813,-5.5939,-5.5741,-5.5778,-5.4463,-5.1966,-5.1499,-5.0454,-4.8922,-4.9244,-4.9915,-5.0992,-5.172,-5.2797,-5.424,-5.4384,-5.398,-5.3367,-5.3383,-5.3117,-5.2667,-5.1809,-5.2103,-5.2879,-5.3028,-5.3278,-5.3592,-5.4159,0.0,0.0,0.0,0.0,0.0,0.0,0.0,0.0,0.0,0.0,0.0,0.0,0.0,0.0,0.0,0.0,0.0,0.0,0.0,0.0,0.0,0.0,0.0,0.0,0.0,0.0,0.0,0.0,0.0,0.0,0.0,0.0,0.0,-3.4635,-3.3917,-3.26,-3.2175,-3.1191,-2.9687,-2.8186,-2.7118,-2.6631,-2.5412,-2.483,-2.4746,-2.4232,-2.3543,-2.2859,-2.2859,-2.3133,-2.3434,-2.3332,-2.3628,-2.4079,-2.4088,-2.4369,-2.4636,-2.4636,-2.4636,-2.4649,-2.4783,-2.4836,-2.4877,0.0,0.0,0.0,0.0,0.0,0.0,0.0,0.0,0.0,0.0,0.0,0.0,0.0,0.0,0.0,0.0,0.0,0.0,0.0,0.0,0.0,-5.4931,-5.5386,-5.5865,-5.6264,-5.6437,-5.6564,-5.6641,-5.6293,-5.4903,-5.2549,-5.1582,-5.0402,-4.8986,-4.8834,-4.9658,-5.112,-5.153,-5.2734,-5.4261,-5.4083,-5.3732,-5.3391,-5.3025,-5.2618,-5.1999,-5.0789,-5.0877,-5.1654,-5.1698,-5.2021,-5.2376,-5.2744,0.0,0.0,0.0,0.0,0.0,0.0,0.0,0.0,0.0,0.0,0.0,0.0,0.0,0.0,0.0,0.0,0.0,0.0,0.0,0.0,0.0,0.0,0.0,0.0,0.0,0.0,0.0,0.0,0.0,0.0,0.0,0.0,0.0,-3.4312,-3.3355,-3.2171,-3.1321,-3.0424,-2.9224,-2.7756,-2.6599,-2.6005,-2.5358,-2.4596,-2.3966,-2.3966,-2.3543,-2.2859,-2.2859,-2.2899,-2.2993,-2.322,-2.35,-2.3794,-2.4088,-2.4369,-2.4636,-2.4636,-2.4636,-2.4636,-2.4636,-2.4636,-2.4663,0.0,0.0,0.0,0.0,0.0,0.0,0.0,0.0,0.0,0.0,0.0,0.0,-5.3419,-5.3543,-5.3334,-5.2304,-5.1601,-5.1687,-5.2683,-5.4105,-5.5223,-5.6105,-5.5952,0.0,-5.7219,-5.795,-5.795,-5.7254,-5.6898,-5.5689,-5.374,-5.3096,-5.19,-5.005,-4.8383,-4.9281,-5.1878,-5.1058,-5.1678,-5.3311,-5.256,-5.1661,-5.0661,-5.0239,-4.9513,-4.8683,-4.7815,-4.7662,-4.7882,-4.8654,-4.8984,-4.9432,-5.0979,-5.1528,0.0,0.0,0.0,0.0,0.0,0.0,0.0,0.0,0.0,0.0,0.0,0.0,0.0,0.0,0.0,0.0,0.0,0.0,0.0,0.0,0.0,0.0,0.0,0.0,0.0,0.0,0.0,0.0,0.0,0.0,0.0,0.0,-3.4675,-3.3554,-3.2793,-3.1142,-2.9842,-2.9195,-2.7512,-2.6358,-2.5596,-2.4966,-2.4463,-2.3966,-2.3966,-2.3543,-2.2859,-2.2859,-2.302,-2.33,-2.3313,-2.35,-2.3794,-2.4088,-2.4369,-2.4636,-2.4636,-2.4636,-2.4636,-2.4636,-2.4636,-2.4636,0.0,0.0,0.0,0.0,0.0,0.0,0.0,0.0,0.0,0.0,0.0,0.0,0.0,-5.2881,-5.2593,-5.2066,-5.2201,-5.2621,-5.3356,-5.4641,-5.5484,-5.5825,-5.6245,-5.6932,-5.7825,-5.7904,-5.7838,-5.7694,-5.7428,-5.644,-5.4824,-5.415,-5.3563,-5.2909,-5.0764,-5.0185,-5.1029,-5.0351,-5.1334,-5.3232,-5.2002,-5.1271,-5.1079,-5.094,-5.0005,-4.8566,-4.7884,-4.8009,-4.8336,-4.7941,-4.8163,-4.8822,-4.9428,-5.0208,-5.1213,0.0,0.0,0.0,0.0,0.0,0.0,0.0,0.0,0.0,0.0,0.0,0.0,0.0,0.0,0.0,0.0,0.0,0.0,0.0,0.0,0.0,0.0,0.0,0.0,0.0,0.0,0.0,0.0,0.0,0.0,0.0,0.0,-3.3636,-3.3144,-3.1228,-2.9956,-2.9485,-2.7838,-2.6533,-2.5546,-2.5145,-2.4665,-2.3966,-2.3966,-2.3543,-2.2859,-2.2859,-2.3033,-2.334,-2.3527,-2.3781,-2.4075,-2.4369,-2.4543,-2.4636,-2.4636,-2.4636,-2.4636,-2.4636,-2.4636,-2.4636,0.0,0.0,0.0,0.0,0.0,0.0,0.0,0.0,-5.3906,-5.3853,0.0,0.0,0.0,0.0,-5.2125,-5.1876,-5.2684,-5.345,-5.4009,-5.5006,-5.5809,-5.6422,-5.6808,-5.7463,-5.849,-5.8084,-5.7947,-5.8084,-5.7672,-5.702,-5.5984,-5.542,-5.5065,-5.4939,-5.3155,-5.2162,-5.184,-5.1208,-5.185,-5.3139,-5.1173,-5.0445,-5.0336,-4.9493,-4.8423,-4.731,-4.668,-4.6708,-4.7024,-4.6283,-4.6505,-4.7135,-4.7633,-4.9014,-5.0787,-5.1968,0.0,0.0,0.0,0.0,0.0,0.0,0.0,0.0,0.0,0.0,0.0,0.0,0.0,0.0,0.0,0.0,0.0,0.0,0.0,0.0,0.0,0.0,0.0,0.0,0.0,0.0,0.0,0.0,0.0,0.0,0.0,0.0,-3.3001,-3.1114,-2.9726,-2.8845,-2.7573,-2.6433,-2.5592,-2.5187,-2.4645,-2.3966,-2.3816,-2.3543,-2.2859,-2.2859,-2.3086,-2.3487,-2.3688,-2.3875,-2.4088,-2.4476,-2.4583,-2.4502,-2.4596,-2.4636,-2.4636,-2.4636,-2.4636,-2.4636,0.0,0.0,0.0,0.0,0.0,0.0,0.0,0.0,-5.378,-5.4332,0.0,0.0,0.0,0.0,0.0,-5.192,-5.3067,-5.4044,-5.4529,-5.5094,-5.6225,-5.8074,-5.7604,-5.7809,-5.8978,-5.8701,-5.849,-5.849,-5.7738,-5.7223,-5.7117,-5.6904,-5.6544,-5.5913,-5.5502,-5.4952,-5.4285,-5.3601,-5.3315,-5.3082,-5.0265,-4.8953,-4.8269,-4.5711,-4.4809,-4.4617,-4.3713,-4.3521,-4.3623,-4.3623,-4.3702,-4.4122,-4.5616,-4.8058,-5.0323,-5.0757,-5.1516,0.0,0.0,0.0,0.0,0.0,0.0,0.0,0.0,0.0,0.0,0.0,0.0,0.0,0.0,0.0,0.0,0.0,0.0,0.0,0.0,0.0,0.0,0.0,0.0,0.0,0.0,0.0,0.0,0.0,-3.4267,-3.304,-3.2401,-3.0655,-2.9007,-2.7328,-2.6495,-2.5996,-2.5592,-2.4916,-2.436,-2.3966,-2.3543,-2.327,-2.2859,-2.2873,-2.3193,-2.3754,-2.3768,-2.3768,-2.3808,-2.4382,-2.4449,-2.4235,-2.4516,-2.4623,-2.4636,-2.4636,-2.4636,-2.4636,0.0,0.0,0.0,0.0,0.0,0.0,-5.387,-5.3481,-5.3408,0.0,0.0,0.0,-5.3279,-5.2738,-5.2802,-5.4174,-5.4495,-5.5022,-5.585,-5.6225,-5.6776,-5.7501,-5.7535,-5.7912,-5.8597,-5.8385,-5.8277,-5.8277,-5.8038,-5.7865,-5.7649,-5.7722,-5.7577,-5.7137,-5.6854,-5.6459,-5.5908,-5.3859,0.0,-5.2303,-5.0674,-4.9086,0.0,0.0,0.0,0.0,0.0,-4.3831,-4.3251,-4.3284,-4.317,-4.3355,-4.6024,-4.7741,-4.904,-5.0663,-5.0738,-5.0412,-5.0508,0.0,0.0,0.0,0.0,0.0,0.0,0.0,0.0,0.0,0.0,0.0,0.0,0.0,0.0,0.0,0.0,0.0,0.0,0.0,0.0,0.0,0.0,0.0,0.0,0.0,0.0,0.0,-3.4636,-3.353,-3.3473,-3.1084,-2.9163,-2.7977,-2.6761,-2.6011,-2.5996,-2.5322,-2.4645,-2.3966,-2.3816,-2.3543,-2.2873,-2.31,-2.3287,-2.3474,-2.3901,-2.3848,-2.35,-2.4088,-2.4275,-2.4209,-2.4289,-2.4449,-2.4636,-2.4636,-2.4636,-2.4636,0.0,0.0,0.0,0.0,0.0,-5.3757,-5.3678,-5.3534,-5.3705,0.0,0.0,0.0,-5.3278,-5.3175,-5.3414,-5.4305,-5.4695,-5.5375,-5.6402,-5.6505,-5.6918,-5.7773,-5.7737,-5.7941,-5.8419,-5.8205,-5.8027,-5.8027,-5.8027,-5.8027,-5.7881,-5.7954,-5.7808,-5.7588,-5.7289,0.0,-5.6757,0.0,0.0,0.0,-5.0892,0.0,0.0,-4.6139,-4.489,0.0,0.0,0.0,-4.2578,-4.2576,-4.2645,-4.322,-4.5496,-4.6768,-4.7808,-4.9509,-4.9756,-4.9375,-4.9542,-4.8724,0.0,0.0,0.0,0.0,0.0,-4.2856,0.0,0.0,0.0,0.0,0.0,0.0,0.0,0.0,0.0,0.0,0.0,0.0,0.0,0.0,0.0,0.0,0.0,-3.8179,-3.7451,-3.5911,-3.4429,-3.3289,-3.2638,-3.0843,-2.9327,-2.8471,-2.7222,-2.6532,-2.6398,-2.5457,-2.4645,-2.3966,-2.3816,-2.3406,-2.2873,-2.318,-2.3327,-2.3354,-2.3821,-2.3754,-2.3367,-2.3834,-2.4022,-2.4035,-2.4155,-2.4382,-2.4636,-2.4636,-2.4784,-2.4931,0.0,0.0,0.0,-5.3756,-5.3641,-5.3524,-5.344,-5.3696,-5.4118,0.0,-5.4517,-5.4116,-5.3556,-5.3777,-5.3878,-5.3563,-5.4385,-5.5391,-5.6472,-5.644,-5.6986,-5.8351,-5.8099,-5.7954,-5.8171,-5.7954,-5.7881,-5.7881,-5.7881,-5.7881,-5.7881,-5.7729,-5.7722,-5.7648,-5.7272,0.0,0.0,0.0,0.0,-5.3497,-5.1109,-4.9433,0.0,0.0,-4.3738,-4.3492,-4.2425,-4.1859,-4.1606,-4.1492,-4.2202,0.0,0.0,0.0,0.0,0.0,-4.8465,-4.8496,-4.8267,-4.7476,-4.6463,-4.5119,0.0,0.0,-4.1847,-4.2073,-4.2202,0.0,0.0,0.0,0.0,0.0,0.0,0.0,0.0,0.0,0.0,0.0,0.0,0.0,0.0,0.0,-3.7965,-3.7688,-3.6967,-3.5046,-3.4047,-3.2785,-3.1267,-3.0343,-2.9561,-2.8939,-2.7865,-2.7067,-2.6666,-2.5712,-2.4781,-2.4008,-2.3735,-2.3324,-2.2926,-2.3273,-2.3367,-2.33,-2.3661,-2.3634,-2.3354,-2.3789,-2.3768,-2.3794,-2.4088,-2.4382,-2.4636,-2.4636,-2.4931,-2.5226,0.0,0.0,0.0,-5.3561,-5.34,-5.3235,-5.3109,-5.2826,-5.2904,-5.3604,-5.3703,-5.4005,-5.4723,-5.4325,-5.4235,-5.4952,-5.5512,-5.62,-5.6951,-5.7209,-5.7504,-5.8027,-5.7954,-5.7881,-5.7954,-5.7881,-5.7881,-5.7881,-5.7735,-5.7662,-5.7662,-5.8043,-5.8193,-5.804,-5.7886,-5.7731,0.0,0.0,0.0,-5.3858,-5.1604,0.0,-4.656,-4.4587,-4.3295,-4.2425,-4.2199,-4.1769,-4.1287,-4.0942,-4.133,-4.2141,0.0,0.0,0.0,-4.725,0.0,0.0,0.0,-4.5213,-4.3987,0.0,-4.2387,0.0,-4.1604,-4.1496,-4.1047,0.0,0.0,0.0,0.0,0.0,0.0,0.0,0.0,0.0,0.0,0.0,0.0,0.0,0.0,0.0,-3.8676,-3.7887,-3.6868,-3.5418,-3.4173,-3.3292,-3.2912,-3.123,-3.0195,-3.0065,-2.8493,-2.7318,-2.6666,-2.6115,-2.529,-2.433,-2.4178,-2.3914,-2.326,-2.3794,-2.3634,-2.2993,-2.3781,-2.395,-2.3746,-2.4045,-2.4039,-2.3794,-2.4088,-2.4528,-2.5079,-2.5079,-2.5373,-2.58,0.0,-5.3754,0.0,0.0,0.0,-5.306,-5.2893,-5.2862,-5.3075,-5.3634,-5.3989,-5.4266,-5.451,-5.4143,-5.393,-5.4126,-5.4359,-5.4783,-5.5548,-5.5954,-5.6521,-5.7222,-5.7588,-5.7808,-5.7881,-5.7808,-5.7735,-5.7735,-5.7514,-5.7641,-5.801,-5.8151,-5.8163,-5.8086,-5.7852,-5.7343,0.0,0.0,-5.5027,-5.3282,-5.1577,0.0,-4.8274,-4.5543,-4.4227,-4.361,-4.2941,-4.2152,-4.1402,-4.1057,-4.1242,0.0,-4.2967,-4.3651,-4.4327,0.0,-4.5907,-4.5282,0.0,0.0,0.0,-4.1772,-4.1078,0.0,0.0,-4.0135,-3.9946,0.0,0.0,0.0,0.0,0.0,0.0,0.0,0.0,0.0,0.0,0.0,0.0,0.0,0.0,0.0,-3.9226,-3.8408,-3.7299,-3.5701,-3.4632,-3.375,-3.3219,-3.1727,-3.0584,-3.0065,-2.8774,-2.7849,-2.7467,-2.6687,-2.5906,-2.4968,-2.4707,-2.4148,-2.334,-2.3781,-2.3581,-2.2899,-2.3661,-2.4012,-2.3899,-2.4208,-2.4317,-2.435,-2.4651,-2.5098,-2.552,-2.552,-2.58,-2.6093,-5.3676,-5.3558,0.0,0.0,0.0,0.0,-5.2761,-5.3132,-5.3576,-5.4116,-5.4326,-5.4224,-5.3751,-5.3551,-5.3142,-5.2544,-5.2548,-5.29,-5.3574,-5.4202,-5.5031,-5.6237,-5.703,-5.7514,-5.7735,-5.7588,-5.7514,-5.7514,-5.7364,-5.7591,-5.8117,-5.8174,-5.8163,-5.8086,-5.7727,-5.6808,0.0,0.0,0.0,-5.2562,0.0,-5.0713,-4.9839,-4.6404,-4.5042,-4.4728,-4.3476,-4.2313,-4.1378,-4.1172,-4.1266,-4.1569,-4.2365,-4.284,0.0,0.0,0.0,0.0,0.0,0.0,0.0,0.0,0.0,-3.9707,0.0,0.0,0.0,0.0,0.0,0.0,0.0,0.0,0.0,0.0,0.0,0.0,0.0,0.0,0.0,0.0,0.0,0.0,0.0,-3.8853,-3.7734,-3.599,-3.53,-3.4527,-3.3527,-3.2319,-3.1192,-3.0083,-2.9036,-2.8527,-2.813,-2.7264,-2.6375,-2.5622,-2.5242,-2.4537,-2.3561,-2.3856,-2.3795,-2.3255,-2.3741,-2.4018,-2.4357,-2.4371,-2.4726,-2.5272,-2.5254,-2.5464,-2.5763,-2.5763,-2.5909,-2.6358,-5.3481,-5.3396,-5.3188,0.0,0.0,0.0,0.0,-5.2979,-5.3591,-5.4323,-5.3833,-5.3297,-5.309,-5.2606,-5.1891,-5.0914,-5.1288,-5.1706,-5.1928,-5.3279,-5.4294,-5.4987,-5.6192,-5.6911,-5.7063,-5.7289,-5.7364,-5.7364,-5.7289,-5.7248,-5.7196,-5.8017,-5.8241,-5.8086,-5.7885,0.0,0.0,0.0,-5.3939,0.0,-5.122,-4.9756,0.0,-4.5625,-4.4156,-4.3159,-4.2188,-4.1329,-4.0826,0.0,-4.0812,-4.0992,0.0,-4.208,-4.2449,-4.3614,0.0,0.0,0.0,0.0,0.0,0.0,-3.8331,-3.8262,0.0,0.0,-3.8225,-3.8754,0.0,0.0,0.0,0.0,0.0,0.0,0.0,0.0,0.0,0.0,0.0,0.0,0.0,0.0,0.0,-3.8693,-3.7361,-3.6269,-3.6099,-3.5767,-3.4852,-3.3618,-3.2245,-3.0732,-2.9935,-2.902,-2.7849,-2.7685,-2.7046,-2.5819,-2.5855,-2.527,-2.4154,-2.4856,-2.4804,-2.4219,-2.4303,-2.4904,-2.5798,-2.5456,-2.5797,-2.6171,-2.5194,-2.5054,-2.5413,-2.5413,-2.5696,-2.5993,-5.3625,-5.364,-5.3609,0.0,0.0,0.0,0.0,-5.3046,-5.3512,-5.3718,-5.3283,-5.2704,-5.2042,-5.1527,-5.0818,-4.9792,0.0,-4.991,0.0,0.0,-5.2229,-5.3009,-5.4557,-5.5555,-5.573,-5.627,-5.6647,-5.6987,-5.6987,-5.7143,-5.7498,-5.7953,-5.8086,-5.793,-5.7727,0.0,-5.4758,0.0,-5.3088,0.0,0.0,0.0,0.0,-4.6648,-4.5315,-4.3609,-4.2016,-4.0918,-4.0211,0.0,-3.9842,0.0,0.0,0.0,0.0,-4.2499,0.0,0.0,0.0,0.0,0.0,0.0,0.0,0.0,-3.7642,0.0,-3.7263,0.0,0.0,0.0,0.0,0.0,0.0,0.0,0.0,0.0,0.0,0.0,0.0,0.0,0.0,0.0,0.0,0.0,0.0,0.0,-3.7102,-3.6595,-3.5611,-3.444,-3.2918,-3.1222,-3.0513,-2.9864,-2.8977,-2.8317,-2.7555,-2.6848,-2.5999,-2.5184,-2.4337,-2.4589,-2.4581,-2.4176,-2.4526,-2.5116,-2.5655,-2.5413,-2.5684,-2.6081,-2.5371,-2.5427,-2.5722,-2.5722,-2.5877,-2.6018,-5.3659,-5.3785,-5.3754,0.0,0.0,0.0,0.0,0.0,-5.3334,-5.3254,-5.2704,-5.2006,-5.097,-5.035,0.0,0.0,-4.8404,-4.8384,0.0,0.0,-5.0541,-5.1053,-5.3015,-5.4147,-5.4327,-5.5099,-5.5733,-5.6283,-5.6513,-5.6945,-5.7475,-5.7786,-5.7786,-5.7631,0.0,-5.6163,-5.4052,0.0,0.0,-5.0353,-4.9856,-4.8872,-4.7722,-4.6828,-4.5412,-4.3675,-4.1888,-4.0595,-3.9842,-3.9149,-3.9094,0.0,-3.9758,0.0,-4.0517,0.0,0.0,0.0,-3.9322,0.0,0.0,0.0,0.0,0.0,0.0,0.0,0.0,0.0,0.0,0.0,0.0,0.0,0.0,0.0,0.0,0.0,0.0,0.0,0.0,0.0,0.0,0.0,0.0,0.0,0.0,-3.8191,-3.7881,-3.7217,-3.615,-3.5059,-3.3615,-3.1751,-3.1102,-3.0462,-2.9918,-2.9012,-2.8177,-2.7611,-2.6471,-2.547,-2.4607,-2.4734,-2.4582,-2.438,-2.4833,-2.5271,-2.5739,-2.5584,-2.5655,-2.6018,-2.5722,-2.5761,-2.5893,-2.5893,-2.5893,-2.5893,-5.3412,-5.3508,0.0,0.0,0.0,0.0,0.0,0.0,0.0,0.0,0.0,0.0,0.0,0.0,0.0,0.0,0.0,-4.7595,-4.7178,0.0,-4.9785,0.0,0.0,-5.267,-5.3009,-5.3852,-5.4571,-5.5271,-5.6235,-5.6713,-5.6713,-5.7172,-5.7323,-5.7323,-5.7096,-5.6155,-5.4624,-5.3678,-5.2001,-5.0018,-4.8925,-4.8242,-4.7589,0.0,-4.3644,-4.246,-4.1274,0.0,0.0,-3.8648,-3.8424,0.0,0.0,0.0,0.0,0.0,0.0,0.0,0.0,0.0,0.0,-3.6495,0.0,0.0,0.0,0.0,-3.5623,0.0,0.0,0.0,0.0,0.0,-3.5893,-3.7156,0.0,0.0,0.0,0.0,0.0,0.0,0.0,0.0,0.0,0.0,0.0,-3.8191,-3.8171,-3.7698,-3.6435,-3.5732,-3.4318,-3.2168,-3.1648,-3.099,-2.9883,-2.9437,-2.8898,-2.802,-2.7327,-2.6452,-2.544,-2.5736,-2.5688,-2.552,-2.5535,-2.59,-2.6457,-2.6164,-2.6032,-2.6018,-2.6018,-2.5775,-2.5622,-2.5622,-2.5622,-2.5622,-5.3101,-5.2821,0.0,0.0,0.0,0.0,0.0,-5.2055,0.0,0.0,0.0,0.0,0.0,-4.8114,-4.7518,0.0,0.0,-4.6456,-4.6679,-4.7319,0.0,0.0,0.0,-5.0698,0.0,-5.2063,-5.2785,-5.3148,-5.4633,-5.5312,-5.5361,-5.6381,-5.6911,-5.6911,0.0,-5.6075,0.0,0.0,0.0,0.0,0.0,-4.7047,-4.6055,0.0,-4.4106,-4.2997,-4.1448,-3.9696,0.0,-3.7206,-3.6989,-3.7018,-3.7081,-3.7219,-3.7561,-3.7599,-3.7442,-3.7061,0.0,0.0,-3.6138,-3.5821,0.0,0.0,0.0,0.0,0.0,0.0,0.0,0.0,0.0,0.0,0.0,-3.6206,-3.7039,0.0,0.0,0.0,0.0,0.0,0.0,0.0,0.0,0.0,0.0,-3.815,-3.8191,-3.7975,-3.7258,-3.6043,-3.4739,-3.3262,-3.2566,-3.1767,-3.0685,-2.9921,-2.9122,-2.8177,-2.6914,-2.5924,-2.514,-2.5427,-2.561,-2.5549,-2.5693,-2.5896,-2.6164,-2.6061,-2.6026,-2.6126,-2.6126,-2.6115,-2.6299,-2.5546,-2.5726,-2.6254,-5.2636,0.0,0.0,0.0,0.0,0.0,0.0,0.0,0.0,0.0,-4.93,0.0,-4.756,0.0,-4.7086,0.0,-4.6542,-4.6616,-4.6401,-4.6823,0.0,-4.7568,-4.8454,0.0,0.0,0.0,0.0,-5.2178,-5.3615,-5.4581,-5.5024,-5.6119,-5.668,-5.6911,0.0,-5.6297,-5.4889,0.0,-5.1719,0.0,0.0,-4.6103,0.0,0.0,-4.3591,-4.2808,0.0,-3.8767,-3.702,-3.615,-3.5848,-3.5892,-3.5938,-3.6207,-3.6451,-3.6499,-3.6455,-3.6274,-3.5983,-3.5781,0.0,-3.5268,-3.529,0.0,-3.5378,0.0,-3.5046,0.0,0.0,0.0,0.0,0.0,0.0,0.0,-3.6307,0.0,0.0,-3.6104,0.0,0.0,0.0,0.0,0.0,0.0,-3.7612,-3.7922,-3.8088,-3.8037,0.0,0.0,-3.5162,-3.4078,-3.312,-3.2173,-3.1217,-3.0178,-2.9264,-2.8318,-2.6833,-2.5664,-2.512,-2.5397,-2.5495,-2.5549,-2.5693,-2.5809,-2.6003,-2.604,-2.6002,-2.61,-2.6223,-2.6497,-2.674,-2.6118,-2.6239,-2.6725,-5.1966,0.0,0.0,0.0,-5.073,0.0,0.0,0.0,-4.9462,0.0,-4.8009,-4.7278,-4.6451,-4.695,-4.7053,-4.6428,-4.7471,-4.7658,-4.6614,-4.7438,0.0,0.0,-4.7715,-4.824,-4.8977,0.0,0.0,0.0,0.0,0.0,-5.5782,-5.6188,-5.668,-5.7289,-5.7289,0.0,-5.5861,-5.3596,-5.1912,-5.0554,-4.7144,-4.5423,-4.4513,-4.2965,-4.2128,-4.157,-3.9139,-3.7722,-3.6773,-3.54,-3.5043,-3.5216,-3.5335,-3.5513,-3.5668,-3.5778,-3.5643,-3.5423,-3.5423,-3.5423,-3.5312,-3.5091,-3.498,0.0,0.0,0.0,-3.4423,0.0,0.0,0.0,0.0,0.0,0.0,0.0,0.0,0.0,0.0,0.0,0.0,0.0,0.0,0.0,0.0,0.0,-3.7446,-3.7488,-3.7902,0.0,0.0,0.0,-3.5529,-3.4277,-3.3188,-3.2368,-3.1508,-3.0186,-2.9163,-2.871,-2.697,-2.5977,-2.5535,-2.5564,-2.5564,-2.5549,-2.5564,-2.574,-2.5974,-2.6082,-2.6085,-2.6207,-2.6466,-2.6876,-2.718,-2.7211,-2.7139,-2.6983,-5.0792,-5.0342,-4.9666,0.0,-4.9627,-4.9917,0.0,0.0,0.0,0.0,-4.6707,-4.6474,-4.6161,-4.6463,-4.6613,-4.6533,-4.6909,0.0,0.0,0.0,0.0,-4.7875,-4.8211,-4.8195,-4.8052,-4.8767,-4.9452,-5.0154,0.0,0.0,-5.4366,0.0,-5.6603,0.0,0.0,0.0,-5.6211,-5.4253,-5.1349,-4.7965,-4.5758,-4.4508,-4.3746,0.0,-4.0636,-3.9643,-3.8383,-3.6983,-3.5511,-3.5091,-3.4845,-3.4687,-3.5024,-3.518,-3.5246,-3.5468,-3.5312,-3.5091,-3.5091,-3.4869,-3.4758,-3.498,-3.4758,-3.4646,0.0,0.0,0.0,0.0,0.0,0.0,0.0,0.0,0.0,0.0,0.0,0.0,0.0,0.0,0.0,-3.4507,0.0,0.0,0.0,-3.6328,-3.6763,-3.7446,-3.7612,0.0,0.0,0.0,0.0,-3.4391,-3.3182,-3.1951,-3.072,-3.0076,-2.92,-2.7979,-2.7214,-2.6409,-2.5549,-2.5736,-2.5838,-2.59,-2.6135,-2.6158,-2.6067,-2.639,-2.6481,-2.6522,-2.6656,-2.7082,-2.7516,-2.7478,-2.6839,-2.5751,-4.948,0.0,0.0,-4.86,0.0,0.0,-4.8147,0.0,0.0,-4.6393,-4.6278,0.0,-4.5872,-4.6261,-4.662,-4.6428,-4.6922,0.0,-4.7363,0.0,0.0,-4.7335,-4.7724,-4.7735,-4.7543,-4.8246,0.0,-4.9841,0.0,0.0,-5.4041,0.0,0.0,0.0,0.0,-5.7063,0.0,-5.389,-5.0369,-4.6381,-4.5131,-4.3606,0.0,-4.066,-3.9172,-3.7864,-3.7045,-3.6036,-3.498,-3.4869,-3.4758,-3.4758,-3.5091,-3.5202,-3.5312,-3.5423,-3.5312,-3.5091,-3.4869,-3.4646,-3.4534,-3.4758,-3.4646,-3.4534,-3.4758,-3.4199,-3.3614,0.0,-3.314,-3.2747,-3.2954,0.0,0.0,0.0,0.0,0.0,0.0,0.0,0.0,0.0,-3.4423,0.0,0.0,0.0,-3.6411,-3.7395,0.0,0.0,0.0,0.0,0.0,-3.4355,-3.3391,-3.2076,-3.0394,-2.9921,-2.9126,-2.817,-2.729,-2.6578,-2.5948,-2.6055,-2.6114,-2.6215,-2.626,-2.6294,-2.6345,-2.6602,-2.6703,-2.6682,-2.6957,-2.705,-2.7025,-2.7153,-2.6572,-2.5877,-4.8095,0.0,0.0,0.0,0.0,0.0,0.0,-4.6899,0.0,-4.6347,0.0,-4.6079,-4.5741,-4.6374,-4.6687,-4.6428,0.0,-4.7553,-4.7032,-4.7157,-4.7053,-4.6533,-4.692,-4.7169,-4.7162,-4.773,-4.8686,0.0,0.0,0.0,0.0,0.0,0.0,0.0,0.0,0.0,0.0,-5.2728,-4.9193,-4.57,-4.4751,-4.2766,-4.0306,-3.9467,-3.8032,-3.6521,-3.5713,-3.5202,-3.4869,-3.4646,-3.4758,-3.5091,-3.5312,-3.5643,-3.573,-3.5533,-3.5423,-3.5312,-3.4758,-3.4534,-3.4423,-3.4423,-3.4289,-3.4289,-3.4289,-3.384,-3.3388,-3.3367,-3.2799,-3.258,-3.2854,0.0,0.0,0.0,0.0,0.0,0.0,0.0,0.0,0.0,0.0,0.0,0.0,0.0,0.0,0.0,0.0,0.0,0.0,0.0,0.0,-3.4374,-3.3523,-3.2279,-3.0493,-2.9847,-2.9304,-2.8834,-2.7446,-2.6737,-2.6695,-2.6435,-2.6405,-2.6603,-2.6313,-2.6329,-2.6663,-2.6775,-2.68,-2.6831,-2.7264,-2.6916,-2.6176,-2.6205,-2.6275,-2.629,0.0,0.0,0.0,0.0,0.0,-4.6083,-4.5865,-4.5886,-4.5861,-4.5767,-4.5786,-4.5917,-4.5899,-4.6229,-4.6456,-4.6533,-4.7087,0.0,0.0,0.0,0.0,-4.6791,-4.7147,-4.7131,-4.6516,-4.7325,-4.8192,0.0,0.0,0.0,0.0,0.0,0.0,0.0,0.0,0.0,-5.3341,-5.071,0.0,-4.5647,-4.3612,-4.1619,-3.9944,-3.9108,-3.792,-3.6521,-3.5713,-3.5091,-3.4534,-3.4534,-3.4758,-3.5091,-3.5312,-3.5643,-3.5753,-3.573,-3.5533,-3.5312,-3.498,-3.4311,-3.3727,-3.3727,-3.3388,-3.3027,-3.3027,-3.2592,-3.2018,-3.1787,-3.1441,-3.1132,-3.0605,0.0,0.0,0.0,0.0,0.0,0.0,0.0,0.0,0.0,0.0,-3.3243,0.0,0.0,0.0,0.0,0.0,0.0,0.0,0.0,0.0,0.0,-3.3521,0.0,0.0,0.0,-2.9453,-2.876,-2.8131,-2.7632,-2.7031,-2.6892,-2.674,-2.6603,-2.683,-2.6811,-2.6744,-2.6949,-2.7067,-2.7067,-2.6579,-2.6445,-2.6398,-2.5305,-2.5213,-2.5665,0.0,0.0,0.0,0.0,0.0,0.0,0.0,-4.5861,-4.5777,-4.6058,-4.6079,-4.6063,-4.6242,-4.6419,-4.6469,-4.6665,-4.6796,-4.6977,-4.7288,-4.7157,-4.6742,-4.598,-4.6461,-4.6303,-4.5558,-4.6516,-4.7217,-4.7893,0.0,0.0,-5.2205,0.0,0.0,0.0,0.0,-5.3082,0.0,0.0,0.0,-4.4983,-4.3159,-4.1148,-3.9273,-3.8958,-3.7765,-3.6092,-3.5893,-3.5424,-3.4758,-3.4534,-3.4758,-3.5091,-3.5312,-3.5533,-3.5643,-3.5643,-3.5423,-3.5091,-3.4423,-3.3974,-3.3501,-3.3161,-3.2913,-3.2685,-3.2685,-3.2227,-3.1672,-3.1325,-3.0976,-3.0509,-3.0039,-2.9868,-2.9792,-2.9766,0.0,0.0,0.0,0.0,-3.099,0.0,0.0,0.0,0.0,0.0,0.0,0.0,0.0,0.0,0.0,0.0,0.0,0.0,0.0,0.0,-3.0446,0.0,-3.0078,-2.9352,-2.8773,-2.8146,-2.7663,-2.7216,-2.709,-2.69,-2.7035,-2.7075,-2.6934,-2.7067,-2.7067,-2.6934,-2.6517,-2.6115,-2.5712,-2.5322,-2.5052,-2.4931,0.0,-4.6195,0.0,0.0,-4.5808,0.0,-4.6384,-4.6152,-4.5928,-4.635,-4.6332,-4.6326,-4.6533,-4.6482,-4.6587,-4.6796,-4.6587,-4.6587,-4.6796,-4.635,-4.5795,-4.5475,-4.5581,-4.5415,-4.5004,-4.5681,-4.6276,0.0,0.0,0.0,0.0,0.0,0.0,0.0,0.0,0.0,0.0,0.0,-4.6221,-4.4035,-4.2782,-4.0793,-3.8718,-3.8801,-3.763,-3.5798,-3.596,-3.5647,-3.498,-3.4758,-3.4869,-3.5091,-3.5312,-3.5423,-3.5423,-3.5312,-3.5202,-3.4758,-3.3861,-3.3438,-3.3149,-3.2664,-3.2374,-3.2219,-3.2322,-3.1903,-3.1556,-3.1208,-3.0548,-3.0023,-2.9789,-2.9408,0.0,0.0,0.0,0.0,0.0,0.0,0.0,0.0,0.0,0.0,-3.3922,0.0,0.0,0.0,0.0,0.0,0.0,0.0,0.0,0.0,0.0,-3.2552,-3.0429,0.0,-3.0476,-3.0053,-2.9212,-2.8611,-2.8244,-2.7563,-2.7248,-2.72,-2.72,-2.72,-2.7067,-2.7067,-2.6934,-2.6532,-2.6398,-2.5861,-2.5187,-2.5322,-2.5052,-2.4645,0.0,0.0,0.0,0.0,0.0,0.0,-4.6459,-4.6387,-4.635,-4.6139,-4.6296,-4.6506,-4.6482,-4.6482,-4.6482,-4.6587,-4.6482,-4.6482,-4.6587,-4.6245,-4.6112,-4.6269,-4.5276,-4.5037,-4.5888,-4.5468,-4.5183,0.0,0.0,-4.7702,0.0,0.0,0.0,0.0,0.0,0.0,0.0,-4.5742,-4.4461,-4.3004,-4.1759,-4.023,-3.8695,-3.8428,-3.733,-3.5753,-3.5578,-3.5246,-3.498,-3.498,-3.5091,-3.5423,-3.5423,-3.5533,-3.5643,-3.5202,-3.498,-3.4758,-3.3861,-3.298,-3.2188,-3.1917,-3.1122,-3.06,-3.1014,-3.0995,-3.0879,-3.0509,-2.9619,-2.8988,-2.9335,-2.8872,-2.8621,0.0,0.0,0.0,0.0,0.0,-3.0282,-3.1968,0.0,0.0,0.0,-3.2305,0.0,0.0,0.0,0.0,0.0,0.0,0.0,-3.3274,-3.2939,-3.2528,-3.1908,-3.0686,-3.0138,-3.0395,-2.928,-2.8656,-2.8316,-2.7877,-2.7534,-2.72,-2.72,-2.7067,-2.68,-2.68,-2.6532,-2.6145,-2.5457,-2.5322,-2.5457,-2.4781,-2.4781,-2.5052,0.0,0.0,0.0,0.0,0.0,0.0,0.0,-4.6215,-4.5822,-4.6218,-4.635,-4.6482,-4.6482,-4.6482,-4.6587,-4.6692,-4.6587,-4.6424,-4.6174,-4.574,-4.5316,-4.4811,-4.4177,-4.3934,-4.4181,-4.4077,-4.4066,0.0,0.0,0.0,0.0,0.0,0.0,0.0,0.0,-4.6196,-4.49,-4.3914,-4.2712,-4.1322,-4.0559,-3.9278,-3.8026,-3.8016,-3.7061,-3.5776,-3.587,-3.5558,-3.5202,-3.5202,-3.5091,-3.498,-3.5312,-3.4979,-3.4625,-3.4537,-3.4098,-3.3443,-3.2432,-3.2051,-3.1615,-3.1003,-3.0561,-3.0312,-3.0781,-3.0684,-3.0431,-3.01,-2.925,-2.8621,-2.8719,-2.8621,-2.8505,-2.8719,0.0,0.0,0.0,0.0,0.0,-3.1579,0.0,-3.0975,0.0,0.0,0.0,0.0,0.0,0.0,0.0,0.0,0.0,-3.3193,0.0,-3.1897,-3.0806,-3.0378,-3.002,-2.9747,-2.9393,-2.8939,-2.8537,-2.804,-2.7461,-2.6934,-2.6934,-2.6666,-2.6398,-2.6398,-2.613,-2.5727,-2.5457,-2.5322,-2.5322,-2.4916,-2.4916,-2.5052,-4.7306,0.0,-4.7259,0.0,-4.6751,-4.6283,-4.6956,-4.6032,-4.5502,-4.6112,-4.6245,-4.6272,-4.6272,-4.6272,-4.6374,-4.6833,-4.6392,-4.6125,-4.6201,-4.5445,-4.4811,-4.452,-4.3836,0.0,-4.3676,-4.3526,-4.3415,-4.3482,-4.4703,0.0,0.0,0.0,0.0,0.0,-4.4702,-4.4002,-4.3312,-4.2193,-4.1136,-4.0331,-3.9533,-3.8494,-3.7502,-3.7425,-3.6812,-3.5798,-3.5915,-3.5714,-3.5423,-3.5533,-3.5202,-3.4847,-3.5244,-3.4623,-3.3898,-3.4006,-3.3463,-3.2663,-3.1704,-3.156,-3.1279,-3.0384,-3.0211,-3.0211,-3.043,-3.0351,-3.0083,-2.9963,-2.9133,-2.8505,-2.8388,-2.8272,-2.8272,-2.8505,0.0,0.0,0.0,-3.0068,0.0,0.0,-3.0878,-3.0625,-3.0677,-3.0838,0.0,0.0,0.0,0.0,0.0,0.0,0.0,0.0,0.0,0.0,-2.9732,-2.9885,-2.9699,-2.9277,-2.9161,-2.891,-2.8508,-2.7563,-2.6918,-2.6532,-2.6532,-2.6264,-2.6011,-2.6011,-2.5742,-2.5457,-2.5457,-2.5322,-2.5052,-2.5052,-2.5187,-2.5187,-4.7219,-4.7377,-4.7574,-4.7603,-4.7079,-4.655,-4.6349,-4.5944,-4.5609,-4.5609,-4.5609,-4.5609,-4.5609,-4.5609,-4.587,-4.6578,-4.5738,-4.5533,-4.6495,-4.5119,-4.4785,0.0,0.0,-4.3976,-4.5348,-4.4059,-4.3566,-4.3727,0.0,0.0,-4.4098,0.0,-4.5076,-4.4361,-4.3431,-4.2874,-4.2351,-4.0488,-3.9874,-4.0306,-3.893,-3.7943,-3.7455,-3.6812,-3.6294,-3.5753,-3.5533,-3.5423,-3.5423,-3.5753,-3.5643,-3.5333,-3.5165,-3.4774,-3.4155,-3.3648,-3.3307,-3.2965,-3.2232,-3.1692,-3.1223,-3.0418,-3.0108,-2.9925,-2.9702,-2.9902,-3.0083,-2.9963,-2.9348,-2.8719,-2.8505,-2.8155,-2.8137,-2.8719,0.0,0.0,0.0,-3.0405,0.0,-3.095,-3.0405,-2.9331,-2.7762,0.0,0.0,0.0,0.0,0.0,0.0,0.0,0.0,-3.0432,-3.0148,0.0,-2.9328,-2.8992,-2.8939,-2.9316,-2.8675,-2.813,-2.7716,-2.6666,-2.6145,-2.6145,-2.6145,-2.5876,-2.5607,-2.5607,-2.5457,-2.5052,-2.5052,-2.5052,-2.5052,-2.5052,-2.5322,-2.5592,-4.8054,-4.7998,-4.7797,-4.742,-4.6778,-4.6261,-4.6338,-4.5555,-4.5154,-4.5609,-4.5261,-4.4938,-4.4938,-4.5368,-4.5714,0.0,-4.5738,-4.5654,0.0,-4.5208,-4.4784,-4.5074,-4.3836,-4.3347,-4.3727,-4.3322,-4.3127,-4.3218,0.0,0.0,0.0,-4.4119,-4.3694,-4.3077,-4.2263,-4.152,-4.0998,-3.9874,-3.9022,-3.8366,-3.7892,-3.7298,-3.6616,-3.6507,-3.6196,-3.5753,-3.5753,-3.5643,-3.5643,-3.573,-3.5613,-3.5358,-3.4964,-3.4374,-3.3643,-3.3226,-3.2141,-3.1254,-3.1398,-3.0792,-3.0028,-3.0004,-2.9675,-2.9309,-2.9512,-2.9563,-2.9565,-2.9448,-2.8801,-2.8081,-2.7967,-2.7852,-2.7943,-2.8449,-2.8718,0.0,-3.061,0.0,-3.0073,-3.0351,-2.9692,-2.8856,-2.7642,-2.7626,0.0,0.0,0.0,0.0,0.0,0.0,0.0,0.0,-2.9877,0.0,-2.8656,-2.8444,-2.8395,-2.8246,-2.8263,-2.7998,-2.7334,-2.68,-2.6264,-2.5742,-2.5742,-2.5592,-2.5187,-2.5187,-2.5187,-2.5052,-2.5052,-2.5052,-2.5052,-2.5052,-2.5322,-2.5592,-4.8308,-4.811,-4.774,-4.7133,-4.6414,-4.5867,-4.5867,-4.5209,-4.483,-4.5154,-4.4938,-4.4722,-4.4722,-4.5046,0.0,-4.5867,-4.5368,-4.5313,-4.5868,-4.4944,-4.433,-4.4413,-4.3464,-4.2958,-4.2909,-4.2703,0.0,-4.268,-4.3406,-4.3635,-4.3498,-4.3033,-4.2549,-4.1966,-4.1004,-4.0342,-4.0018,-3.8856,-3.8037,-3.7432,-3.7136,-3.6772,-3.6277,-3.6168,-3.6059,-3.595,-3.584,-3.584,-3.595,-3.595,-3.5717,-3.5428,-3.4841,-3.4125,-3.3376,-3.3086,-3.2049,-3.1,-3.1333,-3.0847,-3.0118,-2.9885,-2.9597,-2.9349,-2.9512,-2.9334,-2.9164,-2.9448,-2.8741,-2.804,-2.8089,-2.8107,-2.8199,-2.8337,-2.871,-2.9305,-3.0043,0.0,-2.978,0.0,0.0,0.0,0.0,-2.665,-2.6727,0.0,0.0,0.0,0.0,0.0,-3.0804,-3.0519,-2.9142,-2.8229,-2.7922,-2.7979,-2.7981,-2.77,-2.7865,-2.76,-2.72,-2.6532,-2.5996,-2.5592,-2.5457,-2.5322,-2.5052,-2.5052,-2.5052,-2.5052,-2.5052,-2.5052,-2.5052,-2.5187,-2.5457,-2.5742,-4.8207,-4.7828,-4.7334,0.0,-4.6173,-4.556,-4.5042,-4.4784,-4.4722,-4.4722,-4.4722,-4.4722,-4.4722,-4.4722,-4.4916,-4.556,0.0,0.0,-4.5608,-4.452,-4.3851,-4.3984,-4.3336,-4.296,-4.2892,-4.2051,-4.1795,-4.2084,-4.2118,-4.2082,-4.2057,-4.1753,-4.1447,-4.1201,-3.9818,-3.9407,-3.933,-3.776,-3.7185,-3.7362,-3.657,-3.6277,-3.6277,-3.595,-3.6059,-3.6277,-3.595,-3.6059,-3.6277,-3.6277,-3.5933,-3.5321,-3.4607,-3.3899,-3.3182,-3.3205,-3.2559,-3.1827,-3.2017,-3.1778,-3.1207,-2.9931,-2.9833,-2.9925,-2.9682,-2.9141,-2.8937,-2.9676,-2.9095,-2.8381,-2.8491,-2.8462,-2.848,-2.8517,-2.8755,-2.9112,-2.9487,-2.9705,-2.9568,0.0,0.0,0.0,-2.6189,-2.5717,-2.5756,0.0,0.0,0.0,0.0,0.0,-2.8986,-2.8774,-2.8114,-2.7584,-2.72,-2.7451,-2.7716,-2.77,-2.7334,-2.72,-2.7067,-2.613,-2.5607,-2.5592,-2.5322,-2.5187,-2.5187,-2.5052,-2.5052,-2.5187,-2.5187,-2.5187,-2.5187,-2.5457,-2.5876,-2.6145,0.0,0.0,-4.7374,-4.6627,-4.6002,-4.5475,-4.4835,-4.4752,-4.4722,-4.4722,-4.4722,-4.4722,-4.4722,-4.4722,-4.4778,-4.4942,-4.4728,-4.4942,-4.587,-4.5049,-4.4699,-4.518,-4.3958,-4.3067,-4.2394,-4.197,-4.1707,-4.1554,-4.1594,-4.1422,-4.118,-4.1097,-4.0854,-4.0282,-3.9298,-3.8731,-3.8256,-3.7185,-3.6673,-3.6547,-3.6432,-3.6277,-3.6277,-3.6168,-3.6277,-3.6277,-3.6168,-3.6277,-3.6277,-3.6277,-3.5933,-3.5321,-3.4607,-3.3899,-3.3205,-3.2997,-3.193,-3.1079,-3.1996,-3.1197,-3.0122,-3.0359,-3.0049,-2.957,-2.9234,-2.9145,-2.9012,-2.8651,-2.8473,-2.8333,-2.798,-2.8199,-2.8527,-2.882,-2.8993,-2.9324,-3.0238,-2.9893,-2.9305,0.0,-2.8059,-2.7039,-2.5472,-2.5226,-2.5509,0.0,0.0,0.0,-2.7544,-2.7388,-2.7814,-2.8757,-2.7849,-2.7334,-2.72,-2.7334,-2.7334,-2.7334,-2.6934,-2.68,-2.68,-2.6264,-2.6011,-2.5996,-2.5607,-2.5457,-2.5457,-2.5187,-2.5187,-2.5457,-2.5457,-2.5592,-2.5876,-2.6011,-2.6264,-2.6532,-4.8581,-4.8004,-4.7288,-4.6323,-4.5901,-4.5395,-4.483,-4.4722,-4.4722,-4.4722,-4.4938,-4.5046,-4.4964,-4.5072,-4.5048,-4.4758,-4.4673,-4.4833,-4.4997,-4.4807,-4.4594,-4.4203,-4.3412,-4.2574,-4.1508,-4.1043,-4.0576,-4.0259,-4.0294,-4.0162,-3.9726,-4.0079,-3.9756,-3.8839,-3.8443,-3.7892,-3.7302,-3.6936,-3.6603,-3.6277,-3.6386,-3.6386,-3.6277,-3.6495,-3.6386,-3.6277,-3.6277,-3.6277,-3.6231,-3.6002,-3.5611,-3.5001,-3.4162,-3.3456,-3.3016,-3.2827,-3.1825,-3.1079,-3.2107,-3.1279,-3.0108,-3.0148,-2.9702,-2.9167,-2.8964,-2.8802,-2.8672,-2.8462,-2.8307,-2.815,-2.8064,-2.84,-2.8737,-2.8719,-2.8975,-2.9405,-2.9766,-2.9342,-2.8792,-2.7922,-2.728,-2.6432,-2.5226,-2.5103,-2.5306,-2.5622,-2.5886,0.0,-2.6657,-2.6547,-2.6918,-2.7864,-2.7116,-2.6724,-2.6724,-2.6883,-2.6962,-2.6962,-2.683,-2.6776,-2.6918,-2.6362,-2.6244,-2.6398,-2.6011,-2.5876,-2.5861,-2.5607,-2.5592,-2.5876,-2.5876,-2.5996,-2.6145,-2.6264,-2.6532,-2.6666,-4.8179,-4.7699,-4.6977,-4.6112,-4.5795,-4.5395,-4.483,-4.4722,-4.4722,-4.483,-4.5287,-4.5502,-4.5287,-4.5502,-4.5263,-4.4729,-4.4518,-4.4382,-4.3912,-4.4144,-4.3854,-4.268,-4.2447,-4.1693,-4.042,-3.9661,-3.905,-3.8526,-3.8785,-3.8524,-3.8089,-3.8679,-3.8334,-3.737,-3.7441,-3.7143,-3.6712,-3.6712,-3.6495,-3.6386,-3.658,-3.6495,-3.6386,-3.6603,-3.6495,-3.6277,-3.6277,-3.6277,-3.6185,-3.568,-3.5198,-3.4612,-3.3569,-3.2971,-3.2679,-3.276,-3.1782,-3.1082,-3.2133,-3.1493,-3.0359,-2.9702,-2.9238,-2.8894,-2.8507,-2.8214,-2.8219,-2.8518,-2.8196,-2.787,-2.8328,-2.8628,-2.8801,-2.8636,-2.9094,-2.9331,-2.9094,0.0,-2.8241,-2.7297,-2.6692,-2.6067,-2.5226,-2.5226,-2.5226,-2.5103,-2.5365,-2.5617,-2.6032,-2.6032,-2.6052,-2.6501,-2.6344,-2.6152,-2.6152,-2.6501,-2.6676,-2.6676,-2.6724,-2.6914,-2.7185,-2.6619,-2.6503,-2.68,-2.6398,-2.613,-2.6145,-2.6145,-2.6145,-2.613,-2.613,-2.6264,-2.6264,-2.6666,-2.68,-2.68,-4.8179,-4.7699,-4.6977,-4.6112,-4.5795,-4.5395,-4.483,-4.4722,-4.483,-4.5368,-4.5395,-4.5395,-4.5795,-4.5502,-4.5049,-4.4441,-4.3964,-4.3776,-4.3885,-4.307,-4.2674,-4.2874,-4.1529,-4.0551,-3.9865,-3.8262,-3.7465,-3.7334,-3.7215,-3.7025,-3.672,-3.7025,-3.7025,-3.6638,-3.6741,-3.682,-3.6712,-3.6495,-3.6495,-3.6603,-3.6495,-3.6495,-3.6603,-3.6386,-3.6386,-3.6277,-3.6277,-3.6277,-3.6185,-3.568,-3.5198,-3.4612,-3.3753,-3.2744,-3.1944,-3.2345,-3.1021,-2.9754,-3.1412,-3.0782,-2.9682,-2.9121,-2.9036,-2.893,-2.8233,-2.8108,-2.807,-2.751,-2.7694,-2.7801,-2.793,-2.8242,-2.859,-2.8938,-2.8975,-2.9213,-2.945,0.0,-2.8618,-2.79,-2.7779,-2.7177,-2.561,-2.5839,-2.5717,-2.5103,-2.5103,-2.5258,-2.5306,-2.5306,-2.5338,-2.5386,-2.5834,-2.6152,-2.6152,-2.6501,-2.6676,-2.6676,-2.6978,-2.7153,-2.72,-2.7137,-2.702,-2.7067,-2.68,-2.6666,-2.6532,-2.6264,-2.6264,-2.6666,-2.6666,-2.68,-2.7067,-2.7067,-2.7067,-2.7067,-4.8179,-4.7801,-4.7184,-4.6218,-4.5795,-4.5395,-4.483,-4.4722,-4.4938,-4.5502,-4.5502,-4.5609,-4.5901,-4.5527,-4.4784,-4.3887,-4.3023,-4.2527,-4.2527,-4.2368,-4.1898,-4.1225,-4.0576,-3.9717,-3.8597,-3.7584,-3.7002,-3.6956,-3.6825,-3.6526,-3.5955,-3.6549,-3.6459,-3.6015,-3.647,-3.6603,-3.6495,-3.6386,-3.6386,-3.6495,-3.6495,-3.6495,-3.6495,-3.6495,-3.6386,-3.6277,-3.6495,-3.6386,-3.614,-3.5571,-3.5073,-3.467,-3.3561,-3.2622,-3.2059,-3.2097,-3.1146,-3.0003,-3.0194,-2.9699,-2.9105,-2.8906,-2.8687,-2.8282,-2.7763,-2.7638,-2.7456,-2.7271,-2.7325,-2.7581,-2.8022,-2.826,-2.8517,-2.892,-2.8975,-2.9094,-2.9213,-2.8737,-2.8379,-2.802,-2.7659,-2.7177,-2.6449,-2.6449,-2.6449,-2.6205,-2.6083,-2.5961,-2.5717,-2.5594,-2.5472,-2.5103,-2.5421,-2.5675,-2.5866,-2.6215,-2.6485,-2.6676,-2.6835,-2.7026,-2.72,-2.701,-2.7026,-2.72,-2.7067,-2.6934,-2.6934,-2.68,-2.68,-2.6934,-2.6934,-2.7067,-2.72,-2.72,-2.72,-2.72,-4.8179,-4.7903,-4.7391,-4.6323,-4.5901,-4.5609,-4.4964,-4.4722,-4.4938,-4.5502,-4.5609,-4.5662,-4.5818,-4.5415,-4.454,-4.3539,-4.2319,-4.157,-4.1157,-4.1333,-4.0917,-3.964,-3.9495,-3.8728,-3.7382,-3.7143,-3.6885,-3.6601,-3.6706,-3.6439,-3.5609,-3.6383,-3.6284,-3.5746,-3.6317,-3.6495,-3.6277,-3.6277,-3.6386,-3.6386,-3.6603,-3.6472,-3.6386,-3.6603,-3.6495,-3.6386,-3.6603,-3.6534,-3.6171,-3.5585,-3.5108,-3.4567,-3.3242,-3.2544,-3.2095,-3.171,-3.0936,-3.0064,-2.9095,-2.875,-2.8593,-2.8691,-2.83,-2.7745,-2.7422,-2.7098,-2.6974,-2.7087,-2.7031,-2.7288,-2.8095,-2.8242,-2.8407,-2.8902,0.0,-2.8975,-2.8975,-2.8498,-2.8259,-2.814,-2.7709,-2.7314,-2.7159,-2.7091,-2.7073,-2.7056,-2.7056,-2.6692,-2.6067,-2.6189,-2.5994,-2.5338,-2.523,-2.5357,-2.5628,-2.6057,-2.6406,-2.6676,-2.6756,-2.6946,-2.72,-2.6914,-2.6946,-2.72,-2.72,-2.72,-2.72,-2.72,-2.72,-2.72,-2.72,-2.72,-2.72,-2.72,-2.72,-2.72,-4.7801,-4.7903,-4.7671,-4.6533,-4.6323,-4.6112,-4.5287,-4.4856,-4.4938,-4.5502,-4.5395,-4.5289,-4.5461,-4.5069,-4.4277,-4.3158,-4.2186,-4.1415,-4.0594,-3.9565,-3.9241,-3.966,-3.8179,-3.7059,-3.6386,-3.6603,-3.6456,-3.5945,-3.6496,-3.6422,-3.5647,-3.6132,-3.6285,-3.5945,-3.6264,-3.6277,-3.6277,-3.6277,-3.6495,-3.6712,-3.6386,-3.6495,-3.6712,-3.6386,-3.6495,-3.6712,-3.6712,-3.6517,-3.6262,-3.578,-3.5263,-3.4567,-3.3183,-3.2297,-3.1483,-3.0681,-2.9679,-2.8787,-2.8787,-2.8534,-2.8301,-2.834,-2.7891,-2.7422,-2.7441,-2.7008,-2.6591,-2.6628,-2.6628,-2.6866,-2.7673,-2.782,-2.8077,-2.8847,0.0,0.0,-2.8975,-2.8975,-2.8874,-2.8517,-2.831,-2.8102,-2.7486,-2.7428,-2.7257,-2.7021,-2.7056,-2.6692,-2.6067,-2.6449,-2.6355,-2.6064,-2.5721,-2.5612,-2.5643,-2.6295,-2.6644,-2.6676,-2.701,-2.7185,-2.72,-2.7169,-2.7185,-2.72,-2.72,-2.72,-2.72,-2.72,-2.72,-2.72,-2.72,-2.72,-2.72,-2.72,-2.72,-2.72,-4.8308,-4.8179,-4.7773,-4.6846,-4.6323,-4.6007,-4.5502,-4.518,-4.5395,-4.656,-4.5368,-4.4758,-4.569,-4.4399,-4.3171,-4.2849,-4.1821,-4.1027,-4.0517,-3.9258,-3.8388,-3.8048,-3.7345,-3.682,-3.6603,-3.7036,-3.7015,-3.6496,-3.6892,-3.6733,-3.6105,-3.6341,-3.6391,-3.6203,-3.6479,-3.6495,-3.6277,-3.6495,-3.6495,-3.6495,-3.6386,-3.6386,-3.6495,-3.6472,-3.6603,-3.6712,-3.7143,-3.6838,-3.611,-3.5756,-3.483,-3.3708,-3.278,-3.2112,-3.1315,-3.0281,-2.9554,-2.9084,-2.8593,-2.8408,-2.8301,-2.8301,-2.796,-2.7638,-2.7422,-2.7098,-2.6791,-2.6591,-2.6774,-2.7123,-2.7673,-2.7985,-2.8333,-2.8902,0.0,-2.8975,-2.8975,-2.8975,-2.8993,-2.8874,-2.8728,-2.8692,-2.848,-2.8354,-2.8336,-2.8241,-2.8259,-2.7779,-2.6692,-2.6175,-2.5875,-2.5753,-2.6057,-2.6279,-2.6279,-2.6549,-2.6787,-2.701,-2.7137,-2.72,-2.72,-2.72,-2.72,-2.72,-2.72,-2.72,-2.72,-2.72,-2.72,-2.72,-2.72,-2.72,-2.72,-2.72,-2.72,-2.72,-4.881,-4.8481,-4.7976,-4.7363,-4.6742,-4.6245,-4.5715,-4.5609,-4.5741,-4.6184,-4.5074,-4.4361,-4.4942,-4.3477,-4.2413,-4.233,-4.1331,-4.0694,-4.0389,-3.9025,-3.7868,-3.7012,-3.682,-3.6712,-3.6712,-3.7274,-3.7334,-3.6811,-3.7268,-3.718,-3.6675,-3.6578,-3.6626,-3.665,-3.6549,-3.6495,-3.6277,-3.6495,-3.6495,-3.6277,-3.6277,-3.6294,-3.6156,-3.6534,-3.6703,-3.6801,-3.7252,-3.6909,-3.6273,-3.5465,-3.4485,-3.3424,-3.2552,-3.1736,-3.0971,-3.0106,-2.959,-2.9105,-2.8682,-2.8398,-2.8301,-2.8301,-2.8067,-2.7853,-2.7422,-2.7206,-2.6881,-2.67,-2.6811,-2.7141,-2.7673,-2.8003,-2.837,-2.8902,-2.8975,-2.8975,-2.8975,-2.8975,-2.8975,-2.8975,-2.8883,-2.8847,-2.8975,-2.8865,-2.8847,-2.8975,-2.8737,-2.814,-2.6935,-2.6191,-2.5814,-2.6055,-2.652,-2.6873,-2.6966,-2.6966,-2.6962,-2.72,-2.72,-2.72,-2.72,-2.72,-2.72,-2.72,-2.72,-2.72,-2.72,-2.72,-2.72,-2.72,-2.72,-2.72,-2.72,-2.72,-2.72,-2.72,-4.9207,-4.8909,-4.838,-4.8179,-4.7699,-4.6873,-4.5822,-4.6007,-4.5792,-4.415,-4.4388,-4.425,-4.3131,-4.2466,-4.2027,-4.1749,-4.0997,-4.0389,-4.0083,-3.8816,-3.7655,-3.6688,-3.6688,-3.6688,-3.6712,-3.7251,-3.7334,-3.6835,-3.7628,-3.7709,-3.7204,-3.7098,-3.7143,-3.7036,-3.6603,-3.6277,-3.6277,-3.6254,-3.6254,-3.6254,-3.6254,-3.6171,-3.5991,-3.6503,-3.6707,-3.6811,-3.6811,-3.6996,-3.6932,-3.5067,-3.4411,-3.4106,-3.2433,-3.1291,-3.048,-3.0147,-2.9498,-2.8926,-2.8926,-2.8613,-2.8301,-2.8301,-2.8067,-2.7853,-2.7422,-2.7206,-2.6881,-2.67,-2.6591,-2.683,-2.7618,-2.7765,-2.804,-2.8847,-2.8975,-2.8975,-2.8975,-2.8975,-2.8975,-2.8975,-2.8645,-2.8553,-2.8938,-2.8627,-2.8553,-2.8957,-2.8379,-2.7539,-2.6692,-2.6327,-2.6414,-2.7173,-2.7189,-2.7262,-2.77,-2.7334,-2.72,-2.72,-2.72,-2.72,-2.72,-2.72,-2.72,-2.72,-2.72,-2.72,-2.72,-2.72,-2.72,-2.72,-2.72,-2.72,-2.72,-2.72,-2.72,-2.72,-4.8781,-4.8581,-4.8179,-4.7363,-4.7081,-4.6873,-4.6218,-4.656,-4.6447,-4.5511,-4.4667,-4.3926,-4.3379,-4.2224,-4.1507,-4.1424,-4.0896,-4.0083,-3.8945,-3.821,-3.7323,-3.652,-3.652,-3.6791,-3.7358,-3.7321,-3.7436,-3.7652,-3.7902,-3.7902,-3.7757,-3.7263,-3.7143,-3.712,-3.6712,-3.6495,-3.6254,-3.6125,-3.5964,-3.5703,-3.5382,-3.5363,-3.5457,-3.5783,-3.6284,-3.6763,-3.6589,-3.6685,-3.6621,-3.476,-3.3777,-3.2997,-3.1655,-3.0669,-3.0207,-3.0393,-3.0167,-2.9687,-2.9082,-2.8828,-2.8652,-2.8359,-2.8281,-2.8067,-2.7853,-2.753,-2.7206,-2.6899,-2.7124,-2.749,-2.7728,-2.8223,-2.87,-2.8938,-2.8975,-2.8975,-2.8975,-2.8975,-2.8975,-2.8975,-2.8883,-2.8847,-2.8975,-2.8883,-2.8728,-2.8379,-2.7539,-2.7056,-2.6952,-2.6951,-2.6958,-2.7173,-2.7668,-2.8048,-2.8114,-2.7716,-2.7584,-2.7584,-2.7865,-2.7998,-2.7998,-2.7716,-2.7584,-2.7584,-2.7334,-2.72,-2.72,-2.72,-2.72,-2.72,-2.72,-2.72,-2.72,-2.72,-2.72,-2.72,-4.8781,-4.838,-4.7976,-4.7568,-4.7184,-4.6687,-4.613,-4.6414,-4.6216,-4.4963,-4.4226,-4.3594,-4.3004,-4.1908,-4.1324,-4.1324,-4.0491,-3.9647,-3.8816,-3.7998,-3.7358,-3.6706,-3.6388,-3.653,-3.7287,-3.7268,-3.7445,-3.7974,-3.7974,-3.7998,-3.7785,-3.7465,-3.7251,-3.7143,-3.682,-3.6487,-3.6171,-3.5871,-3.5534,-3.5198,-3.5027,-3.4982,-3.5128,-3.5624,-3.5971,-3.635,-3.6117,-3.6248,-3.6156,-3.4096,-3.2694,-3.1635,-3.0751,-3.0209,-3.0115,-3.0438,-3.0211,-2.9844,-2.9316,-2.9043,-2.8809,-2.8398,-2.8301,-2.8194,-2.796,-2.7638,-2.7314,-2.7098,-2.729,-2.7581,-2.7746,-2.8413,-2.891,-2.8957,-2.9094,-2.9094,-2.8975,-2.8975,-2.8975,-2.8975,-2.8975,-2.8975,-2.8975,-2.8975,-2.8618,-2.7882,-2.7177,-2.6881,-2.6912,-2.7102,-2.736,-2.7644,-2.8077,-2.8245,-2.8263,-2.813,-2.7981,-2.77,-2.813,-2.813,-2.7865,-2.7716,-2.7584,-2.7451,-2.7334,-2.72,-2.72,-2.72,-2.72,-2.72,-2.72,-2.72,-2.72,-2.72,-2.72,-2.72,-4.881,-4.8207,-4.7903,-4.828,-4.7541,-4.6627,-4.5771,-4.6044,-4.5477,-4.3332,-4.3471,-4.3355,-4.2244,-4.1696,-4.1324,-4.1324,-3.9955,-3.9233,-3.9233,-3.8161,-3.7392,-3.7156,-3.6398,-3.6193,-3.674,-3.7028,-3.7397,-3.7974,-3.7974,-3.7892,-3.7596,-3.7596,-3.7489,-3.7143,-3.6773,-3.6386,-3.5968,-3.5534,-3.5129,-3.482,-3.4982,-3.4988,-3.4792,-3.5568,-3.5699,-3.5517,-3.5517,-3.5679,-3.5502,-3.3173,-3.1398,-3.012,-3.0005,-2.9978,-3.0043,-3.0211,-2.9922,-2.9609,-2.959,-2.9258,-2.8828,-2.8496,-2.8359,-2.8281,-2.796,-2.7676,-2.7371,-2.7154,-2.716,-2.7343,-2.786,-2.8381,-2.8886,-2.9039,-2.9331,-2.945,-2.9094,-2.8975,-2.8975,-2.8975,-2.8975,-2.8975,-2.8975,-2.8856,-2.8498,-2.7521,-2.7177,-2.6966,-2.6686,-2.7018,-2.7495,-2.8168,-2.8252,-2.8324,-2.8395,-2.8675,-2.8395,-2.7716,-2.813,-2.7998,-2.7334,-2.7584,-2.7584,-2.72,-2.72,-2.72,-2.72,-2.72,-2.72,-2.72,-2.72,-2.72,-2.72,-2.72,-2.72,-2.72,-4.8004,-4.8207,-4.8308,-4.7391,-4.6799,-4.6338,-4.6024,-4.5761,-4.5084,-4.3479,-4.3571,-4.3355,-4.2244,-4.1993,-4.1796,-4.1324,-3.9853,-3.9025,-3.9258,-3.7823,-3.6844,-3.6603,-3.5973,-3.5925,-3.6477,-3.6579,-3.7036,-3.7974,-3.7974,-3.7974,-3.7892,-3.7702,-3.7596,-3.7465,-3.6744,-3.6297,-3.5922,-3.4982,-3.4588,-3.4449,-3.4156,-3.4223,-3.4525,-3.4718,-3.4956,-3.5318,-3.5318,-3.5371,-3.5344,-3.3399,-3.1371,-2.9719,-3.0509,-3.0545,-3.0192,-3.0537,-3.0364,-3.0,-2.9668,-2.9258,-2.8984,-2.9238,-2.8789,-2.8301,-2.8194,-2.8122,-2.7914,-2.7804,-2.7679,-2.7879,-2.8496,-2.9021,-2.9456,-2.9667,-2.9568,-2.945,-2.945,-2.9213,-2.8975,-2.8975,-2.8975,-2.8975,-2.8975,-2.8241,-2.7762,-2.7521,-2.7056,-2.6743,-2.6949,-2.7616,-2.7882,-2.7798,-2.837,-2.8723,-2.8675,-2.8807,-2.8395,-2.7716,-2.8395,-2.8411,-2.7998,-2.7849,-2.77,-2.7584,-2.7334,-2.72,-2.72,-2.72,-2.72,-2.72,-2.72,-2.7067,-2.68,-2.7067,-2.7067,-2.68,-4.7596,-4.7801,-4.8021,-4.6799,-4.6291,-4.5907,-4.5403,-4.4947,-4.431,-4.3345,-4.3165,-4.2932,-4.2315,-4.219,-4.1895,-4.1324,-4.0032,-3.9109,-3.9091,-3.7685,-3.6661,-3.6275,-3.5861,-3.5857,-3.6386,-3.6411,-3.6916,-3.7974,-3.7974,-3.7892,-3.7785,-3.7785,-3.7559,-3.7215,-3.6743,-3.6109,-3.5385,-3.4746,-3.4171,-3.3839,-3.3784,-3.3866,-3.4064,-3.4261,-3.4568,-3.5017,-3.4692,-3.4383,-3.4003,-3.2827,-3.1347,-3.0108,-3.0772,-3.0438,-2.9872,-3.0426,-3.0485,-3.0254,-2.9818,-2.9589,-2.9459,-2.9498,-2.9192,-2.8906,-2.8687,-2.8358,-2.8104,-2.8089,-2.8125,-2.8247,-2.8663,-2.9287,-2.9686,-2.9686,-2.9686,-2.9568,-2.9331,-2.9094,-2.8975,-2.8975,-2.8975,-2.8993,-2.8755,-2.8318,-2.7852,-2.7539,-2.7381,-2.748,-2.7604,-2.8152,-2.8418,-2.8202,-2.8719,-2.879,-2.8263,-2.879,-2.8659,-2.7716,-2.8395,-2.8527,-2.7981,-2.7849,-2.7584,-2.7451,-2.7334,-2.72,-2.72,-2.72,-2.72,-2.72,-2.72,-2.7067,-2.68,-2.7067,-2.7067,-2.68,-4.7355,-4.7457,-4.7438,-4.6321,-4.5723,-4.5239,-4.4719,-4.4081,-4.3541,-4.3024,-4.2706,-4.2511,-4.2679,-4.2387,-4.1993,-4.1298,-4.0262,-3.9295,-3.8792,-3.737,-3.6398,-3.6084,-3.5764,-3.5905,-3.6531,-3.6531,-3.7012,-3.7974,-3.7974,-3.7844,-3.7559,-3.7748,-3.7484,-3.6668,-3.6701,-3.5947,-3.4792,-3.452,-3.3939,-3.3392,-3.3592,-3.3738,-3.3884,-3.4012,-3.434,-3.4731,-3.4119,-3.3331,-3.2382,-3.21,-3.1227,-3.0489,-3.0852,-3.0388,-2.9689,-3.046,-3.059,-3.0299,-2.9997,-2.9859,-2.9758,-2.956,-2.9439,-2.9303,-2.918,-2.8726,-2.835,-2.8483,-2.844,-2.8547,-2.9025,-2.9502,-2.9846,-2.9785,-2.9922,-2.9804,-2.9213,-2.9094,-2.9094,-2.8993,-2.8993,-2.8755,-2.8397,-2.8514,-2.8237,-2.7522,-2.7916,-2.8186,-2.8186,-2.8563,-2.8793,-2.8706,-2.902,-2.879,-2.7849,-2.879,-2.8774,-2.7981,-2.8527,-2.8395,-2.77,-2.77,-2.7584,-2.72,-2.72,-2.72,-2.72,-2.72,-2.72,-2.72,-2.72,-2.6934,-2.6666,-2.68,-2.6934,-2.6934,-4.6671,-4.7291,-4.7685,-4.5586,-4.4936,-4.4746,-4.4899,-4.3849,-4.3176,-4.3423,-4.2873,-4.2776,-4.3423,-4.3067,-4.2387,-4.1372,-4.013,-3.8995,-3.8209,-3.6642,-3.5978,-3.629,-3.5857,-3.6074,-3.706,-3.7084,-3.7372,-3.7974,-3.7974,-3.7757,-3.7196,-3.73,-3.7012,-3.6381,-3.5949,-3.5461,-3.4769,-3.4346,-3.3936,-3.3691,-3.3691,-3.4123,-3.4574,-3.4228,-3.4373,-3.467,-3.4357,-3.3197,-3.1927,-3.1746,-3.0913,-3.0017,-3.1116,-3.0944,-3.046,-3.1238,-3.0701,-2.9957,-3.0299,-2.9659,-2.9084,-2.9778,-2.9203,-2.8641,-2.9543,-2.9642,-2.9603,-2.9546,-2.9089,-2.8975,-3.0045,-2.993,-2.9988,-3.0587,-3.0528,-3.0157,-2.9804,-2.9568,-2.9331,-2.8975,-2.8755,-2.8397,-2.814,-2.8131,-2.7973,-2.7658,-2.7946,-2.8186,-2.8186,-2.8563,-2.8656,-2.8303,-2.8622,-2.8807,-2.8675,-2.8807,-2.8922,-2.9053,-2.8922,-2.8395,-2.77,-2.77,-2.7584,-2.72,-2.72,-2.72,-2.72,-2.72,-2.72,-2.72,-2.72,-2.68,-2.613,-2.5861,-2.5996,-2.6145,-4.6079,-4.6321,-4.642,-4.4628,-4.4228,-4.4151,-4.418,-4.3712,-4.3232,-4.3067,-4.2776,-4.2873,-4.3163,-4.2575,-4.178,-4.0702,-3.9367,-3.8116,-3.692,-3.6081,-3.5593,-3.5521,-3.5593,-3.5978,-3.6747,-3.7036,-3.7445,-3.7974,-3.7974,-3.7709,-3.7204,-3.7204,-3.6747,-3.5954,-3.5713,-3.525,-3.4568,-3.4256,-3.3988,-3.3691,-3.3592,-3.387,-3.424,-3.3854,-3.4175,-3.488,-3.4026,-3.316,-3.2154,-3.1671,-3.1052,-3.0608,-3.1482,-3.1379,-3.1093,-3.1899,-3.1754,-3.1313,-3.1251,-3.0799,-3.0279,-3.0329,-2.9739,-2.9439,-2.9906,-2.9986,-2.993,-2.9833,-2.9431,-2.9317,-3.0276,-3.0045,-3.0026,-3.0568,-3.0509,-3.0274,-2.9686,-2.9686,-2.9568,-2.9094,-2.8874,-2.8498,-2.7762,-2.8009,-2.7991,-2.7604,-2.8169,-2.8528,-2.8528,-2.8871,-2.8946,-2.8555,-2.8838,-2.8922,-2.8527,-2.8922,-2.9053,-2.9053,-2.9053,-2.8659,-2.7981,-2.7849,-2.7584,-2.72,-2.72,-2.72,-2.72,-2.72,-2.72,-2.72,-2.72,-2.6934,-2.6398,-2.6011,-2.6011,-2.6011]}]]